Mi HomeGuard - helping people stay independent longer.


Humidity


Temperature

Click to expand.

Last sensor readings.  

Lowest: 44%

s1 Conserv HT*
Wed Mar 20 10:57, 77.8% 10.7c

Wed Mar 20 10:57, 77.8% 10.7c
Wed Mar 20 09:59, 78.6% 10.6c
Wed Mar 20 09:49, 77.4% 10.8c
Wed Mar 20 09:41, 76.0% 11.3c
Wed Mar 20 09:16, 76.0% 11.8c
Wed Mar 20 09:09, 78.1% 11.3c
Wed Mar 20 09:06, 79.8% 10.8c
Wed Mar 20 09:05, 80.0% 10.7c
Wed Mar 20 09:03, 81.3% 10.3c
Wed Mar 20 08:50, 81.8% 9.8c
Wed Mar 20 08:14, 79.6% 9.5c
Wed Mar 20 08:10, 81.2% 9.2c
Wed Mar 20 07:23, 78.3% 8.7c
Wed Mar 20 06:32, 78.4% 8.6c
Wed Mar 20 05:34, 78.3% 8.5c
Wed Mar 20 04:39, 78.1% 8.5c
Wed Mar 20 03:41, 77.9% 8.5c
Wed Mar 20 02:50, 77.4% 8.5c
Wed Mar 20 01:57, 77.5% 8.5c
Wed Mar 20 01:06, 77.5% 8.6c
Wed Mar 20 00:12, 77.7% 8.7c
Tue Mar 19 23:21, 77.7% 8.8c
Tue Mar 19 23:15, 77.6% 8.7c
Tue Mar 19 22:28, 77.2% 8.8c
Tue Mar 19 21:34, 76.9% 8.9c
Tue Mar 19 20:36, 76.7% 9.1c
Tue Mar 19 19:38, 76.2% 9.3c
Tue Mar 19 19:24, 75.9% 9.2c
Tue Mar 19 18:45, 75.6% 9.5c
Tue Mar 19 18:08, 74.9% 9.8c
Tue Mar 19 17:52, 74.8% 10.1c
Tue Mar 19 17:31, 74.4% 10.3c
Tue Mar 19 17:06, 73.3% 10.8c
Tue Mar 19 16:59, 73.0% 10.9c
Tue Mar 19 16:06, 70.3% 11.6c
Tue Mar 19 16:03, 68.9% 11.3c
Tue Mar 19 15:40, 67.8% 11.8c
Tue Mar 19 15:19, 67.0% 12.4c
Tue Mar 19 15:10, 66.9% 12.5c
Tue Mar 19 14:46, 65.9% 12.9c
Tue Mar 19 14:29, 64.8% 13.4c
Tue Mar 19 14:21, 63.7% 13.9c
Tue Mar 19 14:16, 62.4% 14.4c
Tue Mar 19 14:15, 62.0% 14.6c
Tue Mar 19 14:13, 61.7% 14.9c
Tue Mar 19 14:11, 66.2% 15.4c
Tue Mar 19 14:11, 73.3% 14.9c
Tue Mar 19 14:10, 75.0% 14.4c
Tue Mar 19 14:06, 64.0% 13.9c
Tue Mar 19 13:56, 62.8% 14.4c
Tue Mar 19 13:48, 61.6% 14.9c
Tue Mar 19 13:42, 61.2% 15.4c
Tue Mar 19 13:26, 61.3% 16.0c
Tue Mar 19 13:17, 62.7% 15.7c
Tue Mar 19 12:53, 61.0% 15.4c
Tue Mar 19 12:22, 63.1% 14.8c
Tue Mar 19 12:14, 62.6% 14.9c
Tue Mar 19 12:00, 62.7% 15.5c
Tue Mar 19 11:30, 62.0% 16.0c
Tue Mar 19 11:24, 62.2% 16.0c
Tue Mar 19 10:56, 65.2% 15.5c
Tue Mar 19 10:49, 65.9% 15.0c
Tue Mar 19 10:37, 66.9% 14.4c
Tue Mar 19 10:34, 67.0% 14.4c
Tue Mar 19 10:21, 68.2% 13.9c
Tue Mar 19 10:11, 69.4% 13.4c
Tue Mar 19 10:06, 69.8% 12.9c
Tue Mar 19 09:48, 69.5% 12.4c
Tue Mar 19 09:41, 69.7% 12.9c
Tue Mar 19 09:41, 69.8% 12.8c
Tue Mar 19 09:27, 70.9% 12.3c
Tue Mar 19 09:08, 75.1% 11.3c
Tue Mar 19 09:06, 76.4% 10.8c
Tue Mar 19 09:03, 77.3% 10.3c
Tue Mar 19 09:02, 76.9% 9.8c
Tue Mar 19 08:55, 70.9% 9.4c
Tue Mar 19 08:48, 71.5% 9.0c
Tue Mar 19 08:45, 71.5% 8.9c
Tue Mar 19 08:28, 72.0% 8.4c
Tue Mar 19 07:53, 72.5% 7.8c
Tue Mar 19 07:50, 72.5% 7.8c
Tue Mar 19 07:00, 72.5% 7.3c
Tue Mar 19 06:56, 72.0% 7.3c
Tue Mar 19 05:56, 72.3% 7.1c
Tue Mar 19 05:03, 72.5% 7.0c
Tue Mar 19 04:11, 72.8% 6.8c
Tue Mar 19 03:19, 72.9% 6.8c
Tue Mar 19 02:20, 73.1% 6.7c
Tue Mar 19 01:58, 72.9% 6.8c
Tue Mar 19 01:20, 72.2% 7.4c
Tue Mar 19 01:17, 72.2% 7.3c
Tue Mar 19 00:24, 71.8% 7.7c
Tue Mar 19 00:02, 71.4% 7.8c
Mon Mar 18 23:25, 71.0% 8.2c
Mon Mar 18 22:30, 71.0% 8.3c
Mon Mar 18 22:15, 71.0% 8.3c
Mon Mar 18 21:33, 71.1% 8.6c
Mon Mar 18 20:34, 71.1% 8.7c
Mon Mar 18 20:09, 71.2% 8.9c
Mon Mar 18 19:41, 71.4% 9.2c
Mon Mar 18 19:26, 71.3% 9.4c
Mon Mar 18 18:49, 74.4% 9.9c
Mon Mar 18 18:41, 68.8% 9.9c
Mon Mar 18 18:30, 68.1% 10.2c
Mon Mar 18 18:14, 67.1% 10.8c
Mon Mar 18 18:01, 66.5% 11.3c
Mon Mar 18 17:51, 65.3% 11.8c
Mon Mar 18 17:51, 65.2% 11.9c
Mon Mar 18 17:45, 65.3% 12.3c
Mon Mar 18 17:40, 64.5% 12.8c
Mon Mar 18 17:35, 64.5% 13.3c
Mon Mar 18 16:58, 62.1% 13.8c
Mon Mar 18 16:50, 60.7% 13.8c
Mon Mar 18 16:12, 59.8% 13.3c
Mon Mar 18 16:04, 58.6% 12.8c
Mon Mar 18 16:03, 58.5% 12.8c
Mon Mar 18 15:54, 57.5% 13.4c
Mon Mar 18 15:48, 56.4% 13.9c
Mon Mar 18 15:43, 55.2% 14.4c
Mon Mar 18 15:40, 56.1% 14.9c
Mon Mar 18 15:07, 56.3% 15.4c
Mon Mar 18 14:30, 56.4% 15.4c
Mon Mar 18 14:12, 58.8% 15.9c
Mon Mar 18 14:11, 58.8% 16.0c
Mon Mar 18 13:59, 57.8% 16.5c
Mon Mar 18 13:16, 55.9% 17.2c
Mon Mar 18 13:06, 58.8% 17.0c
Mon Mar 18 12:55, 59.1% 16.5c
Mon Mar 18 12:24, 59.2% 16.1c
Mon Mar 18 11:55, 59.4% 16.0c
Mon Mar 18 11:35, 58.6% 16.5c
Mon Mar 18 11:32, 58.4% 16.6c
Mon Mar 18 11:22, 57.9% 17.0c
Mon Mar 18 10:33, 57.5% 17.7c
Mon Mar 18 10:18, 58.0% 17.5c
Mon Mar 18 10:14, 58.6% 17.0c
Mon Mar 18 10:10, 58.9% 16.5c
Mon Mar 18 10:07, 59.2% 15.9c
Mon Mar 18 10:03, 59.8% 15.4c
Mon Mar 18 09:57, 60.5% 14.9c
Mon Mar 18 09:53, 61.0% 14.4c
Mon Mar 18 09:49, 61.3% 13.9c
Mon Mar 18 09:46, 61.9% 13.3c
Mon Mar 18 09:43, 62.5% 12.8c
Mon Mar 18 09:43, 62.5% 12.8c
Mon Mar 18 09:35, 63.2% 12.3c
Mon Mar 18 09:31, 63.8% 11.8c
Mon Mar 18 09:27, 64.6% 11.3c
Mon Mar 18 09:23, 65.1% 10.7c
Mon Mar 18 09:18, 65.8% 10.2c
Mon Mar 18 09:16, 66.3% 9.7c
Mon Mar 18 09:16, 66.9% 9.2c
Mon Mar 18 09:03, 67.5% 8.7c
Mon Mar 18 08:56, 68.0% 8.1c
Mon Mar 18 08:49, 68.5% 7.6c
Mon Mar 18 08:45, 68.9% 7.3c
Mon Mar 18 08:42, 69.2% 7.1c
Mon Mar 18 08:36, 69.7% 6.6c
Mon Mar 18 08:29, 70.3% 6.1c
Mon Mar 18 08:24, 70.7% 5.6c
Mon Mar 18 08:09, 71.1% 5.1c
Mon Mar 18 07:50, 71.6% 4.7c
Mon Mar 18 07:45, 71.8% 4.6c
Mon Mar 18 07:08, 72.6% 4.1c
Mon Mar 18 06:58, 72.6% 4.0c
Mon Mar 18 05:59, 72.6% 3.7c
Mon Mar 18 05:00, 72.7% 3.7c
Mon Mar 18 04:09, 73.0% 3.5c
Mon Mar 18 03:17, 73.2% 3.5c
Mon Mar 18 02:21, 73.5% 3.4c
Mon Mar 18 01:40, 73.3% 3.6c
Mon Mar 18 01:23, 73.2% 3.7c
Mon Mar 18 00:28, 73.1% 4.0c
Mon Mar 18 00:15, 73.0% 4.1c
Sun Mar 17 23:31, 72.5% 4.5c
Sun Mar 17 23:18, 72.4% 4.6c
Sun Mar 17 22:41, 72.2% 4.8c
Sun Mar 17 21:48, 71.5% 5.1c
Sun Mar 17 21:42, 71.4% 5.2c
Sun Mar 17 20:51, 70.9% 5.6c
Sun Mar 17 20:49, 70.8% 5.6c
Sun Mar 17 20:16, 70.1% 6.1c
Sun Mar 17 19:58, 69.6% 6.5c
Sun Mar 17 19:48, 69.4% 6.7c
Sun Mar 17 19:24, 68.6% 7.2c
Sun Mar 17 19:09, 68.0% 7.7c
Sun Mar 17 18:59, 67.5% 7.9c
Sun Mar 17 18:53, 67.2% 8.2c
Sun Mar 17 18:36, 66.4% 8.7c
Sun Mar 17 18:22, 65.5% 9.2c
Sun Mar 17 18:08, 64.6% 9.7c
Sun Mar 17 18:06, 64.5% 9.8c
Sun Mar 17 17:40, 63.5% 10.2c
Sun Mar 17 17:14, 62.5% 10.7c
Sun Mar 17 17:10, 62.1% 10.9c
Sun Mar 17 17:03, 61.1% 11.2c
Sun Mar 17 16:49, 61.2% 11.7c
Sun Mar 17 16:37, 60.2% 12.2c
Sun Mar 17 16:25, 59.2% 12.8c
Sun Mar 17 16:13, 58.7% 13.1c
Sun Mar 17 15:14, 59.2% 13.2c
Sun Mar 17 15:06, 58.6% 13.3c
Sun Mar 17 14:44, 58.4% 13.8c
Sun Mar 17 14:33, 57.8% 14.3c
Sun Mar 17 14:24, 57.5% 14.6c
Sun Mar 17 14:16, 57.0% 14.8c
Sun Mar 17 13:48, 58.8% 15.3c
Sun Mar 17 13:24, 54.8% 14.8c
Sun Mar 17 13:19, 54.6% 14.8c
Sun Mar 17 13:15, 53.4% 15.3c
Sun Mar 17 13:03, 52.5% 15.9c
Sun Mar 17 12:57, 51.9% 16.4c
Sun Mar 17 12:46, 51.0% 16.9c
Sun Mar 17 12:37, 50.6% 17.4c
Sun Mar 17 12:31, 50.1% 17.9c
Sun Mar 17 12:30, 50.1% 17.9c
Sun Mar 17 12:25, 49.3% 18.4c
Sun Mar 17 12:20, 48.5% 18.9c
Sun Mar 17 12:16, 47.7% 19.4c
Sun Mar 17 12:11, 47.5% 20.0c
Sun Mar 17 12:03, 47.6% 20.5c
Sun Mar 17 11:52, 48.9% 20.0c
Sun Mar 17 11:51, 50.0% 19.4c
Sun Mar 17 11:51, 50.8% 18.9c
Sun Mar 17 11:42, 51.7% 18.4c
Sun Mar 17 11:35, 52.4% 17.8c
Sun Mar 17 11:30, 52.1% 17.9c
Sun Mar 17 11:12, 52.1% 18.4c
Sun Mar 17 11:06, 51.5% 18.9c
Sun Mar 17 11:01, 51.2% 19.5c
Sun Mar 17 10:58, 50.3% 20.0c
Sun Mar 17 10:54, 50.7% 20.5c
Sun Mar 17 10:41, 49.7% 21.0c
Sun Mar 17 10:38, 49.5% 21.4c
Sun Mar 17 10:26, 49.0% 21.5c
Sun Mar 17 10:22, 49.8% 21.0c
Sun Mar 17 10:14, 52.6% 20.5c
Sun Mar 17 10:09, 52.7% 20.0c
Sun Mar 17 10:03, 52.4% 19.5c
Sun Mar 17 09:59, 53.9% 18.9c
Sun Mar 17 09:56, 59.1% 18.4c
Sun Mar 17 09:53, 60.0% 17.9c
Sun Mar 17 09:49, 60.6% 17.4c
Sun Mar 17 09:46, 61.7% 16.9c
Sun Mar 17 09:43, 62.5% 16.4c
Sun Mar 17 09:42, 62.8% 16.2c
Sun Mar 17 09:39, 63.0% 15.8c
Sun Mar 17 09:36, 63.5% 15.3c
Sun Mar 17 09:33, 64.6% 14.8c
Sun Mar 17 09:30, 65.0% 14.3c
Sun Mar 17 09:27, 65.5% 13.7c
Sun Mar 17 09:24, 66.6% 13.2c
Sun Mar 17 09:21, 67.2% 12.7c
Sun Mar 17 09:18, 68.0% 12.2c
Sun Mar 17 09:15, 68.7% 11.6c
Sun Mar 17 09:11, 69.4% 11.1c
Sun Mar 17 09:08, 70.2% 10.6c
Sun Mar 17 09:04, 71.1% 10.1c
Sun Mar 17 09:01, 71.9% 9.6c
Sun Mar 17 08:56, 72.5% 9.1c
Sun Mar 17 08:52, 73.2% 8.6c
Sun Mar 17 08:48, 74.1% 8.1c
Sun Mar 17 08:43, 74.5% 7.6c
Sun Mar 17 08:43, 74.5% 7.6c
Sun Mar 17 08:38, 75.3% 7.0c
Sun Mar 17 08:31, 76.3% 6.5c
Sun Mar 17 08:23, 77.2% 6.0c
Sun Mar 17 08:13, 78.3% 5.5c
Sun Mar 17 08:03, 79.3% 5.0c
Sun Mar 17 07:45, 79.9% 4.5c
Sun Mar 17 07:39, 80.0% 4.5c
Sun Mar 17 07:04, 80.9% 4.0c
Sun Mar 17 06:49, 81.0% 3.7c
Sun Mar 17 05:56, 81.4% 3.5c
Sun Mar 17 05:19, 81.3% 3.5c
Sun Mar 17 05:01, 81.3% 3.6c
Sun Mar 17 04:08, 81.0% 3.8c
Sun Mar 17 03:15, 80.5% 4.2c
Sun Mar 17 02:24, 80.8% 4.1c
Sun Mar 17 01:28, 81.0% 4.0c
Sun Mar 17 01:09, 80.9% 4.0c
Sun Mar 17 00:34, 80.8% 4.2c
Sat Mar 16 23:36, 80.5% 4.4c
Sat Mar 16 22:42, 80.5% 4.5c
Sat Mar 16 22:28, 80.2% 4.5c
Sat Mar 16 21:47, 79.9% 4.8c
Sat Mar 16 20:56, 78.8% 5.1c
Sat Mar 16 20:55, 78.8% 5.0c
Sat Mar 16 20:07, 77.7% 5.5c
Sat Mar 16 20:05, 77.7% 5.6c
Sat Mar 16 19:43, 77.3% 6.0c
Sat Mar 16 19:25, 77.1% 6.5c
Sat Mar 16 19:16, 77.0% 7.0c
Sat Mar 16 18:49, 76.0% 7.1c
Sat Mar 16 18:21, 75.5% 7.6c
Sat Mar 16 18:15, 75.3% 7.7c
Sat Mar 16 17:50, 75.0% 8.1c
Sat Mar 16 17:25, 74.6% 8.6c
Sat Mar 16 17:23, 74.6% 8.7c
Sat Mar 16 16:57, 74.2% 9.1c
Sat Mar 16 16:32, 73.8% 9.6c
Sat Mar 16 16:29, 73.9% 9.8c
Sat Mar 16 15:37, 74.0% 10.1c
Sat Mar 16 14:46, 74.1% 10.2c
Sat Mar 16 13:59, 76.6% 10.2c
Sat Mar 16 13:52, 76.3% 9.6c
Sat Mar 16 12:59, 73.4% 9.5c
Sat Mar 16 12:02, 76.4% 9.9c
Sat Mar 16 12:00, 77.3% 9.7c
Sat Mar 16 11:58, 76.7% 9.2c
Sat Mar 16 11:33, 74.1% 8.7c
Sat Mar 16 11:09, 74.7% 8.3c
Sat Mar 16 10:51, 75.3% 8.1c
Sat Mar 16 10:18, 76.8% 7.7c
Sat Mar 16 10:10, 77.1% 7.6c
Sat Mar 16 09:49, 83.1% 7.3c
Sat Mar 16 09:47, 79.5% 6.8c
Sat Mar 16 09:25, 77.9% 6.2c
Sat Mar 16 09:24, 79.4% 6.2c
Sat Mar 16 09:19, 79.3% 5.7c
Sat Mar 16 09:08, 75.5% 5.2c
Sat Mar 16 08:34, 76.5% 5.0c
Sat Mar 16 08:23, 80.8% 4.7c
Sat Mar 16 07:39, 75.3% 4.4c
Sat Mar 16 06:46, 75.3% 4.4c
Sat Mar 16 05:53, 74.5% 4.8c
Sat Mar 16 05:51, 74.5% 4.8c
Sat Mar 16 05:13, 73.6% 5.3c
Sat Mar 16 04:55, 73.3% 5.5c
Sat Mar 16 04:36, 72.8% 5.8c
Sat Mar 16 04:03, 72.2% 6.1c
Sat Mar 16 03:17, 71.9% 6.3c
Sat Mar 16 03:06, 71.8% 6.3c
Sat Mar 16 02:11, 71.7% 6.5c
Sat Mar 16 01:19, 72.0% 6.5c
Sat Mar 16 00:22, 72.2% 6.5c
Fri Mar 15 23:23, 72.2% 6.4c
Fri Mar 15 22:24, 72.2% 6.4c
Fri Mar 15 21:43, 72.0% 6.8c
Fri Mar 15 21:31, 72.0% 6.9c
Fri Mar 15 20:38, 71.9% 7.0c
Fri Mar 15 19:41, 71.5% 7.3c
Fri Mar 15 19:38, 71.4% 7.4c
Fri Mar 15 19:10, 70.8% 7.8c
Fri Mar 15 18:44, 69.8% 8.3c
Fri Mar 15 18:44, 69.8% 8.3c
Fri Mar 15 18:19, 69.0% 8.8c
Fri Mar 15 17:56, 68.2% 9.3c
Fri Mar 15 17:47, 67.8% 9.7c
Fri Mar 15 17:44, 67.6% 9.9c
Fri Mar 15 17:18, 66.5% 10.4c
Fri Mar 15 16:56, 65.8% 10.9c
Fri Mar 15 16:55, 65.8% 10.9c
Fri Mar 15 16:32, 65.0% 11.4c
Fri Mar 15 16:12, 64.3% 11.9c
Fri Mar 15 16:02, 63.9% 12.4c
Fri Mar 15 15:56, 63.7% 12.4c
Fri Mar 15 15:42, 63.4% 12.9c
Fri Mar 15 15:23, 62.9% 13.4c
Fri Mar 15 15:06, 61.9% 13.9c
Fri Mar 15 15:00, 61.4% 14.3c
Fri Mar 15 14:56, 61.7% 14.4c
Fri Mar 15 14:25, 61.8% 15.0c
Fri Mar 15 14:12, 62.3% 14.4c
Fri Mar 15 14:04, 62.2% 14.2c
Fri Mar 15 13:51, 62.1% 13.9c
Fri Mar 15 13:36, 61.1% 14.4c
Fri Mar 15 13:23, 60.5% 15.0c
Fri Mar 15 13:05, 60.0% 15.3c
Fri Mar 15 12:15, 64.0% 15.3c
Fri Mar 15 12:03, 63.5% 15.5c
Fri Mar 15 11:58, 63.1% 16.0c
Fri Mar 15 11:53, 62.6% 16.5c
Fri Mar 15 11:46, 62.4% 17.0c
Fri Mar 15 11:28, 61.8% 17.6c
Fri Mar 15 11:23, 61.6% 18.1c
Fri Mar 15 11:15, 61.6% 18.6c
Fri Mar 15 11:12, 61.9% 18.6c
Fri Mar 15 11:08, 62.3% 18.1c
Fri Mar 15 10:50, 61.5% 17.6c
Fri Mar 15 10:46, 60.6% 18.1c
Fri Mar 15 10:43, 60.4% 18.6c
Fri Mar 15 10:39, 60.7% 19.1c
Fri Mar 15 10:30, 61.2% 19.6c
Fri Mar 15 10:26, 61.8% 19.1c
Fri Mar 15 10:23, 62.1% 18.6c
Fri Mar 15 10:21, 62.6% 18.1c
Fri Mar 15 10:18, 63.2% 17.6c
Fri Mar 15 10:18, 63.3% 17.5c
Fri Mar 15 10:15, 63.8% 17.0c
Fri Mar 15 10:12, 64.4% 16.5c
Fri Mar 15 10:10, 64.7% 16.0c
Fri Mar 15 10:07, 65.1% 15.5c
Fri Mar 15 10:04, 65.7% 14.9c
Fri Mar 15 09:39, 67.0% 14.4c
Fri Mar 15 09:35, 67.5% 13.9c
Fri Mar 15 09:32, 68.2% 13.4c
Fri Mar 15 09:29, 68.8% 12.8c
Fri Mar 15 09:26, 69.6% 12.3c
Fri Mar 15 09:23, 70.2% 11.8c
Fri Mar 15 09:20, 70.6% 11.3c
Fri Mar 15 09:19, 70.8% 11.3c
Fri Mar 15 09:16, 71.1% 10.8c
Fri Mar 15 09:11, 71.8% 10.2c
Fri Mar 15 08:50, 72.7% 9.7c
Fri Mar 15 08:42, 73.6% 9.2c
Fri Mar 15 08:41, 74.5% 8.7c
Fri Mar 15 08:25, 74.8% 8.5c
Fri Mar 15 07:23, 74.6% 7.8c
Fri Mar 15 06:31, 74.2% 7.9c
Fri Mar 15 05:39, 73.3% 8.3c
Fri Mar 15 04:46, 72.4% 8.3c
Fri Mar 15 04:02, 72.4% 8.2c
Fri Mar 15 03:47, 72.5% 8.1c
Fri Mar 15 02:47, 72.5% 7.6c
Fri Mar 15 01:54, 72.2% 7.6c
Fri Mar 15 01:23, 72.0% 7.7c
Fri Mar 15 00:57, 71.7% 7.8c
Fri Mar 15 00:00, 71.1% 8.0c
Thu Mar 14 23:04, 70.4% 8.2c
Thu Mar 14 23:02, 70.3% 8.2c
Thu Mar 14 22:04, 69.9% 8.4c
Thu Mar 14 21:08, 69.8% 8.6c
Thu Mar 14 20:52, 69.8% 8.7c
Thu Mar 14 20:13, 68.8% 8.9c
Thu Mar 14 19:25, 67.5% 9.2c
Thu Mar 14 19:21, 67.3% 9.3c
Thu Mar 14 18:41, 71.4% 9.7c
Thu Mar 14 18:23, 65.1% 10.0c
Thu Mar 14 18:20, 64.9% 10.0c
Thu Mar 14 17:56, 63.7% 10.5c
Thu Mar 14 17:36, 62.5% 11.0c
Thu Mar 14 17:26, 62.0% 11.3c
Thu Mar 14 17:15, 61.2% 11.5c
Thu Mar 14 16:55, 60.3% 12.0c
Thu Mar 14 16:35, 59.3% 12.5c
Thu Mar 14 16:26, 58.4% 13.0c
Thu Mar 14 16:24, 58.1% 13.0c
Thu Mar 14 16:07, 57.4% 13.6c
Thu Mar 14 15:46, 56.6% 14.1c
Thu Mar 14 15:35, 56.0% 14.5c
Thu Mar 14 15:27, 55.8% 14.6c
Thu Mar 14 15:08, 54.8% 15.1c
Thu Mar 14 14:41, 53.8% 15.6c
Thu Mar 14 14:39, 53.8% 15.8c
Thu Mar 14 14:04, 53.8% 16.1c
Thu Mar 14 13:48, 52.7% 16.6c
Thu Mar 14 13:48, 52.7% 16.6c
Thu Mar 14 13:40, 52.0% 17.1c
Thu Mar 14 13:33, 50.9% 17.6c
Thu Mar 14 13:32, 50.2% 18.2c
Thu Mar 14 13:24, 49.7% 18.7c
Thu Mar 14 13:17, 49.2% 19.2c
Thu Mar 14 13:12, 48.9% 19.7c
Thu Mar 14 13:05, 48.6% 20.2c
Thu Mar 14 12:52, 48.5% 20.8c
Thu Mar 14 12:22, 51.4% 20.7c
Thu Mar 14 12:17, 52.3% 20.2c
Thu Mar 14 12:12, 53.0% 19.7c
Thu Mar 14 12:08, 54.0% 19.2c
Thu Mar 14 12:03, 54.4% 18.6c
Thu Mar 14 11:56, 53.8% 18.1c
Thu Mar 14 11:54, 53.8% 18.1c
Thu Mar 14 11:37, 55.3% 18.7c
Thu Mar 14 11:33, 56.3% 18.1c
Thu Mar 14 11:29, 56.7% 17.6c
Thu Mar 14 11:17, 58.6% 17.1c
Thu Mar 14 11:13, 59.8% 16.6c
Thu Mar 14 11:10, 60.2% 16.1c
Thu Mar 14 11:06, 60.4% 15.6c
Thu Mar 14 10:59, 62.1% 15.2c
Thu Mar 14 10:57, 62.3% 15.0c
Thu Mar 14 10:41, 63.0% 14.5c
Thu Mar 14 10:29, 64.7% 14.0c
Thu Mar 14 10:26, 65.0% 13.5c
Thu Mar 14 10:20, 66.1% 13.0c
Thu Mar 14 10:09, 66.5% 12.5c
Thu Mar 14 10:05, 66.5% 12.6c
Thu Mar 14 09:51, 67.1% 13.0c
Thu Mar 14 09:43, 68.6% 12.5c
Thu Mar 14 09:39, 69.2% 12.0c
Thu Mar 14 09:35, 69.8% 11.5c
Thu Mar 14 09:15, 71.4% 10.9c
Thu Mar 14 09:10, 72.5% 10.4c
Thu Mar 14 09:06, 72.9% 10.1c
Thu Mar 14 08:49, 73.3% 9.9c
Thu Mar 14 08:27, 78.0% 9.4c
Thu Mar 14 08:19, 74.2% 8.9c
Thu Mar 14 08:10, 75.1% 8.5c
Thu Mar 14 08:06, 75.2% 8.4c
Thu Mar 14 07:21, 76.8% 7.6c
Thu Mar 14 06:44, 76.6% 7.9c
Thu Mar 14 06:22, 76.5% 8.1c
Thu Mar 14 05:29, 74.9% 8.1c
Thu Mar 14 04:34, 74.2% 8.0c
Thu Mar 14 03:42, 74.1% 8.0c
Thu Mar 14 02:44, 73.7% 8.0c
Thu Mar 14 01:44, 73.0% 8.0c
Thu Mar 14 00:51, 72.4% 8.0c
Wed Mar 13 23:59, 71.7% 8.0c
Wed Mar 13 23:00, 70.8% 8.1c
Wed Mar 13 22:47, 70.6% 8.1c
Wed Mar 13 22:04, 69.9% 8.2c
Wed Mar 13 21:11, 68.9% 8.3c
Wed Mar 13 20:13, 67.4% 8.6c
Wed Mar 13 20:11, 67.3% 8.6c
Wed Mar 13 19:18, 65.8% 8.9c
Wed Mar 13 18:59, 65.4% 9.1c
Wed Mar 13 18:26, 64.5% 9.5c
Wed Mar 13 18:07, 64.1% 9.6c
Wed Mar 13 17:36, 62.8% 10.1c
Wed Mar 13 17:26, 62.4% 10.4c
Wed Mar 13 17:08, 61.6% 10.7c
Wed Mar 13 16:47, 60.6% 11.2c
Wed Mar 13 16:34, 59.9% 11.6c
Wed Mar 13 16:28, 59.7% 11.7c
Wed Mar 13 16:13, 58.5% 12.2c
Wed Mar 13 15:56, 57.6% 12.7c
Wed Mar 13 15:42, 56.7% 13.3c
Wed Mar 13 15:41, 56.4% 13.3c
Wed Mar 13 15:31, 55.5% 13.8c

s2 Liv-Room HT*
Wed Mar 20 11:33, 52.6% 19.4c

Wed Mar 20 11:33, 52.6% 19.4c
Wed Mar 20 10:37, 52.3% 19.2c
Wed Mar 20 09:42, 50.9% 19.1c
Wed Mar 20 08:57, 52.3% 19.1c
Wed Mar 20 08:44, 52.5% 18.9c
Wed Mar 20 07:49, 51.1% 18.4c
Wed Mar 20 06:57, 50.8% 18.4c
Wed Mar 20 06:57, 50.8% 18.4c
Wed Mar 20 06:04, 50.3% 18.1c
Wed Mar 20 05:08, 50.4% 18.3c
Wed Mar 20 04:12, 50.3% 18.6c
Wed Mar 20 04:12, 50.3% 18.6c
Wed Mar 20 03:56, 50.4% 18.6c
Wed Mar 20 03:18, 50.4% 18.8c
Wed Mar 20 02:20, 50.5% 19.1c
Wed Mar 20 02:16, 50.5% 19.1c
Wed Mar 20 01:23, 50.5% 19.5c
Wed Mar 20 01:05, 50.5% 19.6c
Wed Mar 20 00:28, 50.5% 20.0c
Wed Mar 20 00:04, 50.4% 20.1c
Tue Mar 19 23:29, 50.7% 20.5c
Tue Mar 19 23:16, 50.6% 20.7c
Tue Mar 19 22:33, 51.0% 21.2c
Tue Mar 19 22:33, 50.9% 21.2c
Tue Mar 19 21:35, 51.1% 21.5c
Tue Mar 19 20:40, 51.9% 21.7c
Tue Mar 19 19:54, 51.6% 21.7c
Tue Mar 19 19:47, 51.5% 21.6c
Tue Mar 19 19:08, 52.9% 21.2c
Tue Mar 19 18:55, 53.3% 20.9c
Tue Mar 19 17:59, 53.5% 20.4c
Tue Mar 19 17:04, 49.7% 20.3c
Tue Mar 19 16:06, 47.9% 20.4c
Tue Mar 19 15:19, 48.5% 20.7c
Tue Mar 19 14:31, 49.5% 20.7c
Tue Mar 19 14:24, 50.0% 20.5c
Tue Mar 19 14:09, 49.9% 20.1c
Tue Mar 19 13:25, 49.4% 19.5c
Tue Mar 19 12:43, 48.1% 19.6c
Tue Mar 19 12:31, 48.0% 19.7c
Tue Mar 19 11:39, 48.1% 20.1c
Tue Mar 19 10:45, 48.4% 20.4c
Tue Mar 19 10:11, 48.1% 20.1c
Tue Mar 19 09:54, 47.9% 19.8c
Tue Mar 19 09:01, 48.9% 20.0c
Tue Mar 19 08:32, 49.6% 19.6c
Tue Mar 19 08:13, 50.4% 19.1c
Tue Mar 19 08:07, 51.4% 18.8c
Tue Mar 19 07:58, 50.7% 18.6c
Tue Mar 19 07:16, 47.8% 18.0c
Tue Mar 19 06:22, 48.1% 17.8c
Tue Mar 19 05:22, 47.9% 17.8c
Tue Mar 19 04:24, 47.9% 17.9c
Tue Mar 19 03:53, 48.0% 18.1c
Tue Mar 19 03:26, 48.0% 18.3c
Tue Mar 19 02:29, 48.0% 18.6c
Tue Mar 19 02:28, 47.9% 18.6c
Tue Mar 19 01:33, 48.0% 19.0c
Tue Mar 19 01:22, 48.1% 19.1c
Tue Mar 19 00:32, 48.0% 19.5c
Tue Mar 19 00:22, 48.0% 19.6c
Mon Mar 18 23:42, 48.1% 20.1c
Mon Mar 18 23:35, 48.0% 20.1c
Mon Mar 18 22:56, 48.1% 20.6c
Mon Mar 18 22:49, 48.2% 20.7c
Mon Mar 18 21:54, 48.9% 21.1c
Mon Mar 18 21:03, 48.8% 21.1c
Mon Mar 18 20:18, 49.5% 21.1c
Mon Mar 18 20:07, 49.7% 21.0c
Mon Mar 18 19:16, 51.7% 20.7c
Mon Mar 18 19:07, 52.0% 20.6c
Mon Mar 18 18:28, 52.8% 20.1c
Mon Mar 18 18:24, 52.5% 20.0c
Mon Mar 18 18:02, 53.9% 19.6c
Mon Mar 18 17:35, 51.1% 19.1c
Mon Mar 18 17:25, 48.5% 18.8c
Mon Mar 18 16:35, 45.4% 19.0c
Mon Mar 18 16:20, 45.1% 19.0c
Mon Mar 18 15:38, 45.2% 19.3c
Mon Mar 18 14:47, 45.9% 19.6c
Mon Mar 18 13:56, 45.1% 19.5c
Mon Mar 18 13:49, 45.2% 19.4c
Mon Mar 18 12:52, 44.8% 18.6c
Mon Mar 18 12:01, 44.8% 18.8c
Mon Mar 18 11:32, 44.8% 19.0c
Mon Mar 18 11:09, 44.6% 19.2c
Mon Mar 18 10:27, 44.3% 19.5c
Mon Mar 18 10:13, 44.4% 19.7c
Mon Mar 18 09:16, 44.4% 20.1c
Mon Mar 18 08:37, 44.8% 20.0c
Mon Mar 18 08:19, 45.0% 19.5c
Mon Mar 18 08:18, 45.0% 19.5c
Mon Mar 18 07:59, 44.2% 19.0c
Mon Mar 18 07:28, 44.4% 18.5c
Mon Mar 18 07:27, 44.5% 18.4c
Mon Mar 18 07:01, 44.7% 18.0c
Mon Mar 18 06:29, 44.8% 17.5c
Mon Mar 18 05:34, 44.0% 17.1c
Mon Mar 18 04:39, 43.9% 17.4c
Mon Mar 18 04:30, 43.9% 17.4c
Mon Mar 18 03:43, 43.7% 17.8c
Mon Mar 18 03:15, 43.7% 18.0c
Mon Mar 18 02:44, 43.6% 18.2c
Mon Mar 18 02:13, 43.6% 18.5c
Mon Mar 18 01:49, 43.4% 18.7c
Mon Mar 18 01:27, 43.2% 19.0c
Mon Mar 18 00:57, 43.1% 19.4c
Mon Mar 18 00:47, 43.0% 19.5c
Mon Mar 18 00:10, 42.5% 20.0c
Mon Mar 18 00:07, 42.4% 20.1c
Sun Mar 17 23:39, 42.1% 20.5c
Sun Mar 17 23:15, 42.8% 20.9c
Sun Mar 17 22:59, 42.9% 21.0c
Sun Mar 17 22:24, 44.1% 21.5c
Sun Mar 17 21:32, 44.5% 21.6c
Sun Mar 17 21:24, 44.5% 21.6c
Sun Mar 17 20:39, 44.2% 21.0c
Sun Mar 17 20:30, 43.5% 21.0c
Sun Mar 17 19:46, 44.6% 20.7c
Sun Mar 17 19:12, 42.8% 20.5c
Sun Mar 17 18:55, 42.8% 20.4c
Sun Mar 17 18:03, 42.6% 20.4c
Sun Mar 17 17:14, 43.5% 20.0c
Sun Mar 17 17:12, 43.5% 19.9c
Sun Mar 17 16:49, 45.2% 19.5c
Sun Mar 17 16:19, 45.7% 18.8c
Sun Mar 17 15:25, 45.5% 19.0c
Sun Mar 17 14:33, 45.9% 19.3c
Sun Mar 17 13:33, 47.7% 19.1c
Sun Mar 17 12:43, 45.9% 19.0c
Sun Mar 17 12:34, 46.3% 19.1c
Sun Mar 17 11:42, 45.9% 19.3c
Sun Mar 17 10:58, 49.9% 19.5c
Sun Mar 17 10:50, 51.8% 19.4c
Sun Mar 17 10:32, 49.4% 19.0c
Sun Mar 17 10:15, 48.8% 18.5c
Sun Mar 17 09:51, 45.9% 18.0c
Sun Mar 17 09:33, 45.0% 18.0c
Sun Mar 17 08:54, 45.0% 18.3c
Sun Mar 17 08:00, 45.2% 18.5c
Sun Mar 17 07:32, 45.5% 18.5c
Sun Mar 17 07:05, 46.4% 17.9c
Sun Mar 17 07:04, 46.3% 18.0c
Sun Mar 17 06:45, 46.9% 17.4c
Sun Mar 17 06:14, 46.9% 16.8c
Sun Mar 17 06:14, 46.9% 16.8c
Sun Mar 17 05:18, 46.6% 16.9c
Sun Mar 17 05:09, 46.7% 16.9c
Sun Mar 17 04:25, 46.8% 17.3c
Sun Mar 17 03:51, 46.8% 17.4c
Sun Mar 17 03:28, 46.9% 17.7c
Sun Mar 17 02:50, 47.1% 18.0c
Sun Mar 17 02:31, 47.1% 18.1c
Sun Mar 17 01:56, 47.1% 18.5c
Sun Mar 17 01:36, 47.1% 18.7c
Sun Mar 17 01:14, 47.1% 19.0c
Sun Mar 17 00:41, 47.0% 19.5c
Sun Mar 17 00:39, 47.0% 19.5c
Sun Mar 17 00:06, 47.3% 20.0c
Sat Mar 16 23:46, 47.5% 20.4c
Sat Mar 16 22:51, 49.0% 20.7c
Sat Mar 16 21:52, 50.6% 20.6c
Sat Mar 16 20:56, 52.6% 20.5c
Sat Mar 16 20:54, 52.7% 20.5c
Sat Mar 16 20:27, 54.3% 20.0c
Sat Mar 16 20:08, 54.3% 19.5c
Sat Mar 16 19:58, 53.8% 19.3c
Sat Mar 16 19:06, 48.5% 18.9c
Sat Mar 16 18:08, 48.2% 18.9c
Sat Mar 16 17:11, 48.5% 18.8c
Sat Mar 16 16:39, 48.8% 19.0c
Sat Mar 16 16:17, 49.3% 19.2c
Sat Mar 16 15:22, 50.5% 19.6c
Sat Mar 16 14:31, 52.2% 19.6c
Sat Mar 16 14:11, 51.6% 19.5c
Sat Mar 16 13:33, 50.9% 19.3c
Sat Mar 16 13:01, 51.1% 19.0c
Sat Mar 16 12:37, 51.1% 18.4c
Sat Mar 16 11:39, 50.4% 18.2c
Sat Mar 16 10:45, 50.1% 18.3c
Sat Mar 16 09:49, 48.5% 18.6c
Sat Mar 16 08:52, 47.9% 18.6c
Sat Mar 16 08:46, 48.0% 18.5c
Sat Mar 16 08:28, 48.9% 18.0c
Sat Mar 16 08:06, 48.0% 17.4c
Sat Mar 16 07:56, 47.8% 17.3c
Sat Mar 16 06:55, 45.7% 17.1c
Sat Mar 16 06:00, 45.8% 16.7c
Sat Mar 16 05:01, 45.6% 16.9c
Sat Mar 16 05:01, 45.8% 17.0c
Sat Mar 16 04:08, 45.6% 17.2c
Sat Mar 16 03:15, 45.5% 17.4c
Sat Mar 16 03:09, 45.4% 17.5c
Sat Mar 16 02:18, 45.3% 17.9c
Sat Mar 16 02:02, 45.3% 18.0c
Sat Mar 16 01:21, 45.0% 18.4c
Sat Mar 16 01:01, 45.0% 18.5c
Sat Mar 16 00:30, 44.7% 18.9c
Sat Mar 16 00:20, 44.8% 19.0c
Fri Mar 15 23:39, 44.8% 19.5c
Fri Mar 15 23:34, 45.0% 19.6c
Fri Mar 15 22:35, 45.5% 20.2c
Fri Mar 15 21:37, 44.8% 19.9c
Fri Mar 15 21:36, 44.8% 20.0c
Fri Mar 15 20:45, 43.2% 19.4c
Fri Mar 15 20:38, 43.1% 19.5c
Fri Mar 15 19:59, 42.8% 20.0c
Fri Mar 15 19:45, 43.2% 20.2c
Fri Mar 15 19:26, 42.9% 20.5c
Fri Mar 15 18:57, 42.8% 21.0c
Fri Mar 15 18:52, 42.9% 21.1c
Fri Mar 15 18:16, 42.9% 21.6c
Fri Mar 15 17:54, 43.7% 21.1c
Fri Mar 15 17:52, 43.7% 21.1c
Fri Mar 15 17:34, 45.1% 20.5c
Fri Mar 15 17:23, 45.7% 20.0c
Fri Mar 15 17:13, 46.1% 19.5c
Fri Mar 15 17:00, 46.7% 19.1c
Fri Mar 15 16:53, 47.4% 19.0c
Fri Mar 15 16:34, 47.9% 18.5c
Fri Mar 15 16:08, 46.8% 17.8c
Fri Mar 15 15:09, 46.8% 17.8c
Fri Mar 15 14:12, 45.9% 17.8c
Fri Mar 15 13:14, 46.2% 17.8c
Fri Mar 15 12:14, 46.5% 17.9c
Fri Mar 15 11:58, 46.8% 18.0c
Fri Mar 15 11:15, 46.8% 18.3c
Fri Mar 15 10:44, 46.8% 18.5c
Fri Mar 15 10:16, 46.9% 18.8c
Fri Mar 15 09:53, 47.2% 19.0c
Fri Mar 15 09:21, 47.2% 19.3c
Fri Mar 15 08:37, 48.9% 19.5c
Fri Mar 15 08:25, 49.0% 19.5c
Fri Mar 15 08:06, 50.4% 19.0c
Fri Mar 15 07:44, 51.3% 18.5c
Fri Mar 15 07:33, 51.0% 18.2c
Fri Mar 15 07:06, 50.5% 18.0c
Fri Mar 15 06:35, 50.6% 17.8c
Fri Mar 15 05:41, 49.3% 17.5c
Fri Mar 15 05:34, 49.4% 17.5c
Fri Mar 15 04:49, 49.3% 17.6c
Fri Mar 15 03:55, 49.0% 17.9c
Fri Mar 15 03:38, 48.9% 18.0c
Fri Mar 15 03:00, 48.9% 18.3c
Fri Mar 15 02:12, 48.7% 18.5c
Fri Mar 15 02:03, 48.8% 18.6c
Fri Mar 15 01:10, 48.5% 19.0c
Fri Mar 15 01:04, 48.6% 19.1c
Fri Mar 15 01:04, 48.6% 19.1c
Fri Mar 15 00:17, 48.5% 19.5c
Fri Mar 15 00:10, 48.5% 19.6c
Thu Mar 14 23:38, 48.6% 20.0c
Thu Mar 14 23:17, 48.7% 20.3c
Thu Mar 14 22:20, 49.4% 20.9c
Thu Mar 14 21:21, 51.4% 20.6c
Thu Mar 14 21:02, 52.1% 20.5c
Thu Mar 14 20:30, 52.5% 20.1c
Thu Mar 14 20:06, 52.3% 20.0c
Thu Mar 14 19:30, 50.9% 19.9c
Thu Mar 14 18:36, 50.4% 19.7c
Thu Mar 14 18:03, 50.7% 19.5c
Thu Mar 14 17:40, 50.3% 19.1c
Thu Mar 14 16:48, 48.4% 18.8c
Thu Mar 14 15:51, 46.6% 18.8c
Thu Mar 14 14:53, 47.2% 19.2c
Thu Mar 14 14:00, 47.1% 19.2c
Thu Mar 14 13:32, 48.2% 19.0c
Thu Mar 14 12:59, 48.5% 18.4c
Thu Mar 14 12:06, 47.7% 18.2c
Thu Mar 14 11:11, 47.2% 18.4c
Thu Mar 14 11:02, 47.3% 18.5c
Thu Mar 14 10:12, 48.1% 18.9c
Thu Mar 14 09:17, 49.6% 19.0c
Thu Mar 14 09:09, 49.2% 19.0c
Thu Mar 14 08:24, 50.5% 18.6c
Thu Mar 14 08:12, 50.5% 18.5c
Thu Mar 14 07:47, 50.9% 18.0c
Thu Mar 14 07:29, 50.6% 17.8c
Thu Mar 14 06:35, 49.1% 17.8c
Thu Mar 14 05:39, 48.5% 17.3c
Thu Mar 14 04:41, 47.8% 17.5c
Thu Mar 14 04:40, 47.9% 17.5c
Thu Mar 14 03:50, 47.6% 17.8c
Thu Mar 14 03:02, 47.5% 18.0c
Thu Mar 14 02:55, 47.4% 18.1c
Thu Mar 14 01:56, 47.3% 18.5c
Thu Mar 14 01:50, 47.2% 18.5c
Thu Mar 14 00:56, 47.1% 19.1c
Thu Mar 14 00:53, 47.1% 19.0c
Thu Mar 14 00:06, 47.0% 19.5c
Thu Mar 14 00:04, 47.0% 19.6c
Wed Mar 13 23:27, 47.2% 20.0c
Wed Mar 13 23:04, 47.3% 20.4c
Wed Mar 13 22:12, 47.6% 20.8c
Wed Mar 13 21:15, 48.2% 20.5c
Wed Mar 13 20:50, 47.9% 20.5c
Wed Mar 13 20:16, 47.5% 20.7c
Wed Mar 13 19:22, 48.1% 21.1c
Wed Mar 13 18:29, 49.4% 21.2c
Wed Mar 13 18:02, 47.7% 21.0c
Wed Mar 13 17:36, 44.8% 20.6c
Wed Mar 13 17:11, 45.1% 20.5c
Wed Mar 13 16:39, 45.3% 20.1c
Wed Mar 13 16:33, 45.1% 20.0c
Wed Mar 13 15:40, 45.5% 19.5c
Wed Mar 13 14:46, 43.9% 19.4c
Wed Mar 13 14:36, 43.9% 19.5c
Wed Mar 13 13:50, 44.7% 19.3c
Wed Mar 13 12:51, 45.7% 19.2c
Wed Mar 13 11:58, 44.5% 19.1c
Wed Mar 13 11:06, 45.3% 18.9c
Wed Mar 13 11:03, 45.4% 18.9c
Wed Mar 13 10:13, 46.4% 18.4c
Wed Mar 13 10:08, 46.6% 18.3c
Wed Mar 13 09:08, 46.7% 18.1c
Wed Mar 13 08:18, 46.2% 18.1c
Wed Mar 13 07:30, 45.6% 17.9c
Wed Mar 13 07:18, 45.7% 17.8c
Wed Mar 13 06:20, 46.0% 17.4c
Wed Mar 13 06:09, 46.1% 17.4c
Wed Mar 13 05:22, 45.4% 16.9c
Wed Mar 13 05:05, 45.2% 16.9c
Wed Mar 13 04:24, 45.0% 17.1c
Wed Mar 13 03:42, 44.8% 17.4c
Wed Mar 13 03:28, 45.0% 17.6c
Wed Mar 13 02:34, 44.7% 17.9c
Wed Mar 13 02:32, 44.7% 18.0c
Wed Mar 13 01:40, 44.4% 18.4c
Wed Mar 13 01:39, 44.5% 18.4c
Wed Mar 13 00:55, 44.3% 18.9c
Wed Mar 13 00:45, 44.2% 19.1c
Wed Mar 13 00:15, 43.9% 19.4c
Tue Mar 12 23:52, 43.9% 19.9c
Tue Mar 12 23:41, 44.0% 19.9c
Tue Mar 12 23:11, 43.9% 20.5c
Tue Mar 12 22:58, 43.7% 20.7c
Tue Mar 12 22:03, 44.9% 21.3c
Tue Mar 12 21:06, 44.9% 21.1c
Tue Mar 12 20:05, 45.2% 21.2c
Tue Mar 12 19:06, 47.9% 21.1c
Tue Mar 12 18:49, 48.5% 21.0c
Tue Mar 12 18:24, 49.2% 20.5c
Tue Mar 12 18:09, 49.7% 20.2c
Tue Mar 12 17:56, 50.9% 20.0c
Tue Mar 12 17:35, 49.0% 19.4c
Tue Mar 12 17:09, 48.6% 19.0c
Tue Mar 12 16:11, 47.0% 18.7c
Tue Mar 12 15:20, 48.2% 18.9c
Tue Mar 12 15:12, 48.3% 19.1c
Tue Mar 12 14:16, 47.9% 19.4c
Tue Mar 12 13:57, 48.3% 19.5c
Tue Mar 12 13:22, 49.5% 19.6c
Tue Mar 12 12:24, 50.1% 19.8c
Tue Mar 12 11:40, 44.9% 20.0c
Tue Mar 12 11:30, 45.1% 20.1c
Tue Mar 12 10:33, 43.8% 20.8c
Tue Mar 12 09:42, 46.5% 20.5c
Tue Mar 12 09:33, 46.9% 20.3c
Tue Mar 12 09:17, 47.4% 20.0c
Tue Mar 12 08:52, 47.9% 19.4c
Tue Mar 12 08:36, 48.3% 19.1c
Tue Mar 12 08:20, 48.7% 18.9c
Tue Mar 12 07:48, 49.2% 18.4c
Tue Mar 12 07:45, 49.3% 18.3c
Tue Mar 12 06:54, 48.1% 17.9c
Tue Mar 12 06:47, 48.2% 17.8c
Tue Mar 12 06:06, 47.8% 17.4c
Tue Mar 12 05:48, 47.3% 16.9c
Tue Mar 12 05:43, 47.4% 16.9c
Tue Mar 12 04:52, 47.3% 17.2c
Tue Mar 12 03:54, 47.2% 17.4c
Tue Mar 12 03:51, 47.1% 17.4c
Tue Mar 12 02:54, 46.8% 17.7c
Tue Mar 12 01:54, 46.6% 18.1c
Tue Mar 12 00:59, 46.4% 18.4c
Tue Mar 12 00:57, 46.4% 18.5c
Tue Mar 12 00:06, 46.3% 19.0c
Tue Mar 12 00:03, 46.3% 18.9c
Mon Mar 11 23:19, 46.3% 19.4c
Mon Mar 11 23:13, 46.3% 19.5c
Mon Mar 11 22:37, 46.5% 19.9c
Mon Mar 11 22:19, 46.7% 20.2c
Mon Mar 11 22:19, 46.7% 20.2c
Mon Mar 11 21:52, 46.8% 20.5c
Mon Mar 11 21:26, 46.7% 20.7c
Mon Mar 11 20:30, 47.0% 20.9c
Mon Mar 11 19:33, 46.7% 21.1c
Mon Mar 11 19:10, 47.0% 21.0c
Mon Mar 11 18:45, 49.3% 20.5c
Mon Mar 11 18:38, 49.6% 20.2c
Mon Mar 11 18:28, 50.3% 19.9c
Mon Mar 11 18:01, 50.1% 19.4c
Mon Mar 11 17:45, 47.6% 19.2c
Mon Mar 11 16:47, 46.8% 19.1c
Mon Mar 11 15:53, 45.7% 19.0c
Mon Mar 11 14:55, 45.5% 19.0c
Mon Mar 11 14:15, 45.6% 18.9c
Mon Mar 11 14:04, 46.4% 18.8c
Mon Mar 11 13:32, 47.1% 18.4c
Mon Mar 11 13:11, 47.8% 17.9c
Mon Mar 11 13:06, 47.7% 17.7c
Mon Mar 11 12:07, 46.5% 17.3c
Mon Mar 11 11:19, 43.9% 17.4c
Mon Mar 11 11:12, 43.9% 17.5c
Mon Mar 11 10:21, 43.9% 17.9c
Mon Mar 11 10:04, 43.9% 17.9c
Mon Mar 11 09:24, 43.9% 18.3c
Mon Mar 11 08:34, 44.8% 18.5c
Mon Mar 11 08:33, 44.9% 18.4c
Mon Mar 11 08:18, 45.8% 17.9c
Mon Mar 11 07:56, 46.7% 17.4c
Mon Mar 11 07:44, 45.2% 16.9c
Mon Mar 11 07:44, 45.2% 16.8c
Mon Mar 11 06:42, 42.8% 16.3c
Mon Mar 11 06:11, 43.0% 16.4c
Mon Mar 11 05:51, 43.1% 16.5c
Mon Mar 11 04:56, 43.3% 16.7c
Mon Mar 11 04:04, 42.2% 16.6c
Mon Mar 11 03:13, 42.2% 16.9c
Mon Mar 11 03:11, 42.1% 16.9c
Mon Mar 11 02:19, 42.1% 17.3c
Mon Mar 11 02:02, 42.0% 17.4c
Mon Mar 11 01:20, 42.0% 17.8c
Mon Mar 11 00:57, 42.1% 17.9c
Mon Mar 11 00:29, 42.1% 18.2c
Mon Mar 11 00:04, 42.3% 18.4c
Sun Mar 10 23:32, 42.5% 18.8c
Sun Mar 10 23:22, 42.3% 18.9c
Sun Mar 10 22:46, 42.2% 19.4c
Sun Mar 10 22:40, 42.2% 19.6c
Sun Mar 10 22:14, 42.1% 19.9c
Sun Mar 10 21:49, 42.3% 20.4c
Sun Mar 10 21:44, 42.5% 20.4c
Sun Mar 10 20:50, 42.2% 21.3c
Sun Mar 10 20:06, 42.5% 20.9c
Sun Mar 10 19:51, 42.9% 20.7c
Sun Mar 10 19:34, 43.3% 20.4c
Sun Mar 10 19:06, 43.4% 19.9c
Sun Mar 10 18:59, 43.8% 19.6c
Sun Mar 10 18:48, 44.4% 19.4c
Sun Mar 10 18:30, 44.8% 18.9c
Sun Mar 10 17:59, 42.9% 18.2c
Sun Mar 10 17:12, 42.9% 18.3c
Sun Mar 10 17:07, 42.9% 18.4c
Sun Mar 10 16:22, 42.9% 18.9c
Sun Mar 10 16:10, 42.8% 19.1c
Sun Mar 10 15:40, 43.0% 19.4c
Sun Mar 10 15:16, 42.8% 19.7c
Sun Mar 10 15:01, 42.7% 19.9c
Sun Mar 10 14:27, 42.5% 20.4c
Sun Mar 10 14:18, 42.4% 20.6c
Sun Mar 10 13:54, 42.0% 20.9c
Sun Mar 10 13:21, 42.0% 21.3c
Sun Mar 10 13:03, 42.4% 21.4c
Sun Mar 10 12:25, 43.7% 20.9c
Sun Mar 10 11:36, 44.8% 20.9c
Sun Mar 10 11:29, 45.1% 20.8c
Sun Mar 10 11:06, 47.1% 20.4c
Sun Mar 10 10:44, 47.9% 19.9c
Sun Mar 10 10:34, 47.9% 19.6c
Sun Mar 10 10:19, 48.6% 19.4c
Sun Mar 10 09:59, 46.1% 18.9c
Sun Mar 10 09:37, 45.4% 18.4c
Sun Mar 10 09:17, 45.6% 18.3c
Sun Mar 10 08:44, 45.8% 18.0c
Sun Mar 10 07:47, 45.5% 17.6c
Sun Mar 10 06:53, 44.9% 17.7c
Sun Mar 10 05:59, 45.1% 17.5c
Sun Mar 10 04:59, 45.0% 17.9c
Sun Mar 10 04:57, 45.0% 17.8c
Sun Mar 10 04:01, 45.0% 18.3c
Sun Mar 10 03:50, 44.8% 18.4c
Sun Mar 10 03:10, 44.7% 18.7c
Sun Mar 10 02:54, 44.8% 18.9c
Sun Mar 10 02:15, 44.6% 19.4c
Sun Mar 10 02:09, 44.6% 19.4c
Sun Mar 10 01:29, 44.5% 19.9c
Sun Mar 10 01:24, 44.4% 20.0c
Sun Mar 10 00:51, 44.5% 20.4c
Sun Mar 10 00:29, 44.4% 20.7c
Sat Mar 9 23:32, 44.0% 21.2c
Sat Mar 9 22:39, 44.3% 21.3c
Sat Mar 9 21:47, 43.7% 21.0c
Sat Mar 9 20:49, 43.5% 20.7c
Sat Mar 9 19:50, 44.1% 20.9c
Sat Mar 9 19:02, 44.3% 20.9c
Sat Mar 9 18:52, 44.0% 20.8c
Sat Mar 9 18:04, 44.5% 20.4c
Sat Mar 9 17:59, 44.4% 20.3c
Sat Mar 9 17:26, 45.9% 19.9c
Sat Mar 9 17:26, 45.9% 19.9c
Sat Mar 9 17:00, 45.7% 19.5c
Sat Mar 9 16:34, 46.3% 19.4c
Sat Mar 9 16:05, 46.4% 19.6c
Sat Mar 9 15:10, 47.6% 20.1c
Sat Mar 9 14:15, 46.1% 20.3c
Sat Mar 9 13:20, 45.4% 20.2c
Sat Mar 9 12:53, 45.1% 19.9c
Sat Mar 9 12:22, 48.1% 19.5c
Sat Mar 9 11:23, 44.6% 19.5c
Sat Mar 9 10:58, 48.0% 19.4c
Sat Mar 9 10:34, 48.6% 18.9c
Sat Mar 9 10:26, 48.6% 18.7c
Sat Mar 9 09:52, 49.2% 18.4c
Sat Mar 9 09:27, 49.7% 17.9c
Sat Mar 9 09:22, 50.0% 17.9c
Sat Mar 9 09:03, 50.0% 17.4c
Sat Mar 9 08:28, 47.6% 17.0c
Sat Mar 9 07:32, 46.9% 17.1c
Sat Mar 9 06:34, 47.2% 17.1c
Sat Mar 9 05:35, 47.0% 16.9c
Sat Mar 9 05:32, 47.0% 16.9c
Sat Mar 9 04:39, 46.8% 17.1c
Sat Mar 9 03:59, 46.7% 17.4c
Sat Mar 9 03:44, 46.6% 17.6c
Sat Mar 9 02:50, 46.8% 17.9c
Sat Mar 9 02:48, 46.7% 18.0c
Sat Mar 9 01:57, 46.7% 18.4c
Sat Mar 9 01:52, 46.5% 18.4c
Sat Mar 9 01:08, 46.5% 18.9c
Sat Mar 9 01:04, 46.6% 19.0c
Sat Mar 9 00:15, 46.2% 19.4c
Sat Mar 9 00:13, 46.2% 19.5c
Fri Mar 8 23:36, 46.2% 19.9c
Fri Mar 8 23:13, 46.2% 20.3c
Fri Mar 8 22:58, 46.2% 20.5c
Fri Mar 8 22:26, 46.3% 21.0c
Fri Mar 8 22:18, 46.2% 21.1c
Fri Mar 8 21:20, 46.3% 21.8c
Fri Mar 8 20:36, 47.1% 21.5c
Fri Mar 8 20:23, 47.2% 21.2c
Fri Mar 8 20:08, 46.9% 20.9c
Fri Mar 8 19:29, 48.1% 20.5c
Fri Mar 8 19:19, 48.8% 20.4c
Fri Mar 8 18:45, 51.4% 19.9c
Fri Mar 8 18:37, 51.5% 19.7c
Fri Mar 8 18:12, 51.5% 19.4c
Fri Mar 8 17:48, 52.7% 18.9c
Fri Mar 8 17:39, 53.1% 18.5c
Fri Mar 8 17:33, 52.7% 18.4c
Fri Mar 8 16:41, 47.3% 17.9c
Fri Mar 8 16:10, 46.6% 18.0c
Fri Mar 8 15:47, 46.3% 18.2c
Fri Mar 8 15:02, 45.4% 18.5c
Fri Mar 8 14:51, 45.0% 18.6c
Fri Mar 8 13:56, 45.0% 19.1c
Fri Mar 8 13:29, 47.9% 19.0c
Fri Mar 8 13:11, 47.7% 18.5c
Fri Mar 8 13:01, 47.6% 18.2c
Fri Mar 8 12:17, 45.6% 18.0c
Fri Mar 8 12:03, 45.6% 18.1c
Fri Mar 8 11:06, 46.0% 18.2c
Fri Mar 8 10:10, 46.8% 18.3c
Fri Mar 8 09:15, 47.0% 18.4c
Fri Mar 8 08:40, 47.8% 18.5c
Fri Mar 8 08:29, 48.4% 18.3c
Fri Mar 8 07:58, 48.3% 18.0c
Fri Mar 8 07:24, 47.7% 17.5c
Fri Mar 8 07:18, 47.6% 17.5c
Fri Mar 8 06:26, 47.7% 17.0c
Fri Mar 8 05:28, 47.0% 16.7c

s3 Loft HTP**
Wed Mar 20 10:49, 79.1% 10.9c

Wed Mar 20 10:49, 79.1% 10.9c
1027.8 mb
Wed Mar 20 10:48, 79.1% 10.9c
1027.7 mb
Wed Mar 20 10:15, 78.9% 10.7c
1027.9 mb
Wed Mar 20 09:55, 78.8% 10.7c
1028.2 mb
Wed Mar 20 09:31, 78.8% 10.7c
1028.2 mb
Wed Mar 20 08:55, 78.7% 10.7c
1028.1 mb
Wed Mar 20 08:35, 78.6% 10.6c
1028.0 mb
Wed Mar 20 08:20, 78.5% 10.6c
1027.7 mb
Wed Mar 20 08:02, 78.5% 10.6c
1027.5 mb
Wed Mar 20 07:59, 78.5% 10.5c
1027.4 mb
Wed Mar 20 07:34, 78.4% 10.4c
1027.2 mb
Wed Mar 20 07:03, 78.4% 10.4c
1027.0 mb
Wed Mar 20 06:50, 78.3% 10.4c
1027.0 mb
Wed Mar 20 06:02, 78.1% 10.4c
1026.7 mb
Wed Mar 20 05:24, 78.1% 10.4c
1026.7 mb
Wed Mar 20 05:07, 78.0% 10.4c
1026.5 mb
Wed Mar 20 04:39, 78.0% 10.4c
1026.5 mb
Wed Mar 20 04:10, 78.0% 10.5c
1026.3 mb
Wed Mar 20 04:06, 77.9% 10.5c
1026.2 mb
Wed Mar 20 03:17, 77.8% 10.5c
1026.0 mb
Wed Mar 20 03:09, 77.8% 10.6c
1026.0 mb
Wed Mar 20 03:05, 77.8% 10.5c
1025.7 mb
Wed Mar 20 02:56, 77.8% 10.6c
1026.0 mb
Wed Mar 20 02:24, 77.8% 10.6c
1025.8 mb
Wed Mar 20 01:46, 77.7% 10.7c
1025.7 mb
Wed Mar 20 01:30, 77.8% 10.7c
1025.9 mb
Wed Mar 20 00:55, 77.7% 10.8c
1026.0 mb
Wed Mar 20 00:32, 77.7% 10.8c
1025.8 mb
Wed Mar 20 00:30, 77.7% 10.8c
1025.7 mb
Tue Mar 19 23:41, 77.7% 10.9c
1025.5 mb
Tue Mar 19 23:39, 77.7% 10.9c
1025.5 mb
Tue Mar 19 23:02, 77.7% 10.9c
1025.2 mb
Tue Mar 19 22:41, 77.6% 11.0c
1025.1 mb
Tue Mar 19 22:31, 77.6% 11.0c
1025.0 mb
Tue Mar 19 22:22, 77.6% 11.0c
1024.7 mb
Tue Mar 19 22:01, 77.5% 11.1c
1025.0 mb
Tue Mar 19 21:42, 77.5% 11.1c
1024.8 mb
Tue Mar 19 21:19, 77.5% 11.2c
1024.7 mb
Tue Mar 19 21:12, 77.4% 11.2c
1024.5 mb
Tue Mar 19 20:50, 77.3% 11.2c
1024.3 mb
Tue Mar 19 20:43, 77.3% 11.2c
1024.2 mb
Tue Mar 19 20:05, 77.2% 11.3c
1023.9 mb
Tue Mar 19 19:56, 77.1% 11.3c
1023.7 mb
Tue Mar 19 19:32, 77.1% 11.4c
1023.7 mb
Tue Mar 19 19:02, 77.0% 11.5c
1023.4 mb
Tue Mar 19 18:33, 77.0% 11.7c
1023.4 mb
Tue Mar 19 18:23, 76.7% 11.7c
1023.2 mb
Tue Mar 19 18:07, 76.6% 11.8c
1023.0 mb
Tue Mar 19 17:22, 76.8% 12.2c
1023.0 mb
Tue Mar 19 17:14, 76.7% 12.3c
1022.9 mb
Tue Mar 19 17:06, 76.8% 12.3c
1022.8 mb
Tue Mar 19 16:24, 76.9% 12.8c
1022.9 mb
Tue Mar 19 16:17, 77.0% 12.8c
1022.6 mb
Tue Mar 19 16:16, 77.0% 12.9c
1022.6 mb
Tue Mar 19 15:56, 77.0% 13.1c
1022.4 mb
Tue Mar 19 15:45, 77.0% 13.2c
1022.6 mb
Tue Mar 19 15:27, 77.1% 13.3c
1022.4 mb
Tue Mar 19 15:24, 77.2% 13.3c
1022.3 mb
Tue Mar 19 14:26, 77.4% 13.6c
1022.3 mb
Tue Mar 19 14:04, 77.4% 13.7c
1022.1 mb
Tue Mar 19 13:36, 77.6% 13.6c
1022.4 mb
Tue Mar 19 13:08, 77.7% 13.4c
1022.4 mb
Tue Mar 19 12:57, 77.8% 13.3c
1022.2 mb
Tue Mar 19 12:41, 77.8% 13.3c
1022.5 mb
Tue Mar 19 12:37, 77.8% 13.3c
1022.4 mb
Tue Mar 19 12:17, 78.0% 13.2c
1022.7 mb
Tue Mar 19 11:49, 78.2% 12.8c
1023.0 mb
Tue Mar 19 11:44, 78.3% 12.7c
1022.8 mb
Tue Mar 19 11:31, 78.3% 12.4c
1022.5 mb
Tue Mar 19 11:14, 78.4% 11.9c
1022.7 mb
Tue Mar 19 11:03, 78.3% 11.6c
1022.4 mb
Tue Mar 19 10:53, 78.3% 11.4c
1022.7 mb
Tue Mar 19 10:49, 78.3% 11.3c
1022.8 mb
Tue Mar 19 10:30, 78.2% 10.9c
1022.8 mb
Tue Mar 19 09:55, 77.9% 10.4c
1022.6 mb
Tue Mar 19 09:53, 78.0% 10.2c
1022.6 mb
Tue Mar 19 09:11, 77.7% 9.8c
1022.5 mb
Tue Mar 19 08:56, 77.6% 9.7c
1022.3 mb
Tue Mar 19 08:35, 77.3% 9.4c
1022.2 mb
Tue Mar 19 08:00, 76.9% 9.1c
1022.0 mb
Tue Mar 19 07:13, 76.6% 8.9c
1022.0 mb
Tue Mar 19 07:03, 76.5% 8.8c
1021.9 mb
Tue Mar 19 06:09, 76.2% 8.7c
1021.8 mb
Tue Mar 19 06:06, 76.2% 8.8c
1021.7 mb
Tue Mar 19 05:11, 76.0% 8.7c
1021.5 mb
Tue Mar 19 04:13, 75.8% 8.7c
1021.5 mb
Tue Mar 19 04:09, 75.8% 8.8c
1021.5 mb
Tue Mar 19 03:16, 75.6% 8.9c
1021.7 mb
Tue Mar 19 02:27, 75.4% 9.2c
1021.8 mb
Tue Mar 19 02:18, 75.5% 9.3c
1021.8 mb
Tue Mar 19 01:40, 75.7% 9.7c
1021.7 mb
Tue Mar 19 01:24, 75.8% 9.8c
1021.7 mb
Tue Mar 19 00:29, 75.9% 10.2c
1021.6 mb
Tue Mar 19 00:23, 75.9% 10.2c
1021.5 mb
Mon Mar 18 23:31, 76.1% 10.4c
1021.5 mb
Mon Mar 18 23:12, 76.1% 10.6c
1021.4 mb
Mon Mar 18 22:47, 76.1% 10.6c
1021.1 mb
Mon Mar 18 22:37, 76.0% 10.7c
1021.0 mb
Mon Mar 18 22:03, 76.1% 10.7c
1020.9 mb
Mon Mar 18 21:39, 76.1% 10.8c
1020.8 mb
Mon Mar 18 21:06, 76.0% 11.0c
1020.6 mb
Mon Mar 18 20:46, 76.0% 11.1c
1020.4 mb
Mon Mar 18 20:23, 75.8% 11.3c
1020.4 mb
Mon Mar 18 19:51, 75.8% 11.5c
1020.1 mb
Mon Mar 18 19:43, 75.8% 11.6c
1020.1 mb
Mon Mar 18 19:14, 75.7% 11.8c
1019.9 mb
Mon Mar 18 18:57, 75.5% 12.0c
1019.6 mb
Mon Mar 18 18:54, 75.5% 12.0c
1019.6 mb
Mon Mar 18 18:28, 75.6% 12.4c
1019.4 mb
Mon Mar 18 18:03, 75.5% 12.6c
1019.1 mb
Mon Mar 18 18:02, 75.5% 12.6c
1019.1 mb
Mon Mar 18 17:45, 75.7% 12.8c
1018.8 mb
Mon Mar 18 17:18, 75.8% 13.1c
1018.6 mb
Mon Mar 18 17:11, 75.9% 13.2c
1018.5 mb
Mon Mar 18 16:41, 76.1% 13.5c
1018.3 mb
Mon Mar 18 16:12, 76.1% 13.7c
1018.2 mb
Mon Mar 18 16:02, 76.2% 13.8c
1018.1 mb
Mon Mar 18 15:18, 76.1% 13.9c
1018.0 mb
Mon Mar 18 14:59, 76.1% 14.1c
1017.8 mb
Mon Mar 18 14:23, 76.5% 14.2c
1017.7 mb
Mon Mar 18 13:49, 76.8% 14.0c
1017.5 mb
Mon Mar 18 13:32, 76.9% 13.7c
1017.5 mb
Mon Mar 18 13:24, 76.9% 13.5c
1017.5 mb
Mon Mar 18 12:59, 76.8% 12.9c
1017.6 mb
Mon Mar 18 12:34, 76.8% 12.6c
1017.6 mb
Mon Mar 18 12:21, 76.9% 12.4c
1017.6 mb
Mon Mar 18 12:04, 76.9% 12.3c
1017.3 mb
Mon Mar 18 11:38, 77.2% 12.0c
1017.2 mb
Mon Mar 18 11:28, 77.4% 11.8c
1017.2 mb
Mon Mar 18 11:08, 77.6% 11.3c
1017.1 mb
Mon Mar 18 10:53, 77.7% 10.8c
1017.0 mb
Mon Mar 18 10:41, 77.9% 10.3c
1017.0 mb
Mon Mar 18 10:40, 78.0% 10.2c
1017.0 mb
Mon Mar 18 10:30, 78.0% 9.8c
1016.9 mb
Mon Mar 18 10:19, 77.9% 9.3c
1016.8 mb
Mon Mar 18 10:08, 78.0% 8.8c
1016.7 mb
Mon Mar 18 09:54, 78.0% 8.3c
1016.7 mb
Mon Mar 18 09:43, 78.0% 7.8c
1016.7 mb
Mon Mar 18 09:40, 78.0% 7.7c
1016.6 mb
Mon Mar 18 09:27, 78.0% 7.2c
1016.6 mb
Mon Mar 18 09:16, 77.9% 6.7c
1016.5 mb
Mon Mar 18 08:56, 77.8% 6.2c
1016.3 mb
Mon Mar 18 08:47, 77.7% 5.9c
1016.3 mb
Mon Mar 18 08:36, 77.5% 5.7c
1016.1 mb
Mon Mar 18 08:10, 76.9% 5.2c
1016.0 mb
Mon Mar 18 07:53, 76.8% 5.0c
1015.8 mb
Mon Mar 18 07:44, 76.5% 4.9c
1015.7 mb
Mon Mar 18 06:54, 75.9% 4.6c
1015.5 mb
Mon Mar 18 06:45, 75.9% 4.6c
1015.5 mb
Mon Mar 18 06:00, 75.5% 4.5c
1015.2 mb
Mon Mar 18 05:56, 75.5% 4.4c
1015.2 mb
Mon Mar 18 05:12, 75.3% 4.4c
1015.0 mb
Mon Mar 18 05:08, 75.3% 4.4c
1014.9 mb
Mon Mar 18 04:15, 75.2% 4.4c
1014.7 mb
Mon Mar 18 04:09, 75.1% 4.4c
1014.7 mb
Mon Mar 18 03:10, 75.0% 4.6c
1014.1 mb
Mon Mar 18 02:40, 74.9% 4.7c
1014.2 mb
Mon Mar 18 02:12, 74.8% 4.8c
1014.0 mb
Mon Mar 18 01:44, 74.7% 5.0c
1013.9 mb
Mon Mar 18 01:13, 74.7% 5.2c
1013.8 mb
Mon Mar 18 00:54, 74.6% 5.3c
1013.7 mb
Mon Mar 18 00:38, 74.5% 5.4c
1013.4 mb
Mon Mar 18 00:20, 74.5% 5.6c
1013.3 mb
Sun Mar 17 23:50, 74.4% 5.8c
1013.2 mb
Sun Mar 17 23:29, 74.3% 6.0c
1012.9 mb
Sun Mar 17 23:28, 74.2% 6.0c
1012.9 mb
Sun Mar 17 23:13, 74.2% 6.1c
1012.6 mb
Sun Mar 17 23:00, 74.0% 6.3c
1012.4 mb
Sun Mar 17 22:48, 74.1% 6.4c
1012.1 mb
Sun Mar 17 22:37, 74.2% 6.6c
1011.9 mb
Sun Mar 17 22:34, 74.1% 6.6c
1011.9 mb
Sun Mar 17 22:09, 74.1% 7.0c
1011.6 mb
Sun Mar 17 21:50, 73.9% 7.2c
1011.4 mb
Sun Mar 17 21:38, 73.9% 7.5c
1011.2 mb
Sun Mar 17 21:36, 74.0% 7.5c
1011.1 mb
Sun Mar 17 21:21, 73.9% 7.7c
1010.8 mb
Sun Mar 17 21:03, 73.9% 8.0c
1010.6 mb
Sun Mar 17 20:46, 73.8% 8.3c
1010.3 mb
Sun Mar 17 20:41, 73.8% 8.4c
1010.2 mb
Sun Mar 17 20:27, 73.9% 8.6c
1010.1 mb
Sun Mar 17 20:12, 73.9% 8.9c
1009.8 mb
Sun Mar 17 19:55, 74.1% 9.1c
1009.6 mb
Sun Mar 17 19:44, 74.2% 9.3c
1009.3 mb
Sun Mar 17 19:41, 74.4% 9.4c
1009.3 mb
Sun Mar 17 19:31, 74.7% 9.6c
1009.1 mb
Sun Mar 17 19:22, 74.6% 9.8c
1008.8 mb
Sun Mar 17 19:13, 74.7% 9.9c
1008.6 mb
Sun Mar 17 19:05, 74.5% 10.0c
1008.3 mb
Sun Mar 17 18:55, 74.4% 10.2c
1008.0 mb
Sun Mar 17 18:47, 74.4% 10.4c
1007.8 mb
Sun Mar 17 18:45, 74.4% 10.4c
1007.7 mb
Sun Mar 17 18:35, 74.6% 10.6c
1007.5 mb
Sun Mar 17 18:29, 74.6% 10.7c
1007.2 mb
Sun Mar 17 18:17, 74.8% 10.8c
1007.0 mb
Sun Mar 17 18:04, 75.1% 11.0c
1006.7 mb
Sun Mar 17 17:54, 75.0% 11.0c

s4 Hallway PiR
Wed Mar 20 11:30, status motion

Wed Mar 20 11:30, status motion
Wed Mar 20 11:28, status motion
Wed Mar 20 11:23, status motion
Wed Mar 20 11:22, status motion
Wed Mar 20 11:20, status motion
Wed Mar 20 11:13, status motion
Wed Mar 20 11:03, status motion
Wed Mar 20 11:03, status motion
Wed Mar 20 11:02, status motion
Wed Mar 20 11:02, status motion
Wed Mar 20 11:02, status motion
Wed Mar 20 10:52, no_motion 20m
Wed Mar 20 10:42, no_motion 10m
Wed Mar 20 10:33, status motion
Wed Mar 20 10:31, status motion
Wed Mar 20 10:29, status motion
Wed Mar 20 10:26, status motion
Wed Mar 20 10:24, status motion
Wed Mar 20 10:23, status motion
Wed Mar 20 10:21, status motion
Wed Mar 20 10:19, status motion
Wed Mar 20 10:10, status motion
Wed Mar 20 10:08, status motion
Wed Mar 20 10:08, status motion
Wed Mar 20 10:02, status motion
Wed Mar 20 10:01, status motion
Wed Mar 20 09:59, status motion
Wed Mar 20 09:57, status motion
Wed Mar 20 09:54, status motion
Wed Mar 20 09:53, status motion
Wed Mar 20 09:51, status motion
Wed Mar 20 09:29, no_motion 30m
Wed Mar 20 09:19, no_motion 20m
Wed Mar 20 09:09, no_motion 10m
Wed Mar 20 08:59, status motion
Wed Mar 20 08:56, status motion
Wed Mar 20 08:55, no_motion 10m
Wed Mar 20 08:45, status motion
Wed Mar 20 08:43, no_motion 10m
Wed Mar 20 08:34, status motion
Wed Mar 20 08:29, status motion
Wed Mar 20 08:27, status motion
Wed Mar 20 08:25, status motion
Wed Mar 20 08:23, status motion
Wed Mar 20 08:22, no_motion 10m
Wed Mar 20 08:12, status motion
Wed Mar 20 08:10, status motion
Wed Mar 20 08:07, status motion
Wed Mar 20 08:05, status motion
Wed Mar 20 07:57, status motion
Wed Mar 20 07:52, status motion
Wed Mar 20 07:42, no_motion 20m
Wed Mar 20 07:32, no_motion 10m
Wed Mar 20 07:22, status motion
Wed Mar 20 07:19, status motion
Wed Mar 20 07:12, no_motion 30m
Wed Mar 20 07:02, no_motion 20m
Wed Mar 20 06:52, no_motion 10m
Wed Mar 20 06:42, status motion
Wed Mar 20 06:33, status motion
Wed Mar 20 06:30, status motion
Wed Mar 20 00:56, no_motion 30m
Wed Mar 20 00:46, no_motion 20m
Wed Mar 20 00:36, no_motion 10m
Wed Mar 20 00:26, status motion
Wed Mar 20 00:24, status motion
Wed Mar 20 00:21, status motion
Tue Mar 19 22:55, no_motion 30m
Tue Mar 19 22:45, no_motion 20m
Tue Mar 19 22:35, no_motion 10m
Tue Mar 19 22:25, status motion
Tue Mar 19 22:23, status motion
Tue Mar 19 22:22, status motion
Tue Mar 19 22:17, status motion
Tue Mar 19 22:09, no_motion 10m
Tue Mar 19 21:59, status motion
Tue Mar 19 21:57, status motion
Tue Mar 19 21:51, status motion
Tue Mar 19 21:50, status motion
Tue Mar 19 21:49, status motion
Tue Mar 19 21:43, no_motion 10m
Tue Mar 19 21:35, status motion
Tue Mar 19 21:34, status motion
Tue Mar 19 21:22, no_motion 20m
Tue Mar 19 21:12, no_motion 10m
Tue Mar 19 21:02, status motion
Tue Mar 19 21:01, status motion
Tue Mar 19 21:00, status motion
Tue Mar 19 20:55, status motion
Tue Mar 19 20:55, status motion
Tue Mar 19 20:44, no_motion 10m
Tue Mar 19 20:34, status motion
Tue Mar 19 20:32, status motion
Tue Mar 19 20:32, no_motion 20m
Tue Mar 19 20:22, no_motion 10m
Tue Mar 19 20:12, status motion
Tue Mar 19 20:11, status motion
Tue Mar 19 19:48, no_motion 30m
Tue Mar 19 19:38, no_motion 20m
Tue Mar 19 19:28, no_motion 10m
Tue Mar 19 19:18, status motion
Tue Mar 19 19:16, status motion
Tue Mar 19 19:14, no_motion 10m
Tue Mar 19 19:04, status motion
Tue Mar 19 18:58, status motion
Tue Mar 19 18:56, status motion
Tue Mar 19 18:49, status motion
Tue Mar 19 18:48, status motion
Tue Mar 19 18:47, status motion
Tue Mar 19 18:43, no_motion 10m
Tue Mar 19 18:34, status motion
Tue Mar 19 18:32, status motion
Tue Mar 19 18:29, status motion
Tue Mar 19 18:26, status motion
Tue Mar 19 18:24, status motion
Tue Mar 19 18:17, status motion
Tue Mar 19 18:14, status motion
Tue Mar 19 18:08, status motion
Tue Mar 19 18:00, status motion
Tue Mar 19 17:55, no_motion 10m
Tue Mar 19 17:45, status motion
Tue Mar 19 17:44, status motion
Tue Mar 19 17:36, status motion
Tue Mar 19 17:36, status motion
Tue Mar 19 17:24, status motion
Tue Mar 19 16:39, no_motion 30m
Tue Mar 19 16:29, no_motion 20m
Tue Mar 19 16:19, no_motion 10m
Tue Mar 19 16:09, status motion
Tue Mar 19 16:07, status motion
Tue Mar 19 16:05, status motion
Tue Mar 19 16:05, status motion
Tue Mar 19 16:05, status motion
Tue Mar 19 15:45, no_motion 30m
Tue Mar 19 15:35, no_motion 20m
Tue Mar 19 15:25, no_motion 10m
Tue Mar 19 15:15, status motion
Tue Mar 19 15:13, status motion
Tue Mar 19 15:11, status motion
Tue Mar 19 15:05, no_motion 10m
Tue Mar 19 14:55, status motion
Tue Mar 19 14:54, status motion
Tue Mar 19 14:53, status motion
Tue Mar 19 14:46, no_motion 20m
Tue Mar 19 14:36, no_motion 10m
Tue Mar 19 14:26, status motion
Tue Mar 19 14:25, status motion
Tue Mar 19 14:24, status motion
Tue Mar 19 14:19, status motion
Tue Mar 19 14:13, status motion
Tue Mar 19 14:06, status motion
Tue Mar 19 14:03, status motion
Tue Mar 19 14:00, status motion
Tue Mar 19 13:54, no_motion 10m
Tue Mar 19 13:44, status motion
Tue Mar 19 13:40, status motion
Tue Mar 19 13:36, no_motion 10m
Tue Mar 19 13:26, status motion
Tue Mar 19 13:24, status motion
Tue Mar 19 13:17, no_motion 20m
Tue Mar 19 13:07, no_motion 10m
Tue Mar 19 12:57, status motion
Tue Mar 19 12:48, no_motion 20m
Tue Mar 19 12:38, no_motion 10m
Tue Mar 19 12:28, status motion
Tue Mar 19 12:22, status motion
Tue Mar 19 12:22, status motion
Tue Mar 19 11:49, no_motion 30m
Tue Mar 19 11:39, no_motion 20m
Tue Mar 19 11:29, no_motion 10m
Tue Mar 19 11:20, status motion
Tue Mar 19 11:17, status motion
Tue Mar 19 11:11, status motion
Tue Mar 19 11:07, status motion
Tue Mar 19 11:04, status motion
Tue Mar 19 11:03, no_motion 20m
Tue Mar 19 10:53, no_motion 10m
Tue Mar 19 10:43, status motion
Tue Mar 19 10:41, status motion
Tue Mar 19 10:38, status motion
Tue Mar 19 10:37, status motion
Tue Mar 19 10:36, status motion
Tue Mar 19 10:32, status motion
Tue Mar 19 10:30, no_motion 10m
Tue Mar 19 10:20, status motion
Tue Mar 19 10:18, status motion
Tue Mar 19 10:15, no_motion 20m
Tue Mar 19 10:05, no_motion 10m
Tue Mar 19 09:55, status motion
Tue Mar 19 09:50, status motion
Tue Mar 19 09:46, status motion
Tue Mar 19 09:45, status motion
Tue Mar 19 09:40, status motion
Tue Mar 19 09:33, status motion
Tue Mar 19 09:32, status motion
Tue Mar 19 09:30, status motion
Tue Mar 19 09:28, status motion
Tue Mar 19 09:24, status motion
Tue Mar 19 09:22, status motion
Tue Mar 19 09:18, status motion
Tue Mar 19 09:14, status motion
Tue Mar 19 09:12, status motion
Tue Mar 19 09:11, status motion
Tue Mar 19 09:07, no_motion 20m
Tue Mar 19 08:57, no_motion 10m
Tue Mar 19 08:47, status motion
Tue Mar 19 08:39, status motion
Tue Mar 19 08:31, status motion
Tue Mar 19 08:27, status motion
Tue Mar 19 08:23, status motion
Tue Mar 19 08:23, status motion
Tue Mar 19 08:23, status motion
Tue Mar 19 08:13, status motion
Tue Mar 19 08:09, status motion
Tue Mar 19 08:06, status motion
Tue Mar 19 07:59, status motion
Tue Mar 19 07:54, status motion
Tue Mar 19 07:53, status motion
Tue Mar 19 07:52, status motion
Tue Mar 19 07:50, status motion
Tue Mar 19 07:43, no_motion 10m
Tue Mar 19 07:33, status motion
Tue Mar 19 07:32, status motion
Tue Mar 19 07:31, status motion
Tue Mar 19 07:27, status motion
Tue Mar 19 07:27, no_motion 10m
Tue Mar 19 07:17, status motion
Tue Mar 19 07:09, no_motion 20m
Tue Mar 19 06:59, no_motion 10m
Tue Mar 19 06:49, status motion
Tue Mar 19 06:47, status motion
Tue Mar 19 06:01, no_motion 30m
Tue Mar 19 05:51, no_motion 20m
Tue Mar 19 05:41, no_motion 10m
Tue Mar 19 05:31, status motion
Tue Mar 19 05:30, status motion
Tue Mar 19 02:28, no_motion 30m
Tue Mar 19 02:18, no_motion 20m
Tue Mar 19 02:08, no_motion 10m
Tue Mar 19 01:58, status motion
Tue Mar 19 01:57, status motion
Mon Mar 18 22:59, no_motion 30m
Mon Mar 18 22:49, no_motion 20m
Mon Mar 18 22:39, no_motion 10m
Mon Mar 18 22:29, status motion
Mon Mar 18 22:27, status motion
Mon Mar 18 22:19, no_motion 20m
Mon Mar 18 22:09, no_motion 10m
Mon Mar 18 21:59, status motion
Mon Mar 18 21:56, status motion
Mon Mar 18 21:52, no_motion 30m
Mon Mar 18 21:42, no_motion 20m
Mon Mar 18 21:32, no_motion 10m
Mon Mar 18 21:22, status motion
Mon Mar 18 21:20, status motion
Mon Mar 18 21:18, status motion
Mon Mar 18 20:40, no_motion 30m
Mon Mar 18 20:30, no_motion 20m
Mon Mar 18 20:20, no_motion 10m
Mon Mar 18 20:10, status motion
Mon Mar 18 20:05, no_motion 20m
Mon Mar 18 19:55, no_motion 10m
Mon Mar 18 19:45, status motion
Mon Mar 18 19:44, status motion
Mon Mar 18 19:36, no_motion 10m
Mon Mar 18 19:26, status motion
Mon Mar 18 19:25, status motion
Mon Mar 18 19:16, no_motion 30m
Mon Mar 18 19:06, no_motion 20m
Mon Mar 18 18:56, no_motion 10m
Mon Mar 18 18:46, status motion
Mon Mar 18 18:46, no_motion 10m
Mon Mar 18 18:38, status motion
Mon Mar 18 18:38, status motion
Mon Mar 18 18:33, status motion
Mon Mar 18 18:31, status motion
Mon Mar 18 18:30, status motion
Mon Mar 18 18:29, status motion
Mon Mar 18 18:28, status motion
Mon Mar 18 18:26, status motion
Mon Mar 18 18:25, status motion
Mon Mar 18 18:23, status motion
Mon Mar 18 18:22, status motion
Mon Mar 18 18:21, status motion
Mon Mar 18 18:19, status motion
Mon Mar 18 18:12, status motion
Mon Mar 18 18:11, status motion
Mon Mar 18 18:10, status motion
Mon Mar 18 18:09, status motion
Mon Mar 18 18:07, status motion
Mon Mar 18 18:06, status motion
Mon Mar 18 18:05, status motion
Mon Mar 18 18:03, status motion
Mon Mar 18 18:02, status motion
Mon Mar 18 18:01, status motion
Mon Mar 18 18:00, status motion
Mon Mar 18 17:59, status motion
Mon Mar 18 17:58, status motion
Mon Mar 18 17:57, status motion
Mon Mar 18 17:56, status motion
Mon Mar 18 17:55, status motion
Mon Mar 18 17:53, status motion
Mon Mar 18 17:52, status motion
Mon Mar 18 17:51, status motion
Mon Mar 18 17:50, status motion
Mon Mar 18 17:49, status motion
Mon Mar 18 17:48, status motion
Mon Mar 18 17:47, status motion
Mon Mar 18 17:38, status motion
Mon Mar 18 17:35, status motion
Mon Mar 18 17:30, status motion
Mon Mar 18 17:30, status motion
Mon Mar 18 17:22, status motion
Mon Mar 18 17:22, status motion
Mon Mar 18 17:14, status motion
Mon Mar 18 17:12, status motion
Mon Mar 18 15:40, no_motion 30m
Mon Mar 18 15:30, no_motion 20m
Mon Mar 18 15:20, no_motion 10m
Mon Mar 18 15:10, status motion
Mon Mar 18 15:08, status motion
Mon Mar 18 14:59, status motion
Mon Mar 18 14:55, status motion
Mon Mar 18 14:53, no_motion 10m
Mon Mar 18 14:43, status motion
Mon Mar 18 14:42, status motion
Mon Mar 18 14:35, status motion
Mon Mar 18 14:32, status motion
Mon Mar 18 14:31, no_motion 10m
Mon Mar 18 14:21, status motion
Mon Mar 18 14:16, status motion
Mon Mar 18 14:13, no_motion 10m
Mon Mar 18 14:03, status motion
Mon Mar 18 14:01, no_motion 10m
Mon Mar 18 13:52, status motion
Mon Mar 18 13:49, status motion
Mon Mar 18 13:49, status motion
Mon Mar 18 13:43, no_motion 30m
Mon Mar 18 13:33, no_motion 20m
Mon Mar 18 13:24, no_motion 10m
Mon Mar 18 13:13, status motion
Mon Mar 18 13:10, no_motion 30m
Mon Mar 18 13:00, no_motion 20m
Mon Mar 18 12:50, no_motion 10m
Mon Mar 18 12:49, status motion
Mon Mar 18 12:49, status motion
Mon Mar 18 09:37, no_motion 30m
Mon Mar 18 09:27, no_motion 20m
Mon Mar 18 09:17, no_motion 10m
Mon Mar 18 09:07, status motion
Mon Mar 18 09:06, status motion
Mon Mar 18 09:04, status motion
Mon Mar 18 09:03, status motion
Mon Mar 18 09:02, status motion
Mon Mar 18 08:59, status motion
Mon Mar 18 08:55, status motion
Mon Mar 18 08:47, no_motion 10m
Mon Mar 18 08:37, status motion
Mon Mar 18 08:31, status motion
Mon Mar 18 08:28, status motion
Mon Mar 18 08:27, status motion
Mon Mar 18 08:24, status motion
Mon Mar 18 08:20, status motion
Mon Mar 18 08:17, status motion
Mon Mar 18 08:15, status motion
Mon Mar 18 08:14, status motion
Mon Mar 18 08:11, status motion
Mon Mar 18 08:10, status motion
Mon Mar 18 08:07, status motion
Mon Mar 18 08:04, status motion
Mon Mar 18 07:55, status motion
Mon Mar 18 07:54, status motion
Mon Mar 18 07:53, status motion
Mon Mar 18 07:51, status motion
Mon Mar 18 07:50, status motion
Mon Mar 18 07:49, status motion
Mon Mar 18 07:48, status motion
Mon Mar 18 07:46, status motion
Mon Mar 18 07:45, status motion
Mon Mar 18 07:44, status motion
Mon Mar 18 07:38, status motion
Mon Mar 18 07:25, no_motion 10m
Mon Mar 18 07:15, status motion
Mon Mar 18 07:09, status motion
Mon Mar 18 07:04, no_motion 10m
Mon Mar 18 06:54, status motion
Mon Mar 18 06:52, status motion
Mon Mar 18 06:46, status motion
Mon Mar 18 06:43, status motion
Mon Mar 18 06:39, no_motion 10m
Mon Mar 18 06:29, status motion
Mon Mar 18 06:28, status motion
Mon Mar 18 06:14, no_motion 30m
Mon Mar 18 06:04, no_motion 20m
Mon Mar 18 05:54, no_motion 10m
Mon Mar 18 05:44, status motion
Mon Mar 18 05:42, status motion
Mon Mar 18 03:27, no_motion 30m
Mon Mar 18 03:17, no_motion 20m
Mon Mar 18 03:07, no_motion 10m
Mon Mar 18 02:57, status motion
Mon Mar 18 02:55, status motion
Mon Mar 18 00:00, no_motion 30m
Sun Mar 17 23:50, no_motion 20m
Sun Mar 17 23:40, no_motion 10m
Sun Mar 17 23:30, status motion
Sun Mar 17 23:28, status motion
Sun Mar 17 23:26, status motion
Sun Mar 17 23:08, no_motion 30m
Sun Mar 17 22:58, no_motion 20m
Sun Mar 17 22:48, no_motion 10m
Sun Mar 17 22:38, status motion
Sun Mar 17 22:37, status motion
Sun Mar 17 22:36, status motion
Sun Mar 17 21:52, no_motion 30m
Sun Mar 17 21:42, no_motion 20m
Sun Mar 17 21:32, no_motion 10m
Sun Mar 17 21:22, status motion
Sun Mar 17 21:20, status motion
Sun Mar 17 21:17, status motion
Sun Mar 17 20:58, no_motion 30m
Sun Mar 17 20:48, no_motion 20m
Sun Mar 17 20:38, no_motion 10m
Sun Mar 17 20:28, status motion
Sun Mar 17 20:27, status motion
Sun Mar 17 20:19, no_motion 10m
Sun Mar 17 20:09, status motion
Sun Mar 17 20:08, status motion
Sun Mar 17 20:01, no_motion 20m
Sun Mar 17 19:51, no_motion 10m
Sun Mar 17 19:41, status motion
Sun Mar 17 19:31, no_motion 10m
Sun Mar 17 19:21, status motion
Sun Mar 17 19:15, status motion
Sun Mar 17 19:13, status motion
Sun Mar 17 19:12, status motion
Sun Mar 17 19:05, status motion
Sun Mar 17 19:05, status motion
Sun Mar 17 19:05, status motion
Sun Mar 17 19:01, status motion
Sun Mar 17 19:00, status motion
Sun Mar 17 18:59, status motion
Sun Mar 17 18:58, no_motion 10m
Sun Mar 17 18:48, status motion
Sun Mar 17 18:47, status motion
Sun Mar 17 18:45, status motion
Sun Mar 17 16:39, no_motion 30m
Sun Mar 17 16:29, no_motion 20m
Sun Mar 17 16:19, no_motion 10m
Sun Mar 17 16:10, status motion
Sun Mar 17 16:10, status motion
Sun Mar 17 16:10, status motion
Sun Mar 17 16:09, status motion
Sun Mar 17 16:05, status motion
Sun Mar 17 16:05, status motion
Sun Mar 17 14:47, no_motion 30m
Sun Mar 17 14:37, no_motion 20m
Sun Mar 17 14:33, no_motion 10m
Sun Mar 17 14:24, status motion
Sun Mar 17 14:24, status motion
Sun Mar 17 14:20, status motion
Sun Mar 17 14:11, status motion
Sun Mar 17 14:05, status motion
Sun Mar 17 14:03, status motion
Sun Mar 17 13:25, no_motion 30m
Sun Mar 17 13:15, no_motion 20m
Sun Mar 17 13:05, no_motion 10m
Sun Mar 17 12:55, status motion
Sun Mar 17 12:53, status motion
Sun Mar 17 12:16, no_motion 30m
Sun Mar 17 12:06, no_motion 20m
Sun Mar 17 11:56, no_motion 10m
Sun Mar 17 11:51, status motion
Sun Mar 17 11:41, status motion
Sun Mar 17 11:40, status motion
Sun Mar 17 11:39, status motion
Sun Mar 17 11:36, status motion
Sun Mar 17 11:30, status motion
Sun Mar 17 11:27, no_motion 30m
Sun Mar 17 11:17, no_motion 20m
Sun Mar 17 11:07, no_motion 10m
Sun Mar 17 10:58, status motion
Sun Mar 17 10:58, status motion
Sun Mar 17 10:58, status motion
Sun Mar 17 10:58, status motion
Sun Mar 17 10:58, status motion
Sun Mar 17 10:50, status motion
Sun Mar 17 10:45, status motion
Sun Mar 17 10:44, status motion
Sun Mar 17 10:40, status motion
Sun Mar 17 10:34, status motion
Sun Mar 17 10:33, status motion
Sun Mar 17 10:28, status motion
Sun Mar 17 10:26, status motion
Sun Mar 17 10:22, status motion
Sun Mar 17 10:14, status motion
Sun Mar 17 10:13, status motion
Sun Mar 17 10:10, no_motion 10m
Sun Mar 17 10:00, status motion
Sun Mar 17 09:58, status motion
Sun Mar 17 09:51, status motion
Sun Mar 17 09:44, status motion
Sun Mar 17 09:43, status motion
Sun Mar 17 09:41, status motion
Sun Mar 17 09:40, status motion
Sun Mar 17 09:36, status motion
Sun Mar 17 08:17, no_motion 30m
Sun Mar 17 08:07, no_motion 20m
Sun Mar 17 07:57, no_motion 10m
Sun Mar 17 07:47, status motion
Sun Mar 17 07:44, status motion
Sun Mar 17 07:41, status motion
Sun Mar 17 07:38, status motion
Sun Mar 17 03:23, no_motion 30m
Sun Mar 17 03:13, no_motion 20m
Sun Mar 17 03:03, no_motion 10m
Sun Mar 17 02:53, status motion
Sun Mar 17 02:47, status motion
Sun Mar 17 02:45, no_motion 10m
Sun Mar 17 02:38, status motion
Sun Mar 17 02:27, no_motion 10m
Sun Mar 17 02:17, status motion
Sun Mar 17 02:14, status motion
Sun Mar 17 02:11, status motion
Sun Mar 17 01:59, no_motion 30m
Sun Mar 17 01:49, no_motion 20m
Sun Mar 17 01:39, no_motion 10m
Sun Mar 17 01:29, status motion
Sun Mar 17 01:27, status motion
Sat Mar 16 23:34, no_motion 30m
Sat Mar 16 23:24, no_motion 20m
Sat Mar 16 23:14, no_motion 10m
Sat Mar 16 23:04, status motion
Sat Mar 16 22:38, no_motion 30m
Sat Mar 16 22:28, no_motion 20m
Sat Mar 16 22:18, no_motion 10m
Sat Mar 16 22:08, status motion
Sat Mar 16 22:07, status motion
Sat Mar 16 22:05, status motion
Sat Mar 16 22:03, status motion
Sat Mar 16 21:58, no_motion 10m
Sat Mar 16 21:48, status motion
Sat Mar 16 21:06, no_motion 30m
Sat Mar 16 20:56, no_motion 20m
Sat Mar 16 20:46, no_motion 10m
Sat Mar 16 20:36, status motion
Sat Mar 16 20:35, status motion
Sat Mar 16 20:34, status motion
Sat Mar 16 20:30, no_motion 30m
Sat Mar 16 20:20, no_motion 20m
Sat Mar 16 20:10, no_motion 10m
Sat Mar 16 20:00, status motion
Sat Mar 16 19:58, status motion
Sat Mar 16 19:56, status motion
Sat Mar 16 19:49, no_motion 10m
Sat Mar 16 19:40, status motion
Sat Mar 16 19:36, status motion
Sat Mar 16 19:28, no_motion 10m
Sat Mar 16 19:18, status motion
Sat Mar 16 19:08, status motion
Sat Mar 16 19:07, status motion
Sat Mar 16 19:06, status motion
Sat Mar 16 19:06, status motion
Sat Mar 16 19:02, status motion
Sat Mar 16 18:57, status motion
Sat Mar 16 18:56, status motion
Sat Mar 16 18:54, no_motion 10m

s5 Liv-Room PiR
Wed Mar 20 11:33, status motion

Wed Mar 20 11:33, status motion
Wed Mar 20 11:32, status motion
Wed Mar 20 11:30, status motion
Wed Mar 20 11:29, status motion
Wed Mar 20 11:28, status motion
Wed Mar 20 11:21, no_motion 20m
Wed Mar 20 11:11, no_motion 10m
Wed Mar 20 11:02, status motion
Wed Mar 20 11:02, status motion
Wed Mar 20 10:52, no_motion 20m
Wed Mar 20 10:42, no_motion 10m
Wed Mar 20 10:33, status motion
Wed Mar 20 10:31, status motion
Wed Mar 20 10:28, status motion
Wed Mar 20 10:27, status motion
Wed Mar 20 10:24, status motion
Wed Mar 20 10:19, status motion
Wed Mar 20 10:19, no_motion 10m
Wed Mar 20 10:09, status motion
Wed Mar 20 10:08, status motion
Wed Mar 20 10:08, status motion
Wed Mar 20 10:08, status motion
Wed Mar 20 10:04, status motion
Wed Mar 20 10:02, status motion
Wed Mar 20 09:59, status motion
Wed Mar 20 09:58, status motion
Wed Mar 20 09:55, status motion
Wed Mar 20 09:49, status motion
Wed Mar 20 09:45, no_motion 10m
Wed Mar 20 09:35, status motion
Wed Mar 20 09:30, status motion
Wed Mar 20 09:24, status motion
Wed Mar 20 09:22, status motion
Wed Mar 20 09:18, status motion
Wed Mar 20 09:15, status motion
Wed Mar 20 09:14, status motion
Wed Mar 20 09:11, no_motion 10m
Wed Mar 20 09:01, status motion
Wed Mar 20 08:59, status motion
Wed Mar 20 08:55, status motion
Wed Mar 20 08:55, no_motion 10m
Wed Mar 20 08:45, status motion
Wed Mar 20 08:43, no_motion 10m
Wed Mar 20 08:34, status motion
Wed Mar 20 08:29, status motion
Wed Mar 20 08:25, status motion
Wed Mar 20 08:23, status motion
Wed Mar 20 08:22, no_motion 10m
Wed Mar 20 08:12, status motion
Wed Mar 20 08:11, status motion
Wed Mar 20 08:07, status motion
Wed Mar 20 08:05, status motion
Wed Mar 20 08:03, status motion
Wed Mar 20 07:57, status motion
Wed Mar 20 07:52, status motion
Wed Mar 20 07:42, no_motion 20m
Wed Mar 20 07:32, no_motion 10m
Wed Mar 20 07:22, status motion
Wed Mar 20 07:12, no_motion 30m
Wed Mar 20 07:02, no_motion 20m
Wed Mar 20 06:52, no_motion 10m
Wed Mar 20 06:42, status motion
Wed Mar 20 06:33, status motion
Wed Mar 20 00:56, no_motion 30m
Wed Mar 20 00:46, no_motion 20m
Wed Mar 20 00:36, no_motion 10m
Wed Mar 20 00:26, status motion
Wed Mar 20 00:24, status motion
Tue Mar 19 22:52, no_motion 30m
Tue Mar 19 22:42, no_motion 20m
Tue Mar 19 22:32, no_motion 10m
Tue Mar 19 22:22, status motion
Tue Mar 19 22:20, status motion
Tue Mar 19 22:18, status motion
Tue Mar 19 22:17, no_motion 20m
Tue Mar 19 22:07, no_motion 10m
Tue Mar 19 21:57, status motion
Tue Mar 19 21:56, no_motion 10m
Tue Mar 19 21:46, status motion
Tue Mar 19 21:44, status motion
Tue Mar 19 21:41, status motion
Tue Mar 19 21:40, status motion
Tue Mar 19 21:39, status motion
Tue Mar 19 21:37, status motion
Tue Mar 19 21:36, status motion
Tue Mar 19 21:35, status motion
Tue Mar 19 21:35, status motion
Tue Mar 19 21:34, status motion
Tue Mar 19 21:34, status motion
Tue Mar 19 21:29, status motion
Tue Mar 19 21:27, status motion
Tue Mar 19 21:23, status motion
Tue Mar 19 21:19, status motion
Tue Mar 19 21:14, status motion
Tue Mar 19 21:11, status motion
Tue Mar 19 21:10, status motion
Tue Mar 19 21:09, status motion
Tue Mar 19 21:02, status motion
Tue Mar 19 21:01, status motion
Tue Mar 19 20:55, status motion
Tue Mar 19 20:50, status motion
Tue Mar 19 20:44, status motion
Tue Mar 19 20:37, status motion
Tue Mar 19 20:35, status motion
Tue Mar 19 20:35, no_motion 10m
Tue Mar 19 20:25, status motion
Tue Mar 19 20:23, status motion
Tue Mar 19 20:21, status motion
Tue Mar 19 20:18, status motion
Tue Mar 19 20:12, status motion
Tue Mar 19 20:09, status motion
Tue Mar 19 20:04, status motion
Tue Mar 19 20:03, status motion
Tue Mar 19 20:01, status motion
Tue Mar 19 20:00, status motion
Tue Mar 19 19:58, status motion
Tue Mar 19 19:57, status motion
Tue Mar 19 19:53, status motion
Tue Mar 19 19:50, status motion
Tue Mar 19 19:46, status motion
Tue Mar 19 19:41, status motion
Tue Mar 19 19:36, status motion
Tue Mar 19 19:35, status motion
Tue Mar 19 19:33, status motion
Tue Mar 19 19:30, no_motion 10m
Tue Mar 19 19:20, status motion
Tue Mar 19 19:18, status motion
Tue Mar 19 19:17, status motion
Tue Mar 19 19:16, status motion
Tue Mar 19 19:15, status motion
Tue Mar 19 19:12, status motion
Tue Mar 19 19:10, status motion
Tue Mar 19 19:07, status motion
Tue Mar 19 19:02, status motion
Tue Mar 19 18:58, status motion
Tue Mar 19 18:54, no_motion 10m
Tue Mar 19 18:44, status motion
Tue Mar 19 18:40, status motion
Tue Mar 19 18:37, status motion
Tue Mar 19 18:35, status motion
Tue Mar 19 18:32, no_motion 20m
Tue Mar 19 18:22, no_motion 10m
Tue Mar 19 18:12, status motion
Tue Mar 19 18:11, status motion
Tue Mar 19 18:10, status motion
Tue Mar 19 18:08, status motion
Tue Mar 19 18:00, status motion
Tue Mar 19 17:58, status motion
Tue Mar 19 17:57, status motion
Tue Mar 19 17:52, status motion
Tue Mar 19 17:49, status motion
Tue Mar 19 17:47, status motion
Tue Mar 19 17:46, status motion
Tue Mar 19 17:45, status motion
Tue Mar 19 17:44, status motion
Tue Mar 19 17:43, status motion
Tue Mar 19 17:42, status motion
Tue Mar 19 17:42, status motion
Tue Mar 19 17:41, status motion
Tue Mar 19 17:39, status motion
Tue Mar 19 17:38, status motion
Tue Mar 19 17:37, status motion
Tue Mar 19 17:36, status motion
Tue Mar 19 17:36, status motion
Tue Mar 19 17:31, status motion
Tue Mar 19 17:28, status motion
Tue Mar 19 17:26, status motion
Tue Mar 19 17:25, status motion
Tue Mar 19 17:22, status motion
Tue Mar 19 17:17, status motion
Tue Mar 19 17:07, status motion
Tue Mar 19 17:06, status motion
Tue Mar 19 17:05, status motion
Tue Mar 19 17:01, status motion
Tue Mar 19 16:58, status motion
Tue Mar 19 16:57, status motion
Tue Mar 19 16:55, status motion
Tue Mar 19 16:54, status motion
Tue Mar 19 16:53, status motion
Tue Mar 19 16:51, status motion
Tue Mar 19 16:50, status motion
Tue Mar 19 16:49, status motion
Tue Mar 19 16:48, status motion
Tue Mar 19 16:46, status motion
Tue Mar 19 16:44, status motion
Tue Mar 19 16:42, status motion
Tue Mar 19 16:41, status motion
Tue Mar 19 16:41, no_motion 10m
Tue Mar 19 16:31, status motion
Tue Mar 19 16:28, status motion
Tue Mar 19 16:27, status motion
Tue Mar 19 16:23, status motion
Tue Mar 19 16:22, status motion
Tue Mar 19 16:19, status motion
Tue Mar 19 16:18, status motion
Tue Mar 19 16:14, status motion
Tue Mar 19 16:13, status motion
Tue Mar 19 16:09, status motion
Tue Mar 19 16:08, status motion
Tue Mar 19 16:06, status motion
Tue Mar 19 16:05, status motion
Tue Mar 19 16:05, status motion
Tue Mar 19 15:44, no_motion 30m
Tue Mar 19 15:34, no_motion 20m
Tue Mar 19 15:24, no_motion 10m
Tue Mar 19 15:14, status motion
Tue Mar 19 15:12, status motion
Tue Mar 19 15:10, status motion
Tue Mar 19 15:09, status motion
Tue Mar 19 15:08, status motion
Tue Mar 19 15:07, status motion
Tue Mar 19 15:06, status motion
Tue Mar 19 15:05, status motion
Tue Mar 19 15:03, status motion
Tue Mar 19 14:56, status motion
Tue Mar 19 14:54, status motion
Tue Mar 19 14:53, status motion
Tue Mar 19 14:48, no_motion 20m
Tue Mar 19 14:38, no_motion 10m
Tue Mar 19 14:28, status motion
Tue Mar 19 14:27, status motion
Tue Mar 19 14:25, status motion
Tue Mar 19 14:24, status motion
Tue Mar 19 14:22, status motion
Tue Mar 19 14:21, status motion
Tue Mar 19 14:20, status motion
Tue Mar 19 14:19, status motion
Tue Mar 19 14:18, status motion
Tue Mar 19 14:17, status motion
Tue Mar 19 14:16, status motion
Tue Mar 19 14:15, status motion
Tue Mar 19 14:14, status motion
Tue Mar 19 14:13, status motion
Tue Mar 19 14:10, status motion
Tue Mar 19 14:06, status motion
Tue Mar 19 14:03, status motion
Tue Mar 19 13:59, status motion
Tue Mar 19 13:58, status motion
Tue Mar 19 13:57, status motion
Tue Mar 19 13:56, status motion
Tue Mar 19 13:55, status motion
Tue Mar 19 13:54, status motion
Tue Mar 19 13:53, status motion
Tue Mar 19 13:52, status motion
Tue Mar 19 13:51, status motion
Tue Mar 19 13:50, status motion
Tue Mar 19 13:49, status motion
Tue Mar 19 13:48, status motion
Tue Mar 19 13:47, status motion
Tue Mar 19 13:46, status motion
Tue Mar 19 13:45, status motion
Tue Mar 19 13:44, status motion
Tue Mar 19 13:43, status motion
Tue Mar 19 13:42, status motion
Tue Mar 19 13:39, status motion
Tue Mar 19 13:34, no_motion 10m
Tue Mar 19 13:24, status motion
Tue Mar 19 13:20, status motion
Tue Mar 19 13:17, status motion
Tue Mar 19 13:13, status motion
Tue Mar 19 13:12, status motion
Tue Mar 19 13:04, status motion
Tue Mar 19 12:57, status motion
Tue Mar 19 12:53, status motion
Tue Mar 19 12:49, status motion
Tue Mar 19 12:48, no_motion 10m
Tue Mar 19 12:38, status motion
Tue Mar 19 12:28, status motion
Tue Mar 19 12:26, status motion
Tue Mar 19 12:24, status motion
Tue Mar 19 12:22, status motion
Tue Mar 19 11:40, no_motion 30m
Tue Mar 19 11:30, no_motion 20m
Tue Mar 19 11:20, no_motion 10m
Tue Mar 19 11:10, status motion
Tue Mar 19 11:05, no_motion 30m
Tue Mar 19 10:55, no_motion 20m
Tue Mar 19 10:45, no_motion 10m
Tue Mar 19 10:35, status motion
Tue Mar 19 10:34, status motion
Tue Mar 19 10:33, status motion
Tue Mar 19 10:32, status motion
Tue Mar 19 10:30, status motion
Tue Mar 19 10:29, status motion
Tue Mar 19 10:27, status motion
Tue Mar 19 10:26, status motion
Tue Mar 19 10:24, status motion
Tue Mar 19 10:23, status motion
Tue Mar 19 10:22, status motion
Tue Mar 19 10:21, status motion
Tue Mar 19 10:15, no_motion 30m
Tue Mar 19 10:05, no_motion 20m
Tue Mar 19 09:55, no_motion 10m
Tue Mar 19 09:45, status motion
Tue Mar 19 09:40, no_motion 20m
Tue Mar 19 09:30, no_motion 10m
Tue Mar 19 09:20, status motion
Tue Mar 19 09:10, status motion
Tue Mar 19 09:09, status motion
Tue Mar 19 09:09, no_motion 30m
Tue Mar 19 08:59, no_motion 20m
Tue Mar 19 08:49, no_motion 10m
Tue Mar 19 08:39, status motion
Tue Mar 19 08:34, status motion
Tue Mar 19 08:27, status motion
Tue Mar 19 08:03, no_motion 30m
Tue Mar 19 07:53, no_motion 20m
Tue Mar 19 07:43, no_motion 10m
Tue Mar 19 07:33, status motion
Tue Mar 19 07:31, status motion
Tue Mar 19 07:29, status motion
Tue Mar 19 07:28, status motion
Tue Mar 19 07:27, status motion
Tue Mar 19 07:25, status motion
Tue Mar 19 07:23, status motion
Tue Mar 19 07:22, status motion
Tue Mar 19 07:22, status motion
Tue Mar 19 07:22, status motion
Tue Mar 19 07:18, no_motion 20m
Tue Mar 19 07:08, no_motion 10m
Tue Mar 19 06:58, status motion
Mon Mar 18 22:56, no_motion 30m
Mon Mar 18 22:46, no_motion 20m
Mon Mar 18 22:36, no_motion 10m
Mon Mar 18 22:26, status motion
Mon Mar 18 22:25, no_motion 10m
Mon Mar 18 22:15, status motion
Mon Mar 18 22:13, status motion
Mon Mar 18 22:11, status motion
Mon Mar 18 22:09, status motion
Mon Mar 18 22:08, status motion
Mon Mar 18 22:07, status motion
Mon Mar 18 22:06, status motion
Mon Mar 18 22:05, status motion
Mon Mar 18 22:04, status motion
Mon Mar 18 22:02, status motion
Mon Mar 18 22:01, status motion
Mon Mar 18 22:00, status motion
Mon Mar 18 21:59, status motion
Mon Mar 18 21:55, status motion
Mon Mar 18 21:54, status motion
Mon Mar 18 21:53, status motion
Mon Mar 18 21:51, status motion
Mon Mar 18 21:50, status motion
Mon Mar 18 21:49, status motion
Mon Mar 18 21:48, status motion
Mon Mar 18 21:46, status motion
Mon Mar 18 21:45, status motion
Mon Mar 18 21:44, status motion
Mon Mar 18 21:43, status motion
Mon Mar 18 21:41, status motion
Mon Mar 18 21:40, status motion
Mon Mar 18 21:39, status motion
Mon Mar 18 21:38, status motion
Mon Mar 18 21:37, status motion
Mon Mar 18 21:36, status motion
Mon Mar 18 21:34, status motion
Mon Mar 18 21:33, status motion
Mon Mar 18 21:32, status motion
Mon Mar 18 21:31, status motion
Mon Mar 18 21:30, status motion
Mon Mar 18 21:29, status motion
Mon Mar 18 21:28, status motion
Mon Mar 18 21:27, status motion
Mon Mar 18 21:26, status motion
Mon Mar 18 21:25, status motion
Mon Mar 18 21:24, status motion
Mon Mar 18 21:23, status motion
Mon Mar 18 21:21, status motion
Mon Mar 18 21:19, status motion
Mon Mar 18 21:18, status motion
Mon Mar 18 21:17, status motion
Mon Mar 18 21:16, status motion
Mon Mar 18 21:15, status motion
Mon Mar 18 21:14, status motion
Mon Mar 18 21:13, status motion
Mon Mar 18 21:12, status motion
Mon Mar 18 21:11, status motion
Mon Mar 18 21:10, status motion
Mon Mar 18 21:09, status motion
Mon Mar 18 21:07, status motion
Mon Mar 18 21:06, status motion
Mon Mar 18 21:05, status motion
Mon Mar 18 21:04, status motion
Mon Mar 18 21:03, status motion
Mon Mar 18 21:02, status motion
Mon Mar 18 21:01, status motion
Mon Mar 18 21:00, status motion
Mon Mar 18 20:59, status motion
Mon Mar 18 20:58, status motion
Mon Mar 18 20:57, status motion
Mon Mar 18 20:55, status motion
Mon Mar 18 20:54, status motion
Mon Mar 18 20:50, status motion
Mon Mar 18 20:48, status motion
Mon Mar 18 20:46, status motion
Mon Mar 18 20:45, status motion
Mon Mar 18 20:41, status motion
Mon Mar 18 20:38, status motion
Mon Mar 18 20:36, status motion
Mon Mar 18 20:35, status motion
Mon Mar 18 20:33, status motion
Mon Mar 18 20:31, status motion
Mon Mar 18 20:29, status motion
Mon Mar 18 20:27, status motion
Mon Mar 18 20:25, status motion
Mon Mar 18 20:24, status motion
Mon Mar 18 20:23, status motion
Mon Mar 18 20:22, status motion
Mon Mar 18 20:21, status motion
Mon Mar 18 20:20, status motion
Mon Mar 18 20:19, status motion
Mon Mar 18 20:18, status motion
Mon Mar 18 20:16, status motion
Mon Mar 18 20:15, status motion
Mon Mar 18 20:14, status motion
Mon Mar 18 20:13, status motion
Mon Mar 18 20:12, status motion
Mon Mar 18 20:11, status motion
Mon Mar 18 20:10, status motion
Mon Mar 18 20:09, status motion
Mon Mar 18 20:07, status motion
Mon Mar 18 20:06, status motion
Mon Mar 18 20:05, status motion
Mon Mar 18 20:03, status motion
Mon Mar 18 20:01, status motion
Mon Mar 18 20:00, status motion
Mon Mar 18 19:59, status motion
Mon Mar 18 19:58, status motion
Mon Mar 18 19:57, status motion
Mon Mar 18 19:56, status motion
Mon Mar 18 19:54, status motion
Mon Mar 18 19:53, status motion
Mon Mar 18 19:49, status motion
Mon Mar 18 19:48, status motion
Mon Mar 18 19:46, status motion
Mon Mar 18 19:45, status motion
Mon Mar 18 19:43, no_motion 10m
Mon Mar 18 19:33, status motion
Mon Mar 18 19:29, status motion
Mon Mar 18 19:28, status motion
Mon Mar 18 19:26, status motion
Mon Mar 18 19:25, status motion
Mon Mar 18 19:24, status motion
Mon Mar 18 19:21, status motion
Mon Mar 18 19:20, status motion
Mon Mar 18 19:18, status motion
Mon Mar 18 19:17, status motion
Mon Mar 18 19:16, status motion
Mon Mar 18 19:14, status motion
Mon Mar 18 19:13, status motion
Mon Mar 18 19:12, status motion
Mon Mar 18 19:10, status motion
Mon Mar 18 19:08, status motion
Mon Mar 18 19:07, status motion
Mon Mar 18 19:06, status motion
Mon Mar 18 19:04, status motion
Mon Mar 18 19:01, status motion
Mon Mar 18 19:00, status motion
Mon Mar 18 18:58, status motion
Mon Mar 18 18:57, status motion
Mon Mar 18 18:55, status motion
Mon Mar 18 18:54, status motion
Mon Mar 18 18:53, status motion
Mon Mar 18 18:52, status motion
Mon Mar 18 18:50, status motion
Mon Mar 18 18:49, status motion
Mon Mar 18 18:48, status motion
Mon Mar 18 18:47, status motion
Mon Mar 18 18:46, status motion
Mon Mar 18 18:45, status motion
Mon Mar 18 18:43, status motion
Mon Mar 18 18:42, status motion
Mon Mar 18 18:40, status motion
Mon Mar 18 18:38, status motion
Mon Mar 18 18:38, status motion
Mon Mar 18 18:38, status motion
Mon Mar 18 18:38, status motion
Mon Mar 18 18:35, status motion
Mon Mar 18 18:33, status motion
Mon Mar 18 18:31, status motion
Mon Mar 18 18:30, status motion
Mon Mar 18 18:26, status motion
Mon Mar 18 18:25, status motion
Mon Mar 18 18:23, status motion
Mon Mar 18 18:22, status motion
Mon Mar 18 18:20, no_motion 10m
Mon Mar 18 18:10, status motion
Mon Mar 18 18:09, status motion
Mon Mar 18 18:07, status motion
Mon Mar 18 18:06, status motion
Mon Mar 18 18:05, status motion
Mon Mar 18 18:04, status motion
Mon Mar 18 18:03, status motion
Mon Mar 18 18:01, status motion
Mon Mar 18 18:00, status motion
Mon Mar 18 17:56, status motion
Mon Mar 18 17:55, status motion
Mon Mar 18 17:54, status motion
Mon Mar 18 17:53, status motion
Mon Mar 18 17:52, status motion
Mon Mar 18 17:51, status motion
Mon Mar 18 17:49, status motion
Mon Mar 18 17:48, status motion
Mon Mar 18 17:47, status motion
Mon Mar 18 17:46, status motion
Mon Mar 18 17:45, status motion
Mon Mar 18 17:44, status motion
Mon Mar 18 17:43, status motion
Mon Mar 18 17:42, status motion
Mon Mar 18 17:41, status motion
Mon Mar 18 17:40, status motion
Mon Mar 18 17:39, status motion
Mon Mar 18 17:37, status motion
Mon Mar 18 17:36, status motion
Mon Mar 18 17:35, status motion
Mon Mar 18 17:34, status motion
Mon Mar 18 17:33, status motion
Mon Mar 18 17:32, status motion
Mon Mar 18 17:31, status motion
Mon Mar 18 17:30, status motion
Mon Mar 18 17:30, status motion
Mon Mar 18 17:30, status motion
Mon Mar 18 17:22, status motion
Mon Mar 18 17:18, no_motion 10m
Mon Mar 18 17:08, status motion
Mon Mar 18 16:37, no_motion 30m
Mon Mar 18 16:27, no_motion 20m
Mon Mar 18 16:17, no_motion 10m
Mon Mar 18 16:07, status motion
Mon Mar 18 16:07, no_motion 30m
Mon Mar 18 15:57, no_motion 20m
Mon Mar 18 15:47, no_motion 10m
Mon Mar 18 15:37, status motion
Mon Mar 18 15:36, status motion
Mon Mar 18 15:31, no_motion 20m
Mon Mar 18 15:21, no_motion 10m
Mon Mar 18 15:11, status motion
Mon Mar 18 15:07, status motion
Mon Mar 18 15:01, status motion
Mon Mar 18 14:59, status motion
Mon Mar 18 14:55, status motion
Mon Mar 18 14:50, status motion
Mon Mar 18 14:43, status motion
Mon Mar 18 14:42, status motion
Mon Mar 18 14:35, status motion
Mon Mar 18 14:31, status motion
Mon Mar 18 14:29, status motion
Mon Mar 18 14:28, status motion
Mon Mar 18 14:27, status motion
Mon Mar 18 14:25, status motion
Mon Mar 18 14:24, status motion
Mon Mar 18 14:23, status motion
Mon Mar 18 14:22, status motion
Mon Mar 18 14:21, status motion
Mon Mar 18 14:16, status motion
Mon Mar 18 14:12, no_motion 10m
Mon Mar 18 14:02, status motion
Mon Mar 18 14:01, status motion
Mon Mar 18 14:00, status motion
Mon Mar 18 13:59, status motion
Mon Mar 18 13:49, no_motion 30m
Mon Mar 18 13:39, no_motion 20m
Mon Mar 18 13:29, no_motion 10m
Mon Mar 18 13:19, status motion
Mon Mar 18 09:01, no_motion 30m
Mon Mar 18 08:51, no_motion 20m
Mon Mar 18 08:41, no_motion 10m

s6 Kitchen PiR
Wed Mar 20 11:30, status motion

Wed Mar 20 11:30, status motion
Wed Mar 20 11:28, status motion
Wed Mar 20 11:21, no_motion 20m
Wed Mar 20 11:11, no_motion 10m
Wed Mar 20 11:02, status motion
Wed Mar 20 10:52, no_motion 20m
Wed Mar 20 10:42, no_motion 10m
Wed Mar 20 10:33, status motion
Wed Mar 20 10:31, status motion
Wed Mar 20 10:29, status motion
Wed Mar 20 10:27, status motion
Wed Mar 20 10:24, status motion
Wed Mar 20 10:19, status motion
Wed Mar 20 10:10, status motion
Wed Mar 20 10:08, status motion
Wed Mar 20 10:08, status motion
Wed Mar 20 10:08, status motion
Wed Mar 20 10:04, status motion
Wed Mar 20 10:02, status motion
Wed Mar 20 10:00, status motion
Wed Mar 20 09:59, status motion
Wed Mar 20 09:57, status motion
Wed Mar 20 09:54, status motion
Wed Mar 20 09:53, status motion
Wed Mar 20 09:52, status motion
Wed Mar 20 09:50, status motion
Wed Mar 20 09:49, status motion
Wed Mar 20 09:45, no_motion 10m
Wed Mar 20 09:35, status motion
Wed Mar 20 09:34, status motion
Wed Mar 20 09:29, status motion
Wed Mar 20 09:24, status motion
Wed Mar 20 09:22, status motion
Wed Mar 20 09:18, status motion
Wed Mar 20 09:17, status motion
Wed Mar 20 09:16, status motion
Wed Mar 20 09:13, status motion
Wed Mar 20 09:05, status motion
Wed Mar 20 09:04, status motion
Wed Mar 20 08:59, status motion
Wed Mar 20 08:55, status motion
Wed Mar 20 08:49, status motion
Wed Mar 20 08:45, status motion
Wed Mar 20 08:43, no_motion 10m
Wed Mar 20 08:34, status motion
Wed Mar 20 08:34, status motion
Wed Mar 20 08:34, status motion
Wed Mar 20 08:30, status motion
Wed Mar 20 08:29, status motion
Wed Mar 20 08:27, status motion
Wed Mar 20 08:24, status motion
Wed Mar 20 08:23, status motion
Wed Mar 20 08:22, status motion
Wed Mar 20 08:14, status motion
Wed Mar 20 08:12, status motion
Wed Mar 20 08:11, status motion
Wed Mar 20 08:10, status motion
Wed Mar 20 08:08, status motion
Wed Mar 20 08:07, status motion
Wed Mar 20 08:04, status motion
Wed Mar 20 08:03, status motion
Wed Mar 20 08:02, status motion
Wed Mar 20 08:01, status motion
Wed Mar 20 07:59, status motion
Wed Mar 20 07:58, status motion
Wed Mar 20 07:57, status motion
Wed Mar 20 07:56, status motion
Wed Mar 20 07:55, status motion
Wed Mar 20 07:54, status motion
Wed Mar 20 07:53, status motion
Wed Mar 20 07:52, status motion
Wed Mar 20 07:42, no_motion 20m
Wed Mar 20 07:32, no_motion 10m
Wed Mar 20 07:22, status motion
Wed Mar 20 07:11, no_motion 30m
Wed Mar 20 07:01, no_motion 20m
Wed Mar 20 06:51, no_motion 10m
Wed Mar 20 06:41, status motion
Wed Mar 20 06:40, status motion
Wed Mar 20 06:39, status motion
Wed Mar 20 06:38, status motion
Wed Mar 20 06:37, status motion
Wed Mar 20 06:36, status motion
Wed Mar 20 06:35, status motion
Wed Mar 20 06:34, status motion
Wed Mar 20 06:33, status motion
Wed Mar 20 00:55, no_motion 30m
Wed Mar 20 00:45, no_motion 20m
Wed Mar 20 00:35, no_motion 10m
Wed Mar 20 00:25, status motion
Wed Mar 20 00:24, status motion
Tue Mar 19 22:51, no_motion 30m
Tue Mar 19 22:41, no_motion 20m
Tue Mar 19 22:31, no_motion 10m
Tue Mar 19 22:21, status motion
Tue Mar 19 22:20, status motion
Tue Mar 19 22:19, status motion
Tue Mar 19 22:18, status motion
Tue Mar 19 22:17, status motion
Tue Mar 19 22:16, status motion
Tue Mar 19 22:14, status motion
Tue Mar 19 22:14, status motion
Tue Mar 19 22:13, status motion
Tue Mar 19 22:12, status motion
Tue Mar 19 22:11, status motion
Tue Mar 19 22:09, status motion
Tue Mar 19 22:08, status motion
Tue Mar 19 22:07, status motion
Tue Mar 19 22:06, status motion
Tue Mar 19 22:05, status motion
Tue Mar 19 22:04, status motion
Tue Mar 19 22:03, status motion
Tue Mar 19 22:02, status motion
Tue Mar 19 22:01, status motion
Tue Mar 19 22:00, status motion
Tue Mar 19 21:58, status motion
Tue Mar 19 21:57, status motion
Tue Mar 19 21:56, status motion
Tue Mar 19 21:55, status motion
Tue Mar 19 21:54, status motion
Tue Mar 19 21:53, status motion
Tue Mar 19 21:52, status motion
Tue Mar 19 21:51, status motion
Tue Mar 19 21:50, status motion
Tue Mar 19 21:49, status motion
Tue Mar 19 21:48, status motion
Tue Mar 19 21:47, status motion
Tue Mar 19 21:42, no_motion 10m
Tue Mar 19 21:34, status motion
Tue Mar 19 21:34, status motion
Tue Mar 19 21:34, no_motion 20m
Tue Mar 19 21:21, no_motion 10m
Tue Mar 19 21:11, status motion
Tue Mar 19 21:10, status motion
Tue Mar 19 21:01, status motion
Tue Mar 19 20:55, status motion
Tue Mar 19 20:46, no_motion 10m
Tue Mar 19 20:36, status motion
Tue Mar 19 20:35, status motion
Tue Mar 19 20:34, status motion
Tue Mar 19 20:25, status motion
Tue Mar 19 20:20, no_motion 10m
Tue Mar 19 20:10, status motion
Tue Mar 19 20:01, status motion
Tue Mar 19 20:00, status motion
Tue Mar 19 19:50, status motion
Tue Mar 19 19:49, status motion
Tue Mar 19 19:45, status motion
Tue Mar 19 19:45, status motion
Tue Mar 19 19:45, status motion
Tue Mar 19 19:34, status motion
Tue Mar 19 19:29, no_motion 10m
Tue Mar 19 19:19, status motion
Tue Mar 19 19:18, status motion
Tue Mar 19 19:17, status motion
Tue Mar 19 19:08, no_motion 10m
Tue Mar 19 18:58, status motion
Tue Mar 19 18:57, status motion
Tue Mar 19 18:47, no_motion 10m
Tue Mar 19 18:37, status motion
Tue Mar 19 18:36, status motion
Tue Mar 19 18:35, status motion
Tue Mar 19 18:34, status motion
Tue Mar 19 18:29, status motion
Tue Mar 19 18:26, no_motion 10m
Tue Mar 19 18:16, status motion
Tue Mar 19 18:14, status motion
Tue Mar 19 18:13, status motion
Tue Mar 19 18:12, status motion
Tue Mar 19 18:08, status motion
Tue Mar 19 18:05, status motion
Tue Mar 19 18:04, status motion
Tue Mar 19 18:03, status motion
Tue Mar 19 18:02, status motion
Tue Mar 19 18:01, status motion
Tue Mar 19 18:00, status motion
Tue Mar 19 17:59, status motion
Tue Mar 19 17:58, status motion
Tue Mar 19 17:54, no_motion 10m
Tue Mar 19 17:44, status motion
Tue Mar 19 17:41, status motion
Tue Mar 19 17:36, status motion
Tue Mar 19 17:36, status motion
Tue Mar 19 17:36, status motion
Tue Mar 19 17:36, status motion
Tue Mar 19 17:31, status motion
Tue Mar 19 17:27, status motion
Tue Mar 19 17:26, status motion
Tue Mar 19 17:24, status motion
Tue Mar 19 17:23, status motion
Tue Mar 19 17:22, status motion
Tue Mar 19 17:17, status motion
Tue Mar 19 17:15, status motion
Tue Mar 19 17:14, status motion
Tue Mar 19 17:13, status motion
Tue Mar 19 17:12, status motion
Tue Mar 19 17:11, status motion
Tue Mar 19 17:10, status motion
Tue Mar 19 17:09, status motion
Tue Mar 19 17:08, status motion
Tue Mar 19 17:07, status motion
Tue Mar 19 17:06, status motion
Tue Mar 19 17:04, no_motion 20m
Tue Mar 19 16:54, no_motion 10m
Tue Mar 19 16:44, status motion
Tue Mar 19 16:43, status motion
Tue Mar 19 16:42, status motion
Tue Mar 19 16:42, no_motion 30m
Tue Mar 19 16:32, no_motion 20m
Tue Mar 19 16:22, no_motion 10m
Tue Mar 19 16:12, status motion
Tue Mar 19 16:11, status motion
Tue Mar 19 16:10, status motion
Tue Mar 19 16:09, status motion
Tue Mar 19 16:08, status motion
Tue Mar 19 16:07, status motion
Tue Mar 19 16:06, status motion
Tue Mar 19 16:05, status motion
Tue Mar 19 16:05, status motion
Tue Mar 19 16:05, status motion
Tue Mar 19 16:03, status motion
Tue Mar 19 15:45, no_motion 30m
Tue Mar 19 15:35, no_motion 20m
Tue Mar 19 15:25, no_motion 10m
Tue Mar 19 15:15, status motion
Tue Mar 19 15:14, status motion
Tue Mar 19 15:13, status motion
Tue Mar 19 15:12, status motion
Tue Mar 19 15:10, status motion
Tue Mar 19 15:05, no_motion 10m
Tue Mar 19 14:56, status motion
Tue Mar 19 14:54, status motion
Tue Mar 19 14:53, status motion
Tue Mar 19 14:48, no_motion 20m
Tue Mar 19 14:38, no_motion 10m
Tue Mar 19 14:28, status motion
Tue Mar 19 14:27, status motion
Tue Mar 19 14:25, status motion
Tue Mar 19 14:23, status motion
Tue Mar 19 14:19, status motion
Tue Mar 19 14:13, status motion
Tue Mar 19 14:10, status motion
Tue Mar 19 14:06, status motion
Tue Mar 19 14:03, status motion
Tue Mar 19 14:00, status motion
Tue Mar 19 13:51, status motion
Tue Mar 19 13:50, status motion
Tue Mar 19 13:49, status motion
Tue Mar 19 13:47, status motion
Tue Mar 19 13:46, status motion
Tue Mar 19 13:45, status motion
Tue Mar 19 13:44, status motion
Tue Mar 19 13:43, status motion
Tue Mar 19 13:42, status motion
Tue Mar 19 13:41, status motion
Tue Mar 19 13:40, status motion
Tue Mar 19 13:36, no_motion 10m
Tue Mar 19 13:26, status motion
Tue Mar 19 13:24, status motion
Tue Mar 19 13:22, no_motion 10m
Tue Mar 19 13:12, status motion
Tue Mar 19 13:11, status motion
Tue Mar 19 13:10, status motion
Tue Mar 19 13:09, status motion
Tue Mar 19 13:07, status motion
Tue Mar 19 13:06, status motion
Tue Mar 19 13:05, status motion
Tue Mar 19 13:03, status motion
Tue Mar 19 13:02, status motion
Tue Mar 19 13:01, status motion
Tue Mar 19 13:00, status motion
Tue Mar 19 12:59, status motion
Tue Mar 19 12:58, status motion
Tue Mar 19 12:57, status motion
Tue Mar 19 12:56, status motion
Tue Mar 19 12:55, status motion
Tue Mar 19 12:53, status motion
Tue Mar 19 12:52, status motion
Tue Mar 19 12:51, status motion
Tue Mar 19 12:50, status motion
Tue Mar 19 12:49, status motion
Tue Mar 19 12:45, status motion
Tue Mar 19 12:44, status motion
Tue Mar 19 12:43, status motion
Tue Mar 19 12:42, status motion
Tue Mar 19 12:41, status motion
Tue Mar 19 12:40, status motion
Tue Mar 19 12:39, status motion
Tue Mar 19 12:38, status motion
Tue Mar 19 12:36, status motion
Tue Mar 19 12:35, status motion
Tue Mar 19 12:34, status motion
Tue Mar 19 12:33, status motion
Tue Mar 19 12:32, status motion
Tue Mar 19 12:30, status motion
Tue Mar 19 12:29, status motion
Tue Mar 19 12:28, status motion
Tue Mar 19 12:26, status motion
Tue Mar 19 12:25, status motion
Tue Mar 19 12:24, status motion
Tue Mar 19 12:23, status motion
Tue Mar 19 12:22, status motion
Tue Mar 19 12:22, status motion
Tue Mar 19 12:22, status motion
Tue Mar 19 12:22, status motion
Tue Mar 19 11:49, no_motion 30m
Tue Mar 19 11:39, no_motion 20m
Tue Mar 19 11:29, no_motion 10m
Tue Mar 19 11:19, status motion
Tue Mar 19 11:18, status motion
Tue Mar 19 11:17, status motion
Tue Mar 19 11:11, status motion
Tue Mar 19 11:10, status motion
Tue Mar 19 11:09, status motion
Tue Mar 19 11:08, status motion
Tue Mar 19 11:04, status motion
Tue Mar 19 10:57, no_motion 10m
Tue Mar 19 10:47, status motion
Tue Mar 19 10:46, status motion
Tue Mar 19 10:45, status motion
Tue Mar 19 10:44, status motion
Tue Mar 19 10:43, status motion
Tue Mar 19 10:37, status motion
Tue Mar 19 10:36, status motion
Tue Mar 19 10:35, status motion
Tue Mar 19 10:32, status motion
Tue Mar 19 10:28, status motion
Tue Mar 19 10:20, status motion
Tue Mar 19 10:17, status motion
Tue Mar 19 10:16, status motion
Tue Mar 19 10:12, no_motion 10m
Tue Mar 19 10:02, status motion
Tue Mar 19 10:01, status motion
Tue Mar 19 10:00, status motion
Tue Mar 19 09:58, status motion
Tue Mar 19 09:57, status motion
Tue Mar 19 09:56, status motion
Tue Mar 19 09:55, status motion
Tue Mar 19 09:54, status motion
Tue Mar 19 09:53, status motion
Tue Mar 19 09:52, status motion
Tue Mar 19 09:50, status motion
Tue Mar 19 09:45, status motion
Tue Mar 19 09:41, status motion
Tue Mar 19 09:39, status motion
Tue Mar 19 09:38, status motion
Tue Mar 19 09:37, status motion
Tue Mar 19 09:36, status motion
Tue Mar 19 09:35, status motion
Tue Mar 19 09:34, status motion
Tue Mar 19 09:33, status motion
Tue Mar 19 09:32, status motion
Tue Mar 19 09:30, status motion
Tue Mar 19 09:28, status motion
Tue Mar 19 09:23, status motion
Tue Mar 19 09:22, status motion
Tue Mar 19 09:19, status motion
Tue Mar 19 09:18, status motion
Tue Mar 19 09:17, status motion
Tue Mar 19 09:14, status motion
Tue Mar 19 09:11, status motion
Tue Mar 19 09:09, status motion
Tue Mar 19 09:02, status motion
Tue Mar 19 08:59, status motion
Tue Mar 19 08:58, status motion
Tue Mar 19 08:57, status motion
Tue Mar 19 08:56, status motion
Tue Mar 19 08:50, status motion
Tue Mar 19 08:48, status motion
Tue Mar 19 08:47, status motion
Tue Mar 19 08:38, status motion
Tue Mar 19 08:37, status motion
Tue Mar 19 08:36, status motion
Tue Mar 19 08:35, status motion
Tue Mar 19 08:34, status motion
Tue Mar 19 08:32, status motion
Tue Mar 19 08:31, status motion
Tue Mar 19 08:30, status motion
Tue Mar 19 08:29, status motion
Tue Mar 19 08:28, status motion
Tue Mar 19 08:28, status motion
Tue Mar 19 08:28, status motion
Tue Mar 19 08:27, status motion
Tue Mar 19 08:25, status motion
Tue Mar 19 08:23, status motion
Tue Mar 19 08:14, status motion
Tue Mar 19 08:09, no_motion 10m
Tue Mar 19 07:59, status motion
Tue Mar 19 07:55, status motion
Tue Mar 19 07:54, status motion
Tue Mar 19 07:53, no_motion 20m
Tue Mar 19 07:43, no_motion 10m
Tue Mar 19 07:33, status motion
Tue Mar 19 07:31, status motion
Tue Mar 19 07:27, status motion
Tue Mar 19 07:26, status motion
Tue Mar 19 07:25, status motion
Tue Mar 19 07:22, status motion
Tue Mar 19 07:22, status motion
Tue Mar 19 07:22, status motion
Tue Mar 19 07:16, status motion
Tue Mar 19 07:15, status motion
Tue Mar 19 07:14, status motion
Tue Mar 19 07:13, status motion
Tue Mar 19 07:06, status motion
Tue Mar 19 07:05, status motion
Tue Mar 19 07:04, status motion
Tue Mar 19 07:02, status motion
Tue Mar 19 07:01, status motion
Tue Mar 19 07:00, status motion
Tue Mar 19 06:58, status motion
Tue Mar 19 06:57, status motion
Tue Mar 19 06:56, status motion
Tue Mar 19 06:55, status motion
Tue Mar 19 06:53, status motion
Tue Mar 19 06:52, status motion
Tue Mar 19 06:51, status motion
Tue Mar 19 06:50, status motion
Tue Mar 19 06:49, status motion
Mon Mar 18 22:57, no_motion 30m
Mon Mar 18 22:47, no_motion 20m
Mon Mar 18 22:37, no_motion 10m
Mon Mar 18 22:27, status motion
Mon Mar 18 22:25, no_motion 10m
Mon Mar 18 22:15, status motion
Mon Mar 18 22:08, no_motion 10m
Mon Mar 18 21:58, status motion
Mon Mar 18 21:57, status motion
Mon Mar 18 21:56, status motion
Mon Mar 18 21:55, status motion
Mon Mar 18 21:53, no_motion 30m
Mon Mar 18 21:43, no_motion 20m
Mon Mar 18 21:33, no_motion 10m
Mon Mar 18 21:23, status motion
Mon Mar 18 21:19, status motion
Mon Mar 18 21:18, status motion
Mon Mar 18 20:58, no_motion 30m
Mon Mar 18 20:48, no_motion 20m
Mon Mar 18 20:38, no_motion 10m
Mon Mar 18 20:28, status motion
Mon Mar 18 20:27, status motion
Mon Mar 18 20:20, no_motion 10m
Mon Mar 18 20:10, status motion
Mon Mar 18 20:05, no_motion 20m
Mon Mar 18 19:55, no_motion 10m
Mon Mar 18 19:45, status motion
Mon Mar 18 19:36, no_motion 10m
Mon Mar 18 19:26, status motion
Mon Mar 18 19:25, status motion
Mon Mar 18 19:18, no_motion 20m
Mon Mar 18 19:08, no_motion 10m
Mon Mar 18 18:58, status motion
Mon Mar 18 18:57, status motion
Mon Mar 18 18:56, status motion
Mon Mar 18 18:55, status motion
Mon Mar 18 18:54, status motion
Mon Mar 18 18:46, status motion
Mon Mar 18 18:43, no_motion 10m
Mon Mar 18 18:33, status motion
Mon Mar 18 18:32, status motion
Mon Mar 18 18:31, status motion
Mon Mar 18 18:30, status motion
Mon Mar 18 18:29, status motion
Mon Mar 18 18:28, status motion
Mon Mar 18 18:27, status motion
Mon Mar 18 18:26, status motion
Mon Mar 18 18:25, status motion
Mon Mar 18 18:24, status motion
Mon Mar 18 18:23, status motion
Mon Mar 18 18:21, status motion
Mon Mar 18 18:20, status motion
Mon Mar 18 18:19, status motion
Mon Mar 18 18:18, status motion
Mon Mar 18 18:17, status motion
Mon Mar 18 18:16, status motion
Mon Mar 18 18:15, status motion
Mon Mar 18 18:14, status motion
Mon Mar 18 18:13, status motion
Mon Mar 18 18:12, status motion
Mon Mar 18 18:11, status motion
Mon Mar 18 18:10, status motion
Mon Mar 18 18:09, status motion
Mon Mar 18 18:08, status motion
Mon Mar 18 18:01, status motion
Mon Mar 18 18:00, status motion
Mon Mar 18 17:59, status motion
Mon Mar 18 17:58, status motion
Mon Mar 18 17:57, status motion
Mon Mar 18 17:50, status motion
Mon Mar 18 17:47, status motion
Mon Mar 18 17:45, status motion
Mon Mar 18 17:44, status motion
Mon Mar 18 17:43, status motion
Mon Mar 18 17:40, status motion
Mon Mar 18 17:38, status motion
Mon Mar 18 17:35, status motion
Mon Mar 18 17:33, status motion
Mon Mar 18 17:31, status motion
Mon Mar 18 17:30, status motion
Mon Mar 18 17:30, status motion
Mon Mar 18 17:30, status motion
Mon Mar 18 17:30, status motion
Mon Mar 18 17:26, status motion
Mon Mar 18 17:25, status motion
Mon Mar 18 17:24, status motion
Mon Mar 18 17:23, status motion
Mon Mar 18 17:22, status motion
Mon Mar 18 17:22, status motion
Mon Mar 18 17:22, status motion
Mon Mar 18 17:22, status motion
Mon Mar 18 17:17, status motion
Mon Mar 18 17:16, status motion
Mon Mar 18 17:15, status motion
Mon Mar 18 17:14, status motion
Mon Mar 18 17:11, status motion
Mon Mar 18 17:10, status motion
Mon Mar 18 17:09, status motion
Mon Mar 18 17:08, status motion
Mon Mar 18 17:06, status motion
Mon Mar 18 17:05, status motion
Mon Mar 18 17:04, status motion
Mon Mar 18 17:03, status motion
Mon Mar 18 17:02, status motion
Mon Mar 18 17:01, status motion
Mon Mar 18 17:00, status motion
Mon Mar 18 16:59, status motion
Mon Mar 18 16:58, status motion
Mon Mar 18 16:57, status motion
Mon Mar 18 16:56, status motion
Mon Mar 18 16:55, status motion
Mon Mar 18 16:53, status motion
Mon Mar 18 16:52, status motion
Mon Mar 18 16:51, status motion
Mon Mar 18 16:50, status motion
Mon Mar 18 16:49, status motion
Mon Mar 18 16:48, status motion
Mon Mar 18 16:47, status motion
Mon Mar 18 16:46, status motion
Mon Mar 18 16:45, status motion
Mon Mar 18 16:44, status motion
Mon Mar 18 16:43, status motion
Mon Mar 18 16:41, status motion
Mon Mar 18 16:40, status motion
Mon Mar 18 16:39, status motion
Mon Mar 18 16:38, status motion
Mon Mar 18 16:37, status motion
Mon Mar 18 16:36, status motion
Mon Mar 18 16:35, status motion
Mon Mar 18 16:34, status motion
Mon Mar 18 16:33, status motion
Mon Mar 18 16:32, status motion
Mon Mar 18 16:31, status motion
Mon Mar 18 16:28, status motion
Mon Mar 18 16:26, status motion
Mon Mar 18 16:25, status motion
Mon Mar 18 16:24, status motion
Mon Mar 18 16:23, status motion
Mon Mar 18 16:22, status motion
Mon Mar 18 16:21, status motion
Mon Mar 18 16:20, status motion
Mon Mar 18 16:19, status motion
Mon Mar 18 16:17, status motion
Mon Mar 18 16:16, status motion
Mon Mar 18 16:15, status motion
Mon Mar 18 16:14, status motion
Mon Mar 18 16:13, status motion
Mon Mar 18 16:12, status motion
Mon Mar 18 16:11, status motion
Mon Mar 18 16:10, status motion
Mon Mar 18 16:09, status motion
Mon Mar 18 16:08, status motion
Mon Mar 18 16:04, status motion
Mon Mar 18 16:03, status motion
Mon Mar 18 16:02, status motion
Mon Mar 18 16:01, status motion
Mon Mar 18 15:59, status motion
Mon Mar 18 15:57, status motion
Mon Mar 18 15:56, status motion
Mon Mar 18 15:54, status motion
Mon Mar 18 15:53, status motion
Mon Mar 18 15:52, status motion
Mon Mar 18 15:51, status motion
Mon Mar 18 15:49, status motion
Mon Mar 18 15:48, status motion
Mon Mar 18 15:45, status motion
Mon Mar 18 15:44, status motion
Mon Mar 18 15:43, status motion
Mon Mar 18 15:41, status motion
Mon Mar 18 15:40, status motion
Mon Mar 18 15:39, status motion
Mon Mar 18 15:38, status motion

s7 Power Usage
Wed Mar 20 11:32, 1008W

Wed Mar 20 11:26, 438W
Wed Mar 20 11:21, 445W
Wed Mar 20 11:18, 534W
Wed Mar 20 11:11, 596W
Wed Mar 20 11:07, 541W
Wed Mar 20 11:02, 480W
Wed Mar 20 10:57, 322W
Wed Mar 20 10:55, 301W
Wed Mar 20 10:46, 308W
Wed Mar 20 10:41, 253W
Wed Mar 20 10:36, 370W
Wed Mar 20 10:34, 329W
Wed Mar 20 10:26, 397W
Wed Mar 20 10:23, 452W
Wed Mar 20 10:17, 288W
Wed Mar 20 10:11, 356W
Wed Mar 20 10:08, 349W
Wed Mar 20 10:01, 397W
Wed Mar 20 09:56, 493W
Wed Mar 20 09:55, 432W
Wed Mar 20 09:49, 384W
Wed Mar 20 09:42, 438W
Wed Mar 20 09:36, 384W
Wed Mar 20 09:33, 336W
Wed Mar 20 09:26, 267W
Wed Mar 20 09:25, 315W
Wed Mar 20 09:16, 322W
Wed Mar 20 09:11, 349W
Wed Mar 20 09:09, 390W
Wed Mar 20 09:03, 397W
Wed Mar 20 08:57, 733W
Wed Mar 20 08:55, 603W
Wed Mar 20 08:46, 1206W
Wed Mar 20 08:43, 953W
Wed Mar 20 08:37, 1200W
Wed Mar 20 08:31, 1460W
Wed Mar 20 08:26, 1728W
Wed Mar 20 08:21, 1549W
Wed Mar 20 08:18, 1666W
Wed Mar 20 08:14, 1762W
Wed Mar 20 08:10, 514W
Wed Mar 20 08:01, 630W
Wed Mar 20 07:58, 1680W
Wed Mar 20 07:54, 521W
Wed Mar 20 07:50, 315W
Wed Mar 20 07:41, 267W
Wed Mar 20 07:36, 260W
Wed Mar 20 07:31, 315W
Wed Mar 20 07:26, 384W
Wed Mar 20 07:25, 397W
Wed Mar 20 07:19, 384W
Wed Mar 20 07:11, 315W
Wed Mar 20 07:08, 329W
Wed Mar 20 07:02, 322W
Wed Mar 20 06:59, 342W
Wed Mar 20 06:51, 274W
Wed Mar 20 06:46, 315W
Wed Mar 20 06:41, 384W
Wed Mar 20 06:39, 404W
Wed Mar 20 06:34, 1906W
Wed Mar 20 06:30, 267W
Wed Mar 20 06:25, 274W
Wed Mar 20 06:16, 274W
Wed Mar 20 06:15, 274W
Wed Mar 20 06:06, 370W
Wed Mar 20 06:03, 411W
Wed Mar 20 05:57, 397W
Wed Mar 20 05:51, 329W
Wed Mar 20 05:47, 342W
Wed Mar 20 05:44, 288W
Wed Mar 20 05:36, 267W
Wed Mar 20 05:31, 274W
Wed Mar 20 05:29, 267W
Wed Mar 20 05:21, 246W
Wed Mar 20 05:16, 274W
Wed Mar 20 05:13, 342W
Wed Mar 20 05:06, 315W
Wed Mar 20 05:03, 322W
Wed Mar 20 05:00, 329W
Wed Mar 20 04:55, 260W
Wed Mar 20 04:46, 246W
Wed Mar 20 04:41, 274W
Wed Mar 20 04:36, 288W
Wed Mar 20 04:31, 253W
Wed Mar 20 04:26, 329W
Wed Mar 20 04:21, 315W
Wed Mar 20 04:16, 315W
Wed Mar 20 04:13, 329W
Wed Mar 20 04:10, 260W
Wed Mar 20 04:05, 322W
Wed Mar 20 03:56, 260W
Wed Mar 20 03:54, 267W
Wed Mar 20 03:47, 260W
Wed Mar 20 03:41, 267W
Wed Mar 20 03:37, 329W
Wed Mar 20 03:31, 315W
Wed Mar 20 03:27, 315W
Wed Mar 20 03:21, 288W
Wed Mar 20 03:18, 939W
Wed Mar 20 03:13, 233W
Wed Mar 20 03:07, 253W
Wed Mar 20 03:02, 233W
Wed Mar 20 03:00, 233W
Wed Mar 20 02:51, 274W
Wed Mar 20 02:46, 260W
Wed Mar 20 02:45, 274W
Wed Mar 20 02:37, 212W
Wed Mar 20 02:34, 219W
Wed Mar 20 02:29, 198W
Wed Mar 20 02:20, 226W
Wed Mar 20 02:11, 246W
Wed Mar 20 02:06, 329W
Wed Mar 20 02:03, 329W
Wed Mar 20 01:56, 315W
Wed Mar 20 01:55, 308W
Wed Mar 20 01:50, 281W
Wed Mar 20 01:41, 267W
Wed Mar 20 01:38, 274W
Wed Mar 20 01:31, 274W
Wed Mar 20 01:26, 260W
Wed Mar 20 01:21, 315W
Wed Mar 20 01:16, 336W
Wed Mar 20 01:13, 329W
Wed Mar 20 01:08, 315W
Wed Mar 20 01:01, 274W
Wed Mar 20 01:00, 274W
Wed Mar 20 00:55, 260W
Wed Mar 20 00:46, 274W
Wed Mar 20 00:44, 267W
Wed Mar 20 00:36, 329W
Wed Mar 20 00:32, 336W
Wed Mar 20 00:29, 336W
Wed Mar 20 00:24, 342W
Wed Mar 20 00:16, 267W
Wed Mar 20 00:12, 274W
Wed Mar 20 00:07, 267W
Wed Mar 20 00:01, 267W
Tue Mar 19 23:59, 288W
Tue Mar 19 23:51, 260W
Tue Mar 19 23:49, 322W
Tue Mar 19 23:41, 336W
Tue Mar 19 23:39, 336W
Tue Mar 19 23:34, 267W
Tue Mar 19 23:26, 267W
Tue Mar 19 23:21, 260W
Tue Mar 19 23:16, 253W
Tue Mar 19 23:15, 267W
Tue Mar 19 23:10, 267W
Tue Mar 19 23:03, 322W
Tue Mar 19 22:56, 329W
Tue Mar 19 22:52, 336W
Tue Mar 19 22:46, 253W
Tue Mar 19 22:41, 267W
Tue Mar 19 22:36, 281W
Tue Mar 19 22:35, 294W
Tue Mar 19 22:26, 384W
Tue Mar 19 22:23, 562W
Tue Mar 19 22:18, 2420W
Tue Mar 19 22:11, 816W
Tue Mar 19 22:06, 960W
Tue Mar 19 22:01, 891W
Tue Mar 19 21:58, 1076W
Tue Mar 19 21:51, 1035W
Tue Mar 19 21:50, 1542W
Tue Mar 19 21:41, 1008W
Tue Mar 19 21:36, 1042W
Tue Mar 19 21:33, 1049W
Tue Mar 19 21:30, 843W
Tue Mar 19 21:23, 857W
Tue Mar 19 21:20, 836W
Tue Mar 19 21:11, 761W
Tue Mar 19 21:07, 802W
Tue Mar 19 21:01, 891W
Tue Mar 19 20:56, 864W
Tue Mar 19 20:53, 898W
Tue Mar 19 20:46, 788W
Tue Mar 19 20:42, 850W
Tue Mar 19 20:36, 822W
Tue Mar 19 20:33, 994W
Tue Mar 19 20:29, 877W
Tue Mar 19 20:22, 774W
Tue Mar 19 20:19, 836W
Tue Mar 19 20:12, 829W
Tue Mar 19 20:06, 870W
Tue Mar 19 20:01, 980W
Tue Mar 19 19:57, 953W
Tue Mar 19 19:52, 939W
Tue Mar 19 19:48, 953W
Tue Mar 19 19:44, 2413W
Tue Mar 19 19:38, 836W
Tue Mar 19 19:31, 1008W
Tue Mar 19 19:28, 960W
Tue Mar 19 19:24, 973W
Tue Mar 19 19:16, 1069W
Tue Mar 19 19:12, 1131W
Tue Mar 19 19:07, 1131W
Tue Mar 19 19:02, 1117W
Tue Mar 19 18:58, 1028W
Tue Mar 19 18:51, 966W
Tue Mar 19 18:48, 953W
Tue Mar 19 18:42, 1014W
Tue Mar 19 18:37, 1145W
Tue Mar 19 18:33, 1097W
Tue Mar 19 18:26, 1172W
Tue Mar 19 18:23, 1165W
Tue Mar 19 18:16, 1248W
Tue Mar 19 18:15, 1179W
Tue Mar 19 18:08, 1090W
Tue Mar 19 18:01, 836W
Tue Mar 19 17:59, 809W
Tue Mar 19 17:54, 761W
Tue Mar 19 17:50, 768W
Tue Mar 19 17:42, 877W
Tue Mar 19 17:36, 864W
Tue Mar 19 17:32, 3236W
Tue Mar 19 17:28, 2969W
Tue Mar 19 17:24, 4121W
Tue Mar 19 17:16, 3175W
Tue Mar 19 17:15, 3346W
Tue Mar 19 17:08, 3127W
Tue Mar 19 17:03, 1625W
Tue Mar 19 17:00, 1700W
Tue Mar 19 16:53, 1673W
Tue Mar 19 16:47, 1652W
Tue Mar 19 16:44, 1659W
Tue Mar 19 16:38, 438W
Tue Mar 19 16:35, 432W
Tue Mar 19 16:26, 404W
Tue Mar 19 16:22, 425W
Tue Mar 19 16:16, 384W
Tue Mar 19 16:11, 473W
Tue Mar 19 16:08, 548W
Tue Mar 19 16:04, 3051W
Tue Mar 19 15:58, 1213W
Tue Mar 19 15:51, 301W
Tue Mar 19 15:46, 301W
Tue Mar 19 15:42, 377W
Tue Mar 19 15:36, 301W
Tue Mar 19 15:31, 342W
Tue Mar 19 15:26, 342W
Tue Mar 19 15:21, 418W
Tue Mar 19 15:19, 425W
Tue Mar 19 15:14, 617W
Tue Mar 19 15:06, 486W
Tue Mar 19 15:01, 493W
Tue Mar 19 14:58, 507W
Tue Mar 19 14:52, 445W
Tue Mar 19 14:47, 438W
Tue Mar 19 14:42, 438W
Tue Mar 19 14:37, 500W
Tue Mar 19 14:31, 500W
Tue Mar 19 14:26, 493W
Tue Mar 19 14:23, 1872W
Tue Mar 19 14:16, 1872W
Tue Mar 19 14:14, 1885W
Tue Mar 19 14:06, 493W
Tue Mar 19 14:01, 493W
Tue Mar 19 13:56, 1933W
Tue Mar 19 13:51, 2002W
Tue Mar 19 13:46, 1933W
Tue Mar 19 13:43, 2071W
Tue Mar 19 13:39, 500W
Tue Mar 19 13:35, 438W
Tue Mar 19 13:28, 425W
Tue Mar 19 13:21, 534W
Tue Mar 19 13:18, 534W
Tue Mar 19 13:11, 1248W
Tue Mar 19 13:06, 1323W
Tue Mar 19 13:03, 2921W
Tue Mar 19 12:58, 1364W
Tue Mar 19 12:51, 3319W
Tue Mar 19 12:50, 3291W
Tue Mar 19 12:43, 2455W
Tue Mar 19 12:40, 2695W
Tue Mar 19 12:35, 2647W
Tue Mar 19 12:28, 2626W
Tue Mar 19 12:25, 2612W
Tue Mar 19 12:19, 1837W
Tue Mar 19 12:11, 473W
Tue Mar 19 12:06, 1152W
Tue Mar 19 12:03, 1117W
Tue Mar 19 11:56, 1062W
Tue Mar 19 11:53, 1076W
Tue Mar 19 11:47, 1062W
Tue Mar 19 11:43, 1721W
Tue Mar 19 11:37, 1728W
Tue Mar 19 11:32, 1789W
Tue Mar 19 11:26, 1789W
Tue Mar 19 11:21, 1803W
Tue Mar 19 11:18, 3257W
Tue Mar 19 11:12, 281W
Tue Mar 19 11:06, 233W
Tue Mar 19 11:03, 658W
Tue Mar 19 10:58, 1083W
Tue Mar 19 10:54, 781W
Tue Mar 19 10:47, 870W
Tue Mar 19 10:42, 1213W
Tue Mar 19 10:39, 1536W
Tue Mar 19 10:33, 1536W
Tue Mar 19 10:26, 1529W
Tue Mar 19 10:21, 1536W
Tue Mar 19 10:20, 1556W
Tue Mar 19 10:12, 1501W
Tue Mar 19 10:06, 1563W
Tue Mar 19 10:01, 1584W
Tue Mar 19 10:00, 1851W
Tue Mar 19 09:54, 720W
Tue Mar 19 09:47, 493W
Tue Mar 19 09:44, 473W
Tue Mar 19 09:38, 2023W
Tue Mar 19 09:31, 548W
Tue Mar 19 09:28, 1913W
Tue Mar 19 09:24, 411W
Tue Mar 19 09:18, 411W
Tue Mar 19 09:12, 404W
Tue Mar 19 09:08, 411W
Tue Mar 19 09:01, 397W
Tue Mar 19 08:56, 411W
Tue Mar 19 08:51, 342W
Tue Mar 19 08:46, 445W
Tue Mar 19 08:41, 493W
Tue Mar 19 08:36, 486W
Tue Mar 19 08:31, 486W
Tue Mar 19 08:28, 3010W
Tue Mar 19 08:25, 507W
Tue Mar 19 08:18, 692W
Tue Mar 19 08:13, 857W
Tue Mar 19 08:08, 870W
Tue Mar 19 08:03, 1371W
Tue Mar 19 07:58, 836W
Tue Mar 19 07:54, 761W
Tue Mar 19 07:47, 692W
Tue Mar 19 07:41, 836W
Tue Mar 19 07:38, 857W
Tue Mar 19 07:33, 720W
Tue Mar 19 07:28, 630W
Tue Mar 19 07:22, 822W
Tue Mar 19 07:20, 781W
Tue Mar 19 07:15, 2180W
Tue Mar 19 07:10, 418W
Tue Mar 19 07:01, 514W
Tue Mar 19 06:57, 404W
Tue Mar 19 06:51, 1879W
Tue Mar 19 06:46, 301W
Tue Mar 19 06:41, 370W
Tue Mar 19 06:36, 370W
Tue Mar 19 06:32, 377W
Tue Mar 19 06:28, 315W
Tue Mar 19 06:21, 253W
Tue Mar 19 06:16, 260W
Tue Mar 19 06:11, 260W
Tue Mar 19 06:07, 349W
Tue Mar 19 06:05, 356W
Tue Mar 19 05:57, 384W
Tue Mar 19 05:52, 315W
Tue Mar 19 05:46, 315W
Tue Mar 19 05:43, 315W
Tue Mar 19 05:40, 253W
Tue Mar 19 05:31, 301W
Tue Mar 19 05:28, 253W
Tue Mar 19 05:22, 253W
Tue Mar 19 05:16, 246W
Tue Mar 19 05:12, 246W
Tue Mar 19 05:06, 315W
Tue Mar 19 05:01, 315W
Tue Mar 19 04:56, 315W
Tue Mar 19 04:51, 246W
Tue Mar 19 04:46, 246W
Tue Mar 19 04:41, 246W
Tue Mar 19 04:36, 246W
Tue Mar 19 04:31, 288W
Tue Mar 19 04:26, 294W
Tue Mar 19 04:21, 356W
Tue Mar 19 04:18, 356W
Tue Mar 19 04:12, 390W
Tue Mar 19 04:07, 315W
Tue Mar 19 04:01, 260W
Tue Mar 19 04:00, 260W
Tue Mar 19 03:51, 205W
Tue Mar 19 03:46, 192W
Tue Mar 19 03:41, 205W
Tue Mar 19 03:36, 205W
Tue Mar 19 03:31, 260W
Tue Mar 19 03:28, 260W
Tue Mar 19 03:21, 274W
Tue Mar 19 03:17, 219W
Tue Mar 19 03:11, 219W
Tue Mar 19 03:06, 226W
Tue Mar 19 03:01, 219W
Tue Mar 19 03:00, 205W
Tue Mar 19 02:55, 205W
Tue Mar 19 02:46, 246W
Tue Mar 19 02:44, 260W
Tue Mar 19 02:38, 260W
Tue Mar 19 02:32, 260W
Tue Mar 19 02:26, 198W
Tue Mar 19 02:17, 219W
Tue Mar 19 02:11, 205W
Tue Mar 19 02:07, 205W
Tue Mar 19 02:01, 246W
Tue Mar 19 01:57, 356W
Tue Mar 19 01:51, 315W
Tue Mar 19 01:46, 315W
Tue Mar 19 01:45, 315W
Tue Mar 19 01:36, 267W
Tue Mar 19 01:32, 288W
Tue Mar 19 01:26, 219W
Tue Mar 19 01:21, 219W
Tue Mar 19 01:17, 219W
Tue Mar 19 01:11, 260W
Tue Mar 19 01:07, 274W
Tue Mar 19 01:02, 274W
Tue Mar 19 00:58, 274W
Tue Mar 19 00:51, 205W
Tue Mar 19 00:46, 205W
Tue Mar 19 00:41, 205W
Tue Mar 19 00:40, 219W
Tue Mar 19 00:33, 212W
Tue Mar 19 00:26, 205W
Tue Mar 19 00:21, 267W
Tue Mar 19 00:17, 281W
Tue Mar 19 00:11, 288W
Tue Mar 19 00:06, 219W
Tue Mar 19 00:01, 219W
Mon Mar 18 23:56, 219W
Mon Mar 18 23:51, 219W
Mon Mar 18 23:46, 226W
Mon Mar 18 23:41, 274W
Mon Mar 18 23:36, 329W
Mon Mar 18 23:31, 342W
Mon Mar 18 23:26, 336W
Mon Mar 18 23:23, 342W
Mon Mar 18 23:16, 274W
Mon Mar 18 23:13, 281W
Mon Mar 18 23:06, 288W
Mon Mar 18 23:01, 219W
Mon Mar 18 22:56, 219W
Mon Mar 18 22:54, 219W
Mon Mar 18 22:46, 274W
Mon Mar 18 22:41, 274W
Mon Mar 18 22:36, 274W
Mon Mar 18 22:33, 219W
Mon Mar 18 22:26, 384W
Mon Mar 18 22:23, 363W
Mon Mar 18 22:16, 356W
Mon Mar 18 22:11, 720W
Mon Mar 18 22:09, 713W
Mon Mar 18 22:01, 781W
Mon Mar 18 21:57, 2338W
Mon Mar 18 21:52, 850W
Mon Mar 18 21:48, 795W
Mon Mar 18 21:42, 774W
Mon Mar 18 21:39, 713W
Mon Mar 18 21:31, 802W
Mon Mar 18 21:26, 829W
Mon Mar 18 21:23, 946W
Mon Mar 18 21:20, 980W
Mon Mar 18 21:12, 829W
Mon Mar 18 21:06, 877W
Mon Mar 18 21:04, 898W
Mon Mar 18 20:56, 768W
Mon Mar 18 20:51, 816W
Mon Mar 18 20:47, 768W
Mon Mar 18 20:41, 781W
Mon Mar 18 20:38, 843W
Mon Mar 18 20:31, 713W
Mon Mar 18 20:26, 768W
Mon Mar 18 20:21, 829W
Mon Mar 18 20:16, 781W
Mon Mar 18 20:14, 795W
Mon Mar 18 20:08, 754W
Mon Mar 18 20:02, 816W
Mon Mar 18 19:56, 788W
Mon Mar 18 19:51, 816W
Mon Mar 18 19:46, 822W
Mon Mar 18 19:44, 747W
Mon Mar 18 19:36, 768W
Mon Mar 18 19:31, 768W
Mon Mar 18 19:27, 795W
Mon Mar 18 19:21, 624W
Mon Mar 18 19:16, 706W
Mon Mar 18 19:12, 658W
Mon Mar 18 19:08, 644W
Mon Mar 18 19:01, 644W
Mon Mar 18 18:57, 740W
Mon Mar 18 18:54, 2359W
Mon Mar 18 18:46, 1810W
Mon Mar 18 18:41, 1796W
Mon Mar 18 18:36, 1755W
Mon Mar 18 18:31, 1728W
Mon Mar 18 18:27, 3284W
Mon Mar 18 18:22, 2448W
Mon Mar 18 18:17, 2461W
Mon Mar 18 18:15, 2448W
Mon Mar 18 18:10, 2290W
Mon Mar 18 18:04, 2249W
Mon Mar 18 18:00, 2228W
Mon Mar 18 17:53, 2153W
Mon Mar 18 17:47, 2256W
Mon Mar 18 17:44, 2221W
Mon Mar 18 17:36, 2228W
Mon Mar 18 17:31, 2338W
Mon Mar 18 17:26, 1618W
Mon Mar 18 17:23, 1762W
Mon Mar 18 17:20, 2530W
Mon Mar 18 17:14, 2420W
Mon Mar 18 17:09, 2311W
Mon Mar 18 17:03, 2256W
Mon Mar 18 16:57, 2331W
Mon Mar 18 16:53, 2338W
Mon Mar 18 16:49, 2372W
Mon Mar 18 16:41, 1714W
Mon Mar 18 16:36, 1700W
Mon Mar 18 16:31, 1693W
Mon Mar 18 16:26, 1735W
Mon Mar 18 16:23, 2825W
Mon Mar 18 16:16, 1618W
Mon Mar 18 16:14, 2715W
Mon Mar 18 16:06, 493W
Mon Mar 18 16:02, 548W
Mon Mar 18 15:56, 548W
Mon Mar 18 15:53, 548W
Mon Mar 18 15:47, 548W
Mon Mar 18 15:43, 672W
Mon Mar 18 15:38, 473W
Mon Mar 18 15:31, 329W
Mon Mar 18 15:30, 356W
Mon Mar 18 15:24, 1913W
Mon Mar 18 15:16, 384W
Mon Mar 18 15:13, 404W
Mon Mar 18 15:06, 438W
Mon Mar 18 15:01, 438W
Mon Mar 18 14:59, 438W
Mon Mar 18 14:51, 384W
Mon Mar 18 14:48, 390W
Mon Mar 18 14:43, 384W
Mon Mar 18 14:36, 384W
Mon Mar 18 14:31, 397W
Mon Mar 18 14:27, 397W
Mon Mar 18 14:21, 486W
Mon Mar 18 14:17, 480W
Mon Mar 18 14:12, 452W
Mon Mar 18 14:06, 336W
Mon Mar 18 14:01, 1344W
Mon Mar 18 13:58, 1213W
Mon Mar 18 13:52, 1241W
Mon Mar 18 13:49, 1049W
Mon Mar 18 13:41, 1357W
Mon Mar 18 13:36, 1522W
Mon Mar 18 13:33, 1645W
Mon Mar 18 13:28, 1652W
Mon Mar 18 13:23, 1481W
Mon Mar 18 13:20, 1591W
Mon Mar 18 13:14, 445W
Mon Mar 18 13:06, 377W
Mon Mar 18 13:04, 507W
Mon Mar 18 12:56, 480W
Mon Mar 18 12:53, 500W
Mon Mar 18 12:47, 493W
Mon Mar 18 12:41, 1248W
Mon Mar 18 12:38, 1220W
Mon Mar 18 12:33, 267W
Mon Mar 18 12:26, 274W
Mon Mar 18 12:21, 267W
Mon Mar 18 12:17, 329W
Mon Mar 18 12:15, 329W
Mon Mar 18 12:06, 342W
Mon Mar 18 12:03, 274W
Mon Mar 18 11:59, 267W
Mon Mar 18 11:54, 267W
Mon Mar 18 11:48, 281W
Mon Mar 18 11:42, 274W
Mon Mar 18 11:36, 260W
Mon Mar 18 11:31, 342W
Mon Mar 18 11:26, 329W
Mon Mar 18 11:23, 329W
Mon Mar 18 11:16, 274W
Mon Mar 18 11:11, 260W
Mon Mar 18 11:08, 267W
Mon Mar 18 11:04, 288W
Mon Mar 18 10:59, 274W
Mon Mar 18 10:51, 281W
Mon Mar 18 10:46, 288W
Mon Mar 18 10:45, 288W
Mon Mar 18 10:37, 281W
Mon Mar 18 10:34, 274W
Mon Mar 18 10:29, 233W
Mon Mar 18 10:24, 226W
Mon Mar 18 10:17, 233W
Mon Mar 18 10:14, 233W
Mon Mar 18 10:07, 219W
Mon Mar 18 10:01, 288W
Mon Mar 18 09:58, 301W
Mon Mar 18 09:52, 281W
Mon Mar 18 09:49, 274W
Mon Mar 18 09:43, 219W
Mon Mar 18 09:37, 212W
Mon Mar 18 09:32, 226W
Mon Mar 18 09:28, 274W
Mon Mar 18 09:21, 267W
Mon Mar 18 09:16, 329W
Mon Mar 18 09:11, 329W
Mon Mar 18 09:06, 397W
Mon Mar 18 09:01, 370W
Mon Mar 18 08:58, 336W
Mon Mar 18 08:55, 329W
Mon Mar 18 08:46, 342W
Mon Mar 18 08:43, 342W
Mon Mar 18 08:39, 329W
Mon Mar 18 08:31, 342W
Mon Mar 18 08:26, 500W
Mon Mar 18 08:22, 672W
Mon Mar 18 08:16, 1289W
Mon Mar 18 08:11, 644W
Mon Mar 18 08:06, 658W
Mon Mar 18 08:04, 658W
Mon Mar 18 07:57, 1796W
Mon Mar 18 07:53, 1817W
Mon Mar 18 07:48, 809W
Mon Mar 18 07:41, 864W
Mon Mar 18 07:37, 870W
Mon Mar 18 07:35, 795W
Mon Mar 18 07:29, 548W
Mon Mar 18 07:25, 534W
Mon Mar 18 07:18, 486W
Mon Mar 18 07:14, 493W
Mon Mar 18 07:06, 507W
Mon Mar 18 07:05, 534W
Mon Mar 18 06:57, 548W
Mon Mar 18 06:53, 582W
Mon Mar 18 06:50, 534W
Mon Mar 18 06:44, 486W
Mon Mar 18 06:36, 425W
Mon Mar 18 06:34, 500W
Mon Mar 18 06:26, 1933W
Mon Mar 18 06:24, 370W
Mon Mar 18 06:18, 452W

s8 PM2.5 air quality
Wed Mar 20 11:31, pm:5

Wed Mar 20 11:31, pm:5
Wed Mar 20 11:26, pm:5
Wed Mar 20 11:21, pm:6
Wed Mar 20 11:16, pm:4
Wed Mar 20 11:11, pm:6
Wed Mar 20 11:06, pm:5
Wed Mar 20 11:01, pm:4
Wed Mar 20 10:56, pm:4
Wed Mar 20 10:51, pm:6
Wed Mar 20 10:46, pm:6
Wed Mar 20 10:41, pm:5
Wed Mar 20 10:36, pm:5
Wed Mar 20 10:31, pm:8
Wed Mar 20 10:26, pm:5
Wed Mar 20 10:21, pm:4
Wed Mar 20 10:16, pm:4
Wed Mar 20 10:11, pm:6
Wed Mar 20 10:06, pm:4
Wed Mar 20 10:01, pm:4
Wed Mar 20 09:56, pm:4
Wed Mar 20 09:51, pm:4
Wed Mar 20 09:46, pm:4
Wed Mar 20 09:41, pm:4
Wed Mar 20 09:36, pm:6
Wed Mar 20 09:31, pm:4
Wed Mar 20 09:26, pm:4
Wed Mar 20 09:21, pm:4
Wed Mar 20 09:16, pm:4
Wed Mar 20 09:11, pm:4
Wed Mar 20 09:06, pm:3
Wed Mar 20 09:01, pm:4
Wed Mar 20 08:56, pm:4
Wed Mar 20 08:51, pm:5
Wed Mar 20 08:46, pm:4
Wed Mar 20 08:41, pm:4
Wed Mar 20 08:36, pm:4
Wed Mar 20 08:31, pm:3
Wed Mar 20 08:26, pm:4
Wed Mar 20 08:21, pm:3
Wed Mar 20 08:16, pm:3
Wed Mar 20 08:11, pm:3
Wed Mar 20 08:06, pm:3
Wed Mar 20 08:01, pm:4
Wed Mar 20 07:56, pm:2
Wed Mar 20 07:51, pm:3
Wed Mar 20 07:46, pm:2
Wed Mar 20 07:41, pm:3
Wed Mar 20 07:36, pm:3
Wed Mar 20 07:31, pm:2
Wed Mar 20 07:26, pm:1
Wed Mar 20 07:21, pm:2
Wed Mar 20 07:16, pm:3
Wed Mar 20 07:11, pm:2
Wed Mar 20 07:06, pm:3
Wed Mar 20 07:01, pm:3
Wed Mar 20 06:56, pm:3
Wed Mar 20 06:51, pm:3
Wed Mar 20 06:46, pm:2
Wed Mar 20 06:41, pm:1
Wed Mar 20 06:36, pm:2
Wed Mar 20 06:31, pm:2
Wed Mar 20 06:26, pm:1
Wed Mar 20 06:21, pm:1
Wed Mar 20 06:16, pm:1
Wed Mar 20 06:11, pm:1
Wed Mar 20 06:06, pm:1
Wed Mar 20 06:01, pm:2
Wed Mar 20 05:56, pm:1
Wed Mar 20 05:51, pm:1
Wed Mar 20 05:46, pm:1
Wed Mar 20 05:41, pm:1
Wed Mar 20 05:36, pm:1
Wed Mar 20 05:31, pm:2
Wed Mar 20 05:26, pm:1
Wed Mar 20 05:21, pm:1
Wed Mar 20 05:16, pm:1
Wed Mar 20 05:11, pm:1
Wed Mar 20 05:06, pm:1
Wed Mar 20 05:01, pm:1
Wed Mar 20 04:56, pm:1
Wed Mar 20 04:51, pm:1
Wed Mar 20 04:46, pm:1
Wed Mar 20 04:41, pm:1
Wed Mar 20 04:36, pm:2
Wed Mar 20 04:31, pm:1
Wed Mar 20 04:26, pm:1
Wed Mar 20 04:21, pm:1
Wed Mar 20 04:16, pm:1
Wed Mar 20 04:11, pm:1
Wed Mar 20 04:06, pm:1
Wed Mar 20 04:01, pm:1
Wed Mar 20 03:56, pm:1
Wed Mar 20 03:51, pm:1
Wed Mar 20 03:46, pm:1
Wed Mar 20 03:41, pm:1
Wed Mar 20 03:36, pm:1
Wed Mar 20 03:31, pm:1
Wed Mar 20 03:26, pm:1
Wed Mar 20 03:21, pm:1
Wed Mar 20 03:16, pm:1
Wed Mar 20 03:11, pm:1
Wed Mar 20 03:06, pm:1
Wed Mar 20 03:01, pm:1
Wed Mar 20 02:56, pm:1
Wed Mar 20 02:51, pm:1
Wed Mar 20 02:46, pm:2
Wed Mar 20 02:41, pm:1
Wed Mar 20 02:36, pm:1
Wed Mar 20 02:31, pm:1
Wed Mar 20 02:26, pm:1
Wed Mar 20 02:21, pm:1
Wed Mar 20 02:16, pm:2
Wed Mar 20 02:11, pm:1
Wed Mar 20 02:06, pm:2
Wed Mar 20 02:01, pm:3
Wed Mar 20 01:56, pm:3
Wed Mar 20 01:51, pm:3
Wed Mar 20 01:46, pm:1
Wed Mar 20 01:41, pm:2
Wed Mar 20 01:36, pm:1
Wed Mar 20 01:31, pm:1
Wed Mar 20 01:26, pm:3
Wed Mar 20 01:21, pm:3
Wed Mar 20 01:16, pm:4
Wed Mar 20 01:11, pm:3
Wed Mar 20 01:06, pm:4
Wed Mar 20 01:01, pm:2
Wed Mar 20 00:56, pm:3
Wed Mar 20 00:51, pm:3
Wed Mar 20 00:46, pm:4
Wed Mar 20 00:41, pm:3
Wed Mar 20 00:36, pm:6
Wed Mar 20 00:31, pm:6
Wed Mar 20 00:26, pm:6
Wed Mar 20 00:21, pm:7
Wed Mar 20 00:16, pm:6
Wed Mar 20 00:11, pm:6
Wed Mar 20 00:06, pm:6
Wed Mar 20 00:01, pm:6
Tue Mar 19 23:56, pm:5
Tue Mar 19 23:51, pm:6
Tue Mar 19 23:46, pm:6
Tue Mar 19 23:41, pm:6
Tue Mar 19 23:36, pm:6
Tue Mar 19 23:31, pm:11
Tue Mar 19 23:26, pm:8
Tue Mar 19 23:21, pm:7
Tue Mar 19 23:16, pm:8
Tue Mar 19 23:11, pm:8
Tue Mar 19 23:06, pm:7
Tue Mar 19 23:01, pm:9
Tue Mar 19 22:56, pm:11
Tue Mar 19 22:51, pm:8
Tue Mar 19 22:46, pm:9
Tue Mar 19 22:41, pm:9
Tue Mar 19 22:36, pm:11
Tue Mar 19 22:31, pm:13
Tue Mar 19 22:26, pm:14
Tue Mar 19 22:21, pm:19
Tue Mar 19 22:16, pm:14
Tue Mar 19 22:11, pm:15
Tue Mar 19 22:06, pm:16
Tue Mar 19 22:01, pm:16
Tue Mar 19 21:56, pm:16
Tue Mar 19 21:51, pm:17
Tue Mar 19 21:46, pm:14
Tue Mar 19 21:41, pm:16
Tue Mar 19 21:36, pm:14
Tue Mar 19 21:31, pm:16
Tue Mar 19 21:26, pm:11
Tue Mar 19 21:21, pm:14
Tue Mar 19 21:16, pm:12
Tue Mar 19 21:11, pm:14
Tue Mar 19 21:06, pm:12
Tue Mar 19 21:01, pm:9
Tue Mar 19 20:56, pm:10
Tue Mar 19 20:51, pm:8
Tue Mar 19 20:46, pm:11
Tue Mar 19 20:41, pm:9
Tue Mar 19 20:36, pm:8
Tue Mar 19 20:31, pm:7
Tue Mar 19 20:26, pm:6
Tue Mar 19 20:21, pm:6
Tue Mar 19 20:16, pm:7
Tue Mar 19 20:11, pm:7
Tue Mar 19 20:06, pm:8
Tue Mar 19 20:01, pm:9
Tue Mar 19 19:56, pm:8
Tue Mar 19 19:51, pm:10
Tue Mar 19 19:46, pm:8
Tue Mar 19 19:41, pm:9
Tue Mar 19 19:36, pm:11
Tue Mar 19 19:31, pm:13
Tue Mar 19 19:26, pm:9
Tue Mar 19 19:21, pm:12
Tue Mar 19 19:16, pm:11
Tue Mar 19 19:11, pm:9
Tue Mar 19 19:06, pm:10
Tue Mar 19 19:01, pm:8
Tue Mar 19 18:56, pm:6
Tue Mar 19 18:51, pm:6
Tue Mar 19 18:46, pm:5
Tue Mar 19 18:41, pm:6
Tue Mar 19 18:36, pm:8
Tue Mar 19 18:31, pm:8
Tue Mar 19 18:26, pm:9
Tue Mar 19 18:21, pm:12
Tue Mar 19 18:16, pm:11
Tue Mar 19 18:11, pm:12
Tue Mar 19 18:06, pm:9
Tue Mar 19 18:01, pm:11
Tue Mar 19 17:56, pm:11
Tue Mar 19 17:51, pm:8
Tue Mar 19 17:46, pm:11
Tue Mar 19 17:41, pm:11
Tue Mar 19 17:36, pm:18
Tue Mar 19 17:31, pm:5
Tue Mar 19 17:26, pm:8
Tue Mar 19 17:21, pm:4
Tue Mar 19 17:16, pm:4
Tue Mar 19 17:11, pm:5
Tue Mar 19 17:06, pm:1
Tue Mar 19 17:01, pm:1
Tue Mar 19 16:56, pm:1
Tue Mar 19 16:51, pm:1
Tue Mar 19 16:46, pm:1
Tue Mar 19 16:41, pm:1
Tue Mar 19 16:36, pm:3
Tue Mar 19 16:31, pm:1
Tue Mar 19 16:26, pm:1
Tue Mar 19 16:21, pm:2
Tue Mar 19 16:16, pm:1
Tue Mar 19 16:11, pm:2
Tue Mar 19 16:06, pm:1
Tue Mar 19 16:01, pm:2
Tue Mar 19 15:56, pm:2
Tue Mar 19 15:51, pm:2
Tue Mar 19 15:46, pm:3
Tue Mar 19 15:41, pm:3
Tue Mar 19 15:36, pm:3
Tue Mar 19 15:31, pm:3
Tue Mar 19 15:26, pm:4
Tue Mar 19 15:21, pm:3
Tue Mar 19 15:16, pm:3
Tue Mar 19 15:11, pm:2
Tue Mar 19 15:06, pm:4
Tue Mar 19 15:01, pm:4
Tue Mar 19 14:56, pm:4
Tue Mar 19 14:51, pm:4
Tue Mar 19 14:46, pm:4
Tue Mar 19 14:41, pm:3
Tue Mar 19 14:36, pm:3
Tue Mar 19 14:31, pm:4
Tue Mar 19 14:26, pm:6
Tue Mar 19 14:21, pm:4
Tue Mar 19 14:16, pm:4
Tue Mar 19 14:11, pm:4
Tue Mar 19 14:06, pm:4
Tue Mar 19 14:01, pm:5
Tue Mar 19 13:56, pm:4
Tue Mar 19 13:51, pm:3
Tue Mar 19 13:46, pm:1
Tue Mar 19 13:41, pm:2
Tue Mar 19 13:36, pm:3
Tue Mar 19 13:31, pm:2
Tue Mar 19 13:26, pm:3
Tue Mar 19 13:21, pm:3
Tue Mar 19 13:16, pm:4
Tue Mar 19 13:11, pm:2
Tue Mar 19 13:06, pm:4
Tue Mar 19 13:01, pm:4
Tue Mar 19 12:56, pm:3
Tue Mar 19 12:51, pm:4
Tue Mar 19 12:46, pm:3
Tue Mar 19 12:41, pm:3
Tue Mar 19 12:36, pm:4
Tue Mar 19 12:31, pm:8
Tue Mar 19 12:26, pm:8
Tue Mar 19 12:21, pm:4
Tue Mar 19 12:16, pm:3
Tue Mar 19 12:11, pm:3
Tue Mar 19 12:06, pm:4
Tue Mar 19 12:01, pm:4
Tue Mar 19 11:56, pm:8
Tue Mar 19 11:51, pm:4
Tue Mar 19 11:46, pm:4
Tue Mar 19 11:41, pm:4
Tue Mar 19 11:36, pm:4
Tue Mar 19 11:31, pm:10
Tue Mar 19 11:26, pm:7
Tue Mar 19 11:21, pm:5
Tue Mar 19 11:16, pm:7
Tue Mar 19 11:11, pm:4
Tue Mar 19 11:06, pm:4
Tue Mar 19 11:01, pm:4
Tue Mar 19 10:56, pm:5
Tue Mar 19 10:51, pm:4
Tue Mar 19 10:46, pm:3
Tue Mar 19 10:41, pm:2
Tue Mar 19 10:36, pm:3
Tue Mar 19 10:31, pm:3
Tue Mar 19 10:26, pm:3
Tue Mar 19 10:21, pm:3
Tue Mar 19 10:16, pm:3
Tue Mar 19 10:11, pm:1
Tue Mar 19 10:06, pm:3
Tue Mar 19 10:01, pm:3
Tue Mar 19 09:56, pm:3
Tue Mar 19 09:51, pm:2
Tue Mar 19 09:46, pm:2
Tue Mar 19 09:41, pm:2
Tue Mar 19 09:36, pm:4
Tue Mar 19 09:31, pm:4
Tue Mar 19 09:26, pm:4
Tue Mar 19 09:21, pm:3
Tue Mar 19 09:16, pm:3
Tue Mar 19 09:11, pm:3
Tue Mar 19 09:06, pm:2
Tue Mar 19 09:01, pm:3
Tue Mar 19 08:56, pm:4
Tue Mar 19 08:51, pm:4
Tue Mar 19 08:46, pm:4
Tue Mar 19 08:41, pm:6
Tue Mar 19 08:36, pm:3
Tue Mar 19 08:31, pm:6
Tue Mar 19 08:26, pm:6
Tue Mar 19 08:21, pm:4
Tue Mar 19 08:16, pm:6
Tue Mar 19 08:11, pm:4
Tue Mar 19 08:06, pm:5
Tue Mar 19 08:01, pm:
Tue Mar 19 07:56, pm:5
Tue Mar 19 07:51, pm:2
Tue Mar 19 07:46, pm:3
Tue Mar 19 07:41, pm:1
Tue Mar 19 07:36, pm:2
Tue Mar 19 07:31, pm:3
Tue Mar 19 07:26, pm:3
Tue Mar 19 07:21, pm:2
Tue Mar 19 07:16, pm:2
Tue Mar 19 07:11, pm:1
Tue Mar 19 07:06, pm:3
Tue Mar 19 07:01, pm:2
Tue Mar 19 06:56, pm:1
Tue Mar 19 06:51, pm:1
Tue Mar 19 06:46, pm:1
Tue Mar 19 06:41, pm:1
Tue Mar 19 06:36, pm:1
Tue Mar 19 06:31, pm:1
Tue Mar 19 06:26, pm:1
Tue Mar 19 06:21, pm:1
Tue Mar 19 06:16, pm:1
Tue Mar 19 06:11, pm:2
Tue Mar 19 06:06, pm:1
Tue Mar 19 06:01, pm:1
Tue Mar 19 05:56, pm:1
Tue Mar 19 05:51, pm:1
Tue Mar 19 05:46, pm:1
Tue Mar 19 05:41, pm:1
Tue Mar 19 05:36, pm:1
Tue Mar 19 05:31, pm:1
Tue Mar 19 05:26, pm:1
Tue Mar 19 05:21, pm:1
Tue Mar 19 05:16, pm:1
Tue Mar 19 05:11, pm:1
Tue Mar 19 05:06, pm:1
Tue Mar 19 05:01, pm:1
Tue Mar 19 04:56, pm:1
Tue Mar 19 04:51, pm:1
Tue Mar 19 04:46, pm:1
Tue Mar 19 04:41, pm:1
Tue Mar 19 04:36, pm:1
Tue Mar 19 04:31, pm:1
Tue Mar 19 04:26, pm:1
Tue Mar 19 04:21, pm:1
Tue Mar 19 04:16, pm:1
Tue Mar 19 04:11, pm:1
Tue Mar 19 04:06, pm:1
Tue Mar 19 04:01, pm:1
Tue Mar 19 03:56, pm:1
Tue Mar 19 03:51, pm:1
Tue Mar 19 03:46, pm:1
Tue Mar 19 03:41, pm:1
Tue Mar 19 03:36, pm:1
Tue Mar 19 03:31, pm:1
Tue Mar 19 03:26, pm:1
Tue Mar 19 03:21, pm:1
Tue Mar 19 03:16, pm:1
Tue Mar 19 03:11, pm:1
Tue Mar 19 03:06, pm:1
Tue Mar 19 03:01, pm:1
Tue Mar 19 02:56, pm:1
Tue Mar 19 02:51, pm:1
Tue Mar 19 02:46, pm:1
Tue Mar 19 02:41, pm:1
Tue Mar 19 02:36, pm:1
Tue Mar 19 02:31, pm:1
Tue Mar 19 02:26, pm:1
Tue Mar 19 02:21, pm:1
Tue Mar 19 02:16, pm:1
Tue Mar 19 02:11, pm:1
Tue Mar 19 02:06, pm:1
Tue Mar 19 02:01, pm:1
Tue Mar 19 01:56, pm:1
Tue Mar 19 01:51, pm:1
Tue Mar 19 01:46, pm:1
Tue Mar 19 01:41, pm:1
Tue Mar 19 01:36, pm:1
Tue Mar 19 01:31, pm:1
Tue Mar 19 01:26, pm:1
Tue Mar 19 01:21, pm:1
Tue Mar 19 01:16, pm:1
Tue Mar 19 01:11, pm:1
Tue Mar 19 01:06, pm:1
Tue Mar 19 01:01, pm:1
Tue Mar 19 00:56, pm:1
Tue Mar 19 00:51, pm:1
Tue Mar 19 00:46, pm:1
Tue Mar 19 00:41, pm:1
Tue Mar 19 00:36, pm:2
Tue Mar 19 00:31, pm:1
Tue Mar 19 00:26, pm:2
Tue Mar 19 00:21, pm:3
Tue Mar 19 00:16, pm:2
Tue Mar 19 00:11, pm:1
Tue Mar 19 00:06, pm:2
Tue Mar 19 00:01, pm:3
Mon Mar 18 23:56, pm:2
Mon Mar 18 23:51, pm:3
Mon Mar 18 23:46, pm:3
Mon Mar 18 23:41, pm:2
Mon Mar 18 23:36, pm:2
Mon Mar 18 23:31, pm:3
Mon Mar 18 23:26, pm:2
Mon Mar 18 23:21, pm:3
Mon Mar 18 23:16, pm:3
Mon Mar 18 23:11, pm:4
Mon Mar 18 23:06, pm:4
Mon Mar 18 23:01, pm:4
Mon Mar 18 22:56, pm:5
Mon Mar 18 22:51, pm:5
Mon Mar 18 22:46, pm:6
Mon Mar 18 22:41, pm:7
Mon Mar 18 22:36, pm:8
Mon Mar 18 22:31, pm:11
Mon Mar 18 22:26, pm:9
Mon Mar 18 22:21, pm:6
Mon Mar 18 22:16, pm:7
Mon Mar 18 22:11, pm:4
Mon Mar 18 22:06, pm:7
Mon Mar 18 22:01, pm:9
Mon Mar 18 21:56, pm:9
Mon Mar 18 21:51, pm:9
Mon Mar 18 21:46, pm:8
Mon Mar 18 21:41, pm:6
Mon Mar 18 21:36, pm:6
Mon Mar 18 21:31, pm:9
Mon Mar 18 21:26, pm:13
Mon Mar 18 21:21, pm:8
Mon Mar 18 21:16, pm:9
Mon Mar 18 21:11, pm:10
Mon Mar 18 21:06, pm:6
Mon Mar 18 21:01, pm:6
Mon Mar 18 20:56, pm:6
Mon Mar 18 20:51, pm:4
Mon Mar 18 20:46, pm:5
Mon Mar 18 20:41, pm:3
Mon Mar 18 20:36, pm:4
Mon Mar 18 20:31, pm:4
Mon Mar 18 20:26, pm:2
Mon Mar 18 20:21, pm:3
Mon Mar 18 20:16, pm:3
Mon Mar 18 20:11, pm:3
Mon Mar 18 20:06, pm:2
Mon Mar 18 20:01, pm:3
Mon Mar 18 19:56, pm:3
Mon Mar 18 19:51, pm:4
Mon Mar 18 19:46, pm:3
Mon Mar 18 19:41, pm:3
Mon Mar 18 19:36, pm:4
Mon Mar 18 19:31, pm:3
Mon Mar 18 19:26, pm:3
Mon Mar 18 19:21, pm:3
Mon Mar 18 19:16, pm:3
Mon Mar 18 19:11, pm:3
Mon Mar 18 19:06, pm:5
Mon Mar 18 19:01, pm:4
Mon Mar 18 18:56, pm:8
Mon Mar 18 18:51, pm:6
Mon Mar 18 18:46, pm:6
Mon Mar 18 18:41, pm:6
Mon Mar 18 18:36, pm:5
Mon Mar 18 18:31, pm:9
Mon Mar 18 18:26, pm:3
Mon Mar 18 18:21, pm:1
Mon Mar 18 18:16, pm:1
Mon Mar 18 18:11, pm:1
Mon Mar 18 18:06, pm:1
Mon Mar 18 18:01, pm:1
Mon Mar 18 17:56, pm:2
Mon Mar 18 17:51, pm:1
Mon Mar 18 17:46, pm:2
Mon Mar 18 17:41, pm:2
Mon Mar 18 17:36, pm:2
Mon Mar 18 17:31, pm:1
Mon Mar 18 17:26, pm:3
Mon Mar 18 17:21, pm:3
Mon Mar 18 17:16, pm:1
Mon Mar 18 17:11, pm:1
Mon Mar 18 17:06, pm:1
Mon Mar 18 17:01, pm:1
Mon Mar 18 16:56, pm:1
Mon Mar 18 16:51, pm:1
Mon Mar 18 16:46, pm:1
Mon Mar 18 16:41, pm:1
Mon Mar 18 16:36, pm:1
Mon Mar 18 16:31, pm:1
Mon Mar 18 16:26, pm:1
Mon Mar 18 16:21, pm:1
Mon Mar 18 16:16, pm:1
Mon Mar 18 16:11, pm:1
Mon Mar 18 16:06, pm:3
Mon Mar 18 16:01, pm:3
Mon Mar 18 15:56, pm:3
Mon Mar 18 15:51, pm:3
Mon Mar 18 15:46, pm:3
Mon Mar 18 15:41, pm:3
Mon Mar 18 15:36, pm:3
Mon Mar 18 15:31, pm:3
Mon Mar 18 15:26, pm:3
Mon Mar 18 15:21, pm:3
Mon Mar 18 15:16, pm:3
Mon Mar 18 15:11, pm:3
Mon Mar 18 15:06, pm:3
Mon Mar 18 15:01, pm:3
Mon Mar 18 14:56, pm:3
Mon Mar 18 14:51, pm:3
Mon Mar 18 14:46, pm:
Mon Mar 18 14:41, pm:
Mon Mar 18 14:36, pm:
Mon Mar 18 14:31, pm:
Mon Mar 18 14:26, pm:
Mon Mar 18 14:21, pm:
Mon Mar 18 14:16, pm:
Mon Mar 18 14:11, pm:
Mon Mar 18 14:06, pm:
Mon Mar 18 14:01, pm:
Mon Mar 18 13:56, pm:
Mon Mar 18 13:51, pm:
Mon Mar 18 13:46, pm:
Mon Mar 18 13:41, pm:1
Mon Mar 18 13:36, pm:1
Mon Mar 18 13:31, pm:1
Mon Mar 18 13:26, pm:1
Mon Mar 18 13:21, pm:1
Mon Mar 18 13:16, pm:1
Mon Mar 18 13:11, pm:1
Mon Mar 18 13:06, pm:1
Mon Mar 18 13:01, pm:1
Mon Mar 18 12:56, pm:1
Mon Mar 18 12:51, pm:1
Mon Mar 18 12:46, pm:1
Mon Mar 18 12:41, pm:1
Mon Mar 18 12:36, pm:1
Mon Mar 18 12:31, pm:2
Mon Mar 18 12:26, pm:1
Mon Mar 18 12:21, pm:1
Mon Mar 18 12:16, pm:1
Mon Mar 18 12:11, pm:2
Mon Mar 18 12:06, pm:1
Mon Mar 18 12:01, pm:1
Mon Mar 18 11:56, pm:3
Mon Mar 18 11:51, pm:3
Mon Mar 18 11:46, pm:2
Mon Mar 18 11:41, pm:3
Mon Mar 18 11:36, pm:3
Mon Mar 18 11:31, pm:3
Mon Mar 18 11:26, pm:1
Mon Mar 18 11:21, pm:3
Mon Mar 18 11:16, pm:3
Mon Mar 18 11:11, pm:3
Mon Mar 18 11:06, pm:4
Mon Mar 18 11:01, pm:3
Mon Mar 18 10:56, pm:3
Mon Mar 18 10:51, pm:3
Mon Mar 18 10:46, pm:4
Mon Mar 18 10:41, pm:3
Mon Mar 18 10:36, pm:4
Mon Mar 18 10:31, pm:3
Mon Mar 18 10:26, pm:5
Mon Mar 18 10:21, pm:3
Mon Mar 18 10:16, pm:3
Mon Mar 18 10:11, pm:3
Mon Mar 18 10:06, pm:4
Mon Mar 18 10:01, pm:3
Mon Mar 18 09:56, pm:6
Mon Mar 18 09:51, pm:5
Mon Mar 18 09:46, pm:5
Mon Mar 18 09:41, pm:6
Mon Mar 18 09:36, pm:5
Mon Mar 18 09:31, pm:8
Mon Mar 18 09:26, pm:6
Mon Mar 18 09:21, pm:8
Mon Mar 18 09:16, pm:7
Mon Mar 18 09:11, pm:10
Mon Mar 18 09:06, pm:8
Mon Mar 18 09:01, pm:11
Mon Mar 18 08:56, pm:7
Mon Mar 18 08:51, pm:8
Mon Mar 18 08:46, pm:8
Mon Mar 18 08:41, pm:9
Mon Mar 18 08:36, pm:8
Mon Mar 18 08:31, pm:8
Mon Mar 18 08:26, pm:10
Mon Mar 18 08:21, pm:9
Mon Mar 18 08:16, pm:6
Mon Mar 18 08:11, pm:4
Mon Mar 18 08:06, pm:1
Mon Mar 18 08:01, pm:1
Mon Mar 18 07:56, pm:1
Mon Mar 18 07:51, pm:1
Mon Mar 18 07:46, pm:
Mon Mar 18 07:41, pm:1
Mon Mar 18 07:36, pm:1
Mon Mar 18 07:31, pm:1
Mon Mar 18 07:26, pm:1
Mon Mar 18 07:21, pm:1
Mon Mar 18 07:16, pm:1
Mon Mar 18 07:11, pm:1
Mon Mar 18 07:06, pm:1
Mon Mar 18 07:01, pm:1
Mon Mar 18 06:56, pm:1
Mon Mar 18 06:51, pm:2
Mon Mar 18 06:46, pm:1
Mon Mar 18 06:41, pm:1
Mon Mar 18 06:36, pm:1
Mon Mar 18 06:31, pm:1
Mon Mar 18 06:26, pm:1

s9 Front Door
Wed Mar 20 10:59:46, status close

Wed Mar 20 10:59:46, status close
Wed Mar 20 10:58:15, status open
Wed Mar 20 10:33:36, status close
Wed Mar 20 10:33:04, no_close 1m
Wed Mar 20 10:31:32, status open
Wed Mar 20 10:06:22, status close
Wed Mar 20 10:04:51, status open
Wed Mar 20 08:32:14, status close
Wed Mar 20 08:30:44, status open
Tue Mar 19 21:32:23, status close
Tue Mar 19 21:30:53, status open
Tue Mar 19 20:52:59, status close
Tue Mar 19 20:51:29, status open
Tue Mar 19 19:43:12, status close
Tue Mar 19 19:41:42, status open
Tue Mar 19 19:00:03, status close
Tue Mar 19 18:58:32, status open
Tue Mar 19 17:33:57, status close
Tue Mar 19 17:32:26, status open
Tue Mar 19 16:03:16, status close
Tue Mar 19 16:01:44, status open
Tue Mar 19 15:17:09, status close
Tue Mar 19 15:15:38, status open
Tue Mar 19 12:20:20, status close
Tue Mar 19 12:18:49, status open
Tue Mar 19 11:22:02, status close
Tue Mar 19 11:20:31, status open
Tue Mar 19 08:25:26, status close
Tue Mar 19 08:23:54, status open
Tue Mar 19 08:21:19, status close
Tue Mar 19 08:19:48, status open
Tue Mar 19 08:16:02, status close
Tue Mar 19 08:14:31, status open
Tue Mar 19 07:19:46, status close
Tue Mar 19 07:18:15, status open
Mon Mar 18 18:35:46, status close
Mon Mar 18 18:34:15, status open
Mon Mar 18 17:27:57, status close
Mon Mar 18 17:26:26, status open
Mon Mar 18 17:20:19, status close
Mon Mar 18 17:18:49, status open
Mon Mar 18 13:47:04, status close
Mon Mar 18 13:45:34, status open
Mon Mar 18 13:22:24, status close
Mon Mar 18 13:20:54, status open
Mon Mar 18 12:46:47, status close
Mon Mar 18 12:45:16, status open
Mon Mar 18 12:42:45, status close
Mon Mar 18 12:41:15, status open
Mon Mar 18 12:38:41, status close
Mon Mar 18 12:37:11, status open
Mon Mar 18 09:14:17, status close
Mon Mar 18 09:12:46, status open
Mon Mar 18 09:10:16, status close
Mon Mar 18 09:08:45, status open
Mon Mar 18 08:33:20, status close
Mon Mar 18 08:31:50, status open
Mon Mar 18 08:21:44, status close
Mon Mar 18 08:20:14, status open
Mon Mar 18 07:36:05, status close
Mon Mar 18 07:34:35, status open
Sun Mar 17 19:07:13, status close
Sun Mar 17 19:05:42, status open
Sun Mar 17 19:03:00, status close
Sun Mar 17 19:01:30, status open
Sun Mar 17 18:50:42, status close
Sun Mar 17 18:49:12, status open
Sun Mar 17 18:19:55, status close
Sun Mar 17 18:18:24, status open
Sun Mar 17 16:07:26, status close
Sun Mar 17 16:05:56, status open
Sun Mar 17 16:03:22, status close
Sun Mar 17 16:01:52, status open
Sun Mar 17 14:30:29, status close
Sun Mar 17 14:28:58, status open
Sun Mar 17 14:26:26, status close
Sun Mar 17 14:24:55, status open
Sun Mar 17 14:22:17, status close
Sun Mar 17 14:20:46, status open
Sun Mar 17 14:18:14, status close
Sun Mar 17 14:16:44, status open
Sun Mar 17 14:14:10, status close
Sun Mar 17 14:12:40, status open
Sun Mar 17 13:12:31, status close
Sun Mar 17 13:11:00, status open
Sun Mar 17 11:48:39, status close
Sun Mar 17 11:47:09, status open
Sun Mar 17 11:44:38, status close
Sun Mar 17 11:43:08, status open
Sun Mar 17 10:56:09, status close
Sun Mar 17 10:54:38, status open
Sun Mar 17 10:52:05, status close
Sun Mar 17 10:50:34, status open
Sun Mar 17 10:47:57, status close
Sun Mar 17 10:46:26, status open
Sun Mar 17 02:35:44, status close
Sun Mar 17 02:34:13, status open
Sat Mar 16 19:14:21, status close
Sat Mar 16 19:12:50, status open
Sat Mar 16 19:03:50, status close
Sat Mar 16 19:02:19, status open
Sat Mar 16 18:59:47, status close
Sat Mar 16 18:58:17, status open
Sat Mar 16 17:08:41, status close
Sat Mar 16 17:07:11, status open
Sat Mar 16 17:04:39, status close
Sat Mar 16 17:03:08, status open
Sat Mar 16 16:55:19, status close
Sat Mar 16 16:53:49, status open
Sat Mar 16 15:04:53, status close
Sat Mar 16 15:03:22, status open
Sat Mar 16 15:00:52, status close
Sat Mar 16 14:59:20, status open
Sat Mar 16 13:40:45, status close
Sat Mar 16 13:39:14, status open
Sat Mar 16 12:19:57, status close
Sat Mar 16 12:18:25, status open
Sat Mar 16 08:31:28, status close
Sat Mar 16 08:29:57, status open
Fri Mar 15 20:35:46, status close
Fri Mar 15 20:34:15, status open
Fri Mar 15 18:12:45, status close
Fri Mar 15 18:11:13, status open
Fri Mar 15 18:08:41, status close
Fri Mar 15 18:07:11, status open
Fri Mar 15 17:44:29, status close
Fri Mar 15 17:42:52, status open
Fri Mar 15 17:40:20, status close
Fri Mar 15 17:39:25, no_close 1m
Fri Mar 15 17:37:52, status open
Fri Mar 15 16:00:10, status close
Fri Mar 15 15:58:40, status open
Fri Mar 15 15:53:19, status close
Fri Mar 15 15:51:49, status open
Fri Mar 15 14:49:16, status close
Fri Mar 15 14:47:45, status open
Fri Mar 15 14:22:31, status close
Fri Mar 15 14:21:01, status open
Fri Mar 15 14:18:27, status close
Fri Mar 15 14:16:57, status open
Fri Mar 15 14:14:24, status close
Fri Mar 15 14:12:53, status open
Fri Mar 15 14:10:17, status close
Fri Mar 15 14:08:47, status open
Fri Mar 15 13:02:46, status close
Fri Mar 15 13:01:16, status open
Fri Mar 15 12:58:43, status close
Fri Mar 15 12:57:12, status open
Fri Mar 15 12:43:22, status close
Fri Mar 15 12:41:52, status open
Fri Mar 15 12:34:07, status close
Fri Mar 15 12:32:36, status open
Fri Mar 15 08:39:14, status close
Fri Mar 15 08:37:43, status open
Fri Mar 15 08:35:11, status close
Fri Mar 15 08:33:41, status open
Fri Mar 15 08:31:10, status close
Fri Mar 15 08:29:39, status open
Fri Mar 15 08:27:08, status close
Fri Mar 15 08:25:38, status open
Fri Mar 15 08:22:26, status close
Fri Mar 15 08:20:55, status open
Fri Mar 15 08:18:23, status close
Fri Mar 15 08:16:53, status open
Fri Mar 15 08:08:24, status close
Fri Mar 15 08:06:53, status open
Fri Mar 15 08:04:12, status close
Fri Mar 15 08:02:41, status open
Fri Mar 15 08:00:05, status close
Fri Mar 15 07:58:35, status open
Fri Mar 15 07:56:02, status close
Fri Mar 15 07:54:31, status open
Fri Mar 15 07:18:10, status close
Fri Mar 15 07:16:39, status open
Fri Mar 15 07:03:41, status close
Fri Mar 15 07:02:11, status open
Thu Mar 14 21:34:51, status close
Thu Mar 14 21:33:21, status open
Thu Mar 14 19:00:08, status close
Thu Mar 14 18:58:37, status open
Thu Mar 14 18:56:04, status close
Thu Mar 14 18:54:34, status open
Thu Mar 14 18:34:07, status close
Thu Mar 14 18:32:36, status open
Thu Mar 14 17:32:55, status close
Thu Mar 14 17:31:24, status open
Thu Mar 14 17:21:28, status close
Thu Mar 14 17:19:57, status open
Thu Mar 14 13:30:19, status close
Thu Mar 14 13:28:48, status open
Thu Mar 14 13:26:18, status close
Thu Mar 14 13:24:47, status open
Thu Mar 14 12:39:37, status close
Thu Mar 14 12:38:06, status open
Thu Mar 14 11:48:17, status close
Thu Mar 14 11:46:46, status open
Thu Mar 14 09:25:09, status close
Thu Mar 14 09:23:38, status open
Thu Mar 14 08:33:38, status close
Thu Mar 14 08:32:07, status open
Thu Mar 14 08:22:26, status close
Thu Mar 14 08:20:56, status open
Thu Mar 14 07:18:27, status close
Thu Mar 14 07:16:57, status open
Wed Mar 13 18:23:16, status close
Wed Mar 13 18:21:45, status open
Wed Mar 13 17:29:11, status close
Wed Mar 13 17:27:40, status open
Wed Mar 13 15:12:59, status close
Wed Mar 13 15:11:28, status open
Wed Mar 13 14:12:09, status close
Wed Mar 13 14:10:39, status open
Wed Mar 13 13:21:12, status close
Wed Mar 13 13:19:42, status open
Wed Mar 13 13:17:11, status close
Wed Mar 13 13:15:40, status open
Wed Mar 13 13:13:09, status close
Wed Mar 13 13:11:39, status open
Wed Mar 13 12:58:02, status close
Wed Mar 13 12:57:13, no_close 1m
Wed Mar 13 12:55:41, status open
Wed Mar 13 12:10:21, status close
Wed Mar 13 12:08:50, status open
Wed Mar 13 09:41:12, status close
Wed Mar 13 09:39:41, status open
Wed Mar 13 08:31:06, status close
Wed Mar 13 08:29:36, status open
Wed Mar 13 08:20:25, status close
Wed Mar 13 08:18:55, status open
Tue Mar 12 21:33:29, status close
Tue Mar 12 21:31:59, status open
Tue Mar 12 20:54:01, status close
Tue Mar 12 20:52:31, status open
Tue Mar 12 19:36:54, status close
Tue Mar 12 19:35:21, status open
Tue Mar 12 19:01:42, status close
Tue Mar 12 19:00:12, status open
Tue Mar 12 17:32:23, status close
Tue Mar 12 17:30:52, status open
Tue Mar 12 16:25:16, status close
Tue Mar 12 16:23:46, status open
Tue Mar 12 16:08:27, status close
Tue Mar 12 16:06:56, status open
Tue Mar 12 16:04:24, status close
Tue Mar 12 16:02:53, status open
Tue Mar 12 16:00:22, status close
Tue Mar 12 15:58:51, status open
Tue Mar 12 14:13:30, status close
Tue Mar 12 14:11:59, status open
Tue Mar 12 14:09:27, status close
Tue Mar 12 14:07:57, status open
Tue Mar 12 14:05:21, status close
Tue Mar 12 14:03:50, status open
Tue Mar 12 14:01:19, status close
Tue Mar 12 13:59:48, status open
Tue Mar 12 13:55:26, status close
Tue Mar 12 13:53:56, status open
Tue Mar 12 10:55:21, status close
Tue Mar 12 10:53:51, status open
Tue Mar 12 10:48:42, status close
Tue Mar 12 10:47:12, status open
Tue Mar 12 10:27:00, status close
Tue Mar 12 10:25:29, status open
Tue Mar 12 08:10:58, status close
Tue Mar 12 08:09:28, status open
Tue Mar 12 07:06:34, status close
Tue Mar 12 07:05:03, status open
Mon Mar 11 18:57:44, status close
Mon Mar 11 18:56:13, status open
Mon Mar 11 17:30:39, status close
Mon Mar 11 17:29:08, status open
Mon Mar 11 17:23:39, status close
Mon Mar 11 17:22:09, status open
Mon Mar 11 17:19:35, status close
Mon Mar 11 17:18:04, status open
Mon Mar 11 17:15:33, status close
Mon Mar 11 17:14:03, status open
Mon Mar 11 15:55:11, status close
Mon Mar 11 15:53:40, status open
Mon Mar 11 15:41:01, status close
Mon Mar 11 15:39:30, status open
Mon Mar 11 13:24:31, status close
Mon Mar 11 13:23:01, status open
Mon Mar 11 12:41:08, status close
Mon Mar 11 12:39:37, status open
Mon Mar 11 12:10:50, status close
Mon Mar 11 12:09:18, status open
Mon Mar 11 11:22:42, status close
Mon Mar 11 11:21:11, status open
Mon Mar 11 08:30:39, status close
Mon Mar 11 08:29:09, status open
Mon Mar 11 08:16:06, status close
Mon Mar 11 08:14:35, status open
Mon Mar 11 08:12:03, status close
Mon Mar 11 08:10:32, status open
Mon Mar 11 07:42:11, status close
Mon Mar 11 07:40:40, status open
Sun Mar 10 18:41:52, status close
Sun Mar 10 18:40:22, status open
Sun Mar 10 18:12:59, status close
Sun Mar 10 18:11:29, status open
Sun Mar 10 17:49:38, status close
Sun Mar 10 17:48:06, status open
Sun Mar 10 13:00:50, status close
Sun Mar 10 12:59:19, status open
Sun Mar 10 12:56:46, status close
Sun Mar 10 12:55:15, status open
Sun Mar 10 11:42:06, status close
Sun Mar 10 11:40:35, status open
Sun Mar 10 00:14:38, status close
Sun Mar 10 00:13:07, status open
Sat Mar 9 19:28:52, status close
Sat Mar 9 19:27:21, status open
Sat Mar 9 19:24:50, status close
Sat Mar 9 19:23:18, status open
Sat Mar 9 19:20:47, status close
Sat Mar 9 19:19:16, status open
Sat Mar 9 19:16:43, status close
Sat Mar 9 19:15:12, status open
Sat Mar 9 19:12:38, status close
Sat Mar 9 19:11:08, status open
Sat Mar 9 19:08:30, status close
Sat Mar 9 19:06:59, status open
Sat Mar 9 19:04:27, status close
Sat Mar 9 19:02:57, status open
Sat Mar 9 19:00:18, status close
Sat Mar 9 18:58:48, status open
Sat Mar 9 17:43:56, status close
Sat Mar 9 17:42:26, status open
Sat Mar 9 16:37:30, status close
Sat Mar 9 16:37:00, no_close 1m
Sat Mar 9 16:35:28, status open
Sat Mar 9 15:25:07, status close
Sat Mar 9 15:24:36, no_close 1m
Sat Mar 9 15:23:02, status open
Sat Mar 9 14:00:58, status close
Sat Mar 9 13:59:28, status open
Sat Mar 9 13:50:14, status close
Sat Mar 9 13:48:42, status open
Sat Mar 9 13:43:50, status close
Sat Mar 9 13:42:19, status open
Sat Mar 9 13:39:38, status close
Sat Mar 9 13:38:08, status open
Sat Mar 9 13:35:37, status close
Sat Mar 9 13:34:06, status open
Sat Mar 9 13:31:35, status close
Sat Mar 9 13:30:04, status open
Sat Mar 9 13:13:08, status close
Sat Mar 9 13:11:37, status open
Sat Mar 9 11:40:49, status close
Sat Mar 9 11:39:18, status open
Sat Mar 9 11:03:52, status close
Sat Mar 9 11:02:21, status open
Sat Mar 9 10:31:54, status close
Sat Mar 9 10:30:23, status open
Sat Mar 9 08:11:57, status close
Sat Mar 9 08:10:27, status open
Sat Mar 9 07:44:17, status close
Sat Mar 9 07:42:46, status open
Sat Mar 9 00:22:52, status close
Sat Mar 9 00:21:21, status open
Fri Mar 8 19:26:45, status close
Fri Mar 8 19:25:13, status open
Fri Mar 8 19:16:51, status close
Fri Mar 8 19:15:21, status open
Fri Mar 8 18:43:10, status close
Fri Mar 8 18:41:40, status open
Fri Mar 8 17:28:08, status close
Fri Mar 8 17:26:37, status open
Fri Mar 8 17:17:38, status close
Fri Mar 8 17:16:07, status open
Fri Mar 8 15:17:29, status close
Fri Mar 8 15:15:58, status open
Fri Mar 8 14:49:12, status close
Fri Mar 8 14:47:42, status open
Fri Mar 8 13:26:39, status close
Fri Mar 8 13:25:08, status open
Fri Mar 8 12:50:25, status close
Fri Mar 8 12:48:54, status open
Fri Mar 8 12:43:57, status close
Fri Mar 8 12:42:26, status open
Fri Mar 8 12:37:54, status close
Fri Mar 8 12:36:23, status open
Fri Mar 8 11:42:31, status close
Fri Mar 8 11:41:01, status open
Fri Mar 8 10:31:46, status close
Fri Mar 8 10:30:15, status open
Fri Mar 8 08:31:16, status close
Fri Mar 8 08:29:45, status open
Fri Mar 8 08:26:31, status close
Fri Mar 8 08:25:01, status open
Fri Mar 8 08:22:29, status close
Fri Mar 8 08:20:59, status open
Fri Mar 8 08:18:27, status close
Fri Mar 8 08:16:57, status open
Fri Mar 8 08:14:10, status close
Fri Mar 8 08:12:40, status open
Fri Mar 8 08:10:09, status close
Fri Mar 8 08:08:38, status open
Fri Mar 8 08:06:07, status close
Fri Mar 8 08:04:36, status open
Fri Mar 8 08:02:04, status close
Fri Mar 8 08:00:34, status open
Fri Mar 8 07:37:20, status close
Fri Mar 8 07:35:49, status open
Thu Mar 7 19:53:29, status close
Thu Mar 7 19:51:59, status open
Thu Mar 7 19:46:40, status close
Thu Mar 7 19:45:10, status open
Thu Mar 7 19:20:30, status close
Thu Mar 7 19:18:59, status open
Thu Mar 7 19:16:25, status close
Thu Mar 7 19:14:55, status open
Thu Mar 7 18:50:17, status close
Thu Mar 7 18:48:47, status open
Thu Mar 7 18:46:14, status close
Thu Mar 7 18:44:43, status open
Thu Mar 7 18:18:35, status close
Thu Mar 7 18:17:04, status open
Thu Mar 7 17:50:31, status close
Thu Mar 7 17:49:01, status open
Thu Mar 7 17:31:26, status close
Thu Mar 7 17:29:56, status open
Thu Mar 7 17:23:39, status close
Thu Mar 7 17:22:09, status open
Thu Mar 7 13:19:21, status close
Thu Mar 7 13:17:51, status open
Thu Mar 7 12:39:45, status close
Thu Mar 7 12:38:15, status open
Thu Mar 7 08:29:17, status close
Thu Mar 7 08:27:47, status open
Thu Mar 7 08:20:03, status close
Thu Mar 7 08:18:33, status open
Thu Mar 7 07:18:25, status close
Thu Mar 7 07:16:54, status open
Wed Mar 6 20:48:32, status close
Wed Mar 6 20:47:01, status open
Wed Mar 6 19:41:52, status close
Wed Mar 6 19:40:22, status open
Wed Mar 6 18:36:10, status close
Wed Mar 6 18:34:39, status open
Wed Mar 6 18:06:18, status close
Wed Mar 6 18:04:47, status open
Wed Mar 6 17:44:30, status close
Wed Mar 6 17:43:00, status open
Wed Mar 6 17:33:58, status close
Wed Mar 6 17:33:23, no_close 1m
Wed Mar 6 17:31:50, status open
Wed Mar 6 17:29:18, status close
Wed Mar 6 17:27:46, status open
Wed Mar 6 17:19:09, status close
Wed Mar 6 17:18:25, no_close 1m
Wed Mar 6 17:16:52, status open
Wed Mar 6 16:59:25, status close
Wed Mar 6 16:57:54, status open
Wed Mar 6 16:07:33, status close
Wed Mar 6 16:06:02, status open
Wed Mar 6 15:03:17, status close
Wed Mar 6 15:00:46, status open
Wed Mar 6 14:20:32, status close
Wed Mar 6 14:18:01, no_close 1m
Wed Mar 6 14:17:28, status open
Wed Mar 6 14:03:52, status close
Wed Mar 6 14:01:21, status open
Wed Mar 6 12:43:39, status close
Wed Mar 6 12:41:05, status open
Wed Mar 6 12:39:33, status close
Wed Mar 6 12:37:02, status open
Wed Mar 6 11:50:50, status close
Wed Mar 6 11:48:20, status open
Wed Mar 6 11:28:16, status close
Wed Mar 6 11:25:45, status open
Wed Mar 6 10:55:13, status close
Wed Mar 6 10:51:42, status open
Wed Mar 6 08:32:34, status close
Wed Mar 6 08:32:30, status open
Wed Mar 6 08:18:46, status close
Wed Mar 6 08:18:45, no_close 1m
Wed Mar 6 08:17:45, status open
Tue Mar 5 21:33:55, status close
Tue Mar 5 21:33:52, status open
Tue Mar 5 18:57:29, status close
Tue Mar 5 18:57:23, status open
Tue Mar 5 17:28:20, status close
Tue Mar 5 17:28:17, status open
Tue Mar 5 13:43:41, status close
Tue Mar 5 13:43:37, status open
Tue Mar 5 13:21:14, status close
Tue Mar 5 13:21:13, status open
Tue Mar 5 13:12:23, status close
Tue Mar 5 13:12:18, status open
Tue Mar 5 10:52:56, status close
Tue Mar 5 10:52:51, status open
Tue Mar 5 10:28:39, status close
Tue Mar 5 10:28:36, status open
Tue Mar 5 10:09:26, status close
Tue Mar 5 10:09:06, status open
Tue Mar 5 09:16:44, status close
Tue Mar 5 09:16:23, status open
Tue Mar 5 08:17:41, status close
Tue Mar 5 08:17:36, status open
Tue Mar 5 07:17:39, status close
Tue Mar 5 07:17:35, status open
Mon Mar 4 18:36:38, status close
Mon Mar 4 18:36:10, status open
Mon Mar 4 18:00:52, status close
Mon Mar 4 18:00:38, status open
Mon Mar 4 17:30:40, status close
Mon Mar 4 17:30:37, status open

Contact: HomeGuardMi at Gmail.com     HG ver Nov-17